<?xml version='1.0' encoding='UTF-8'?>
<gpx version="1.1" creator="https://www.komoot.de" xmlns="http://www.topografix.com/GPX/1/1" xmlns:xsi="http://www.w3.org/2001/XMLSchema-instance" xsi:schemaLocation="http://www.topografix.com/GPX/1/1 http://www.topografix.com/GPX/1/1/gpx.xsd">
  <metadata>
    <name>Toboggan suresnois (départ mairie) - 100km</name>
    <author>
      <link href="https://www.komoot.de">
        <text>komoot</text>
        <type>text/html</type>
      </link>
    </author>
  </metadata>
  <trk>
    <name>Toboggan suresnois (départ mairie) - 100km</name>
    <trkseg>
      <trkpt lat="48.884366" lon="2.269355">
        <ele>42.048093</ele>
        <time>2023-03-30T13:40:36.968Z</time>
      </trkpt>
      <trkpt lat="48.884439" lon="2.269026">
        <ele>42.048093</ele>
        <time>2023-03-30T13:40:41.500Z</time>
      </trkpt>
      <trkpt lat="48.884462" lon="2.268923">
        <ele>42.048093</ele>
        <time>2023-03-30T13:40:43.057Z</time>
      </trkpt>
      <trkpt lat="48.884560" lon="2.268487">
        <ele>42.048093</ele>
        <time>2023-03-30T13:40:48.852Z</time>
      </trkpt>
      <trkpt lat="48.884586" lon="2.268373">
        <ele>42.048093</ele>
        <time>2023-03-30T13:40:50.436Z</time>
      </trkpt>
      <trkpt lat="48.884663" lon="2.268043">
        <ele>42.046855</ele>
        <time>2023-03-30T13:40:54.508Z</time>
      </trkpt>
      <trkpt lat="48.884795" lon="2.267467">
        <ele>42.009035</ele>
        <time>2023-03-30T13:41:01.788Z</time>
      </trkpt>
      <trkpt lat="48.884866" lon="2.267418">
        <ele>42.001683</ele>
        <time>2023-03-30T13:41:03.258Z</time>
      </trkpt>
      <trkpt lat="48.885647" lon="2.264041">
        <ele>41.041177</ele>
        <time>2023-03-30T13:41:34.205Z</time>
      </trkpt>
      <trkpt lat="48.885604" lon="2.263934">
        <ele>40.975264</ele>
        <time>2023-03-30T13:41:35.099Z</time>
      </trkpt>
      <trkpt lat="48.885635" lon="2.263809">
        <ele>40.905044</ele>
        <time>2023-03-30T13:41:36.181Z</time>
      </trkpt>
      <trkpt lat="48.885665" lon="2.263684">
        <ele>40.835102</ele>
        <time>2023-03-30T13:41:37.203Z</time>
      </trkpt>
      <trkpt lat="48.885729" lon="2.263679">
        <ele>40.783876</ele>
        <time>2023-03-30T13:41:37.955Z</time>
      </trkpt>
      <trkpt lat="48.885795" lon="2.263389">
        <ele>40.622574</ele>
        <time>2023-03-30T13:41:40.287Z</time>
      </trkpt>
      <trkpt lat="48.885951" lon="2.262734">
        <ele>40.454436</ele>
        <time>2023-03-30T13:41:45.950Z</time>
      </trkpt>
      <trkpt lat="48.885924" lon="2.262633">
        <ele>40.458687</ele>
        <time>2023-03-30T13:41:46.910Z</time>
      </trkpt>
      <trkpt lat="48.886180" lon="2.262095">
        <ele>40.484581</ele>
        <time>2023-03-30T13:41:52.807Z</time>
      </trkpt>
      <trkpt lat="48.886348" lon="2.261853">
        <ele>40.498303</ele>
        <time>2023-03-30T13:41:56.733Z</time>
      </trkpt>
      <trkpt lat="48.886381" lon="2.261735">
        <ele>40.503302</ele>
        <time>2023-03-30T13:41:58.080Z</time>
      </trkpt>
      <trkpt lat="48.886281" lon="2.261709">
        <ele>40.509318</ele>
        <time>2023-03-30T13:41:59.555Z</time>
      </trkpt>
      <trkpt lat="48.886248" lon="2.261666">
        <ele>40.511895</ele>
        <time>2023-03-30T13:42:00.331Z</time>
      </trkpt>
      <trkpt lat="48.886199" lon="2.261603">
        <ele>40.515700</ele>
        <time>2023-03-30T13:42:01.428Z</time>
      </trkpt>
      <trkpt lat="48.886167" lon="2.261485">
        <ele>40.520677</ele>
        <time>2023-03-30T13:42:02.787Z</time>
      </trkpt>
      <trkpt lat="48.886167" lon="2.261414">
        <ele>40.523445</ele>
        <time>2023-03-30T13:42:03.508Z</time>
      </trkpt>
      <trkpt lat="48.886201" lon="2.261343">
        <ele>40.526870</ele>
        <time>2023-03-30T13:42:04.327Z</time>
      </trkpt>
      <trkpt lat="48.886247" lon="2.261313">
        <ele>40.529838</ele>
        <time>2023-03-30T13:42:05.156Z</time>
      </trkpt>
      <trkpt lat="48.885937" lon="2.261143">
        <ele>40.587317</ele>
        <time>2023-03-30T13:42:10.972Z</time>
      </trkpt>
      <trkpt lat="48.885580" lon="2.260958">
        <ele>41.041853</ele>
        <time>2023-03-30T13:42:18.307Z</time>
      </trkpt>
      <trkpt lat="48.885436" lon="2.260881">
        <ele>41.225812</ele>
        <time>2023-03-30T13:42:21.776Z</time>
      </trkpt>
      <trkpt lat="48.885050" lon="2.260673">
        <ele>41.719346</ele>
        <time>2023-03-30T13:42:30.977Z</time>
      </trkpt>
      <trkpt lat="48.884959" lon="2.260633">
        <ele>41.833506</ele>
        <time>2023-03-30T13:42:33.104Z</time>
      </trkpt>
      <trkpt lat="48.884944" lon="2.260441">
        <ele>41.986733</ele>
        <time>2023-03-30T13:42:35.886Z</time>
      </trkpt>
      <trkpt lat="48.884868" lon="2.260282">
        <ele>42.142510</ele>
        <time>2023-03-30T13:42:39.188Z</time>
      </trkpt>
      <trkpt lat="48.884746" lon="2.260215">
        <ele>42.298833</ele>
        <time>2023-03-30T13:42:42.521Z</time>
      </trkpt>
      <trkpt lat="48.884621" lon="2.260264">
        <ele>42.454403</ele>
        <time>2023-03-30T13:42:45.669Z</time>
      </trkpt>
      <trkpt lat="48.884539" lon="2.260417">
        <ele>42.610825</ele>
        <time>2023-03-30T13:42:48.513Z</time>
      </trkpt>
      <trkpt lat="48.884434" lon="2.260368">
        <ele>42.716604</ele>
        <time>2023-03-30T13:42:50.445Z</time>
      </trkpt>
      <trkpt lat="48.883753" lon="2.260045">
        <ele>42.763305</ele>
        <time>2023-03-30T13:43:01.267Z</time>
      </trkpt>
      <trkpt lat="48.883262" lon="2.259812">
        <ele>42.796978</ele>
        <time>2023-03-30T13:43:08.573Z</time>
      </trkpt>
      <trkpt lat="48.883001" lon="2.259688">
        <ele>42.814879</ele>
        <time>2023-03-30T13:43:12.864Z</time>
      </trkpt>
      <trkpt lat="48.882898" lon="2.259639">
        <ele>42.821945</ele>
        <time>2023-03-30T13:43:14.430Z</time>
      </trkpt>
      <trkpt lat="48.882179" lon="2.259298">
        <ele>42.395733</ele>
        <time>2023-03-30T13:43:24.806Z</time>
      </trkpt>
      <trkpt lat="48.881527" lon="2.258989">
        <ele>41.887129</ele>
        <time>2023-03-30T13:43:32.905Z</time>
      </trkpt>
      <trkpt lat="48.881478" lon="2.258965">
        <ele>41.848790</ele>
        <time>2023-03-30T13:43:33.582Z</time>
      </trkpt>
      <trkpt lat="48.881450" lon="2.258952">
        <ele>41.826988</ele>
        <time>2023-03-30T13:43:33.971Z</time>
      </trkpt>
      <trkpt lat="48.881049" lon="2.258653">
        <ele>41.494378</ele>
        <time>2023-03-30T13:43:39.688Z</time>
      </trkpt>
      <trkpt lat="48.880486" lon="2.258389">
        <ele>41.058920</ele>
        <time>2023-03-30T13:43:47.092Z</time>
      </trkpt>
      <trkpt lat="48.880417" lon="2.258356">
        <ele>41.005459</ele>
        <time>2023-03-30T13:43:47.979Z</time>
      </trkpt>
      <trkpt lat="48.880316" lon="2.258298">
        <ele>40.925664</ele>
        <time>2023-03-30T13:43:49.296Z</time>
      </trkpt>
      <trkpt lat="48.880189" lon="2.258231">
        <ele>40.826309</ele>
        <time>2023-03-30T13:43:50.909Z</time>
      </trkpt>
      <trkpt lat="48.879928" lon="2.258141">
        <ele>40.628506</ele>
        <time>2023-03-30T13:43:54.082Z</time>
      </trkpt>
      <trkpt lat="48.877318" lon="2.256790">
        <ele>39.378315</ele>
        <time>2023-03-30T13:44:31.474Z</time>
      </trkpt>
      <trkpt lat="48.876979" lon="2.256619">
        <ele>39.281672</ele>
        <time>2023-03-30T13:44:36.827Z</time>
      </trkpt>
      <trkpt lat="48.876826" lon="2.256493">
        <ele>39.234591</ele>
        <time>2023-03-30T13:44:39.201Z</time>
      </trkpt>
      <trkpt lat="48.876760" lon="2.256469">
        <ele>39.216229</ele>
        <time>2023-03-30T13:44:40.160Z</time>
      </trkpt>
      <trkpt lat="48.876038" lon="2.256146">
        <ele>39.012587</ele>
        <time>2023-03-30T13:44:50.572Z</time>
      </trkpt>
      <trkpt lat="48.875779" lon="2.256018">
        <ele>38.917693</ele>
        <time>2023-03-30T13:44:54.129Z</time>
      </trkpt>
      <trkpt lat="48.875668" lon="2.255964">
        <ele>38.870236</ele>
        <time>2023-03-30T13:44:55.664Z</time>
      </trkpt>
      <trkpt lat="48.875600" lon="2.255929">
        <ele>38.841003</ele>
        <time>2023-03-30T13:44:56.651Z</time>
      </trkpt>
      <trkpt lat="48.874449" lon="2.255328">
        <ele>38.345445</ele>
        <time>2023-03-30T13:45:13.210Z</time>
      </trkpt>
      <trkpt lat="48.874340" lon="2.255216">
        <ele>38.291874</ele>
        <time>2023-03-30T13:45:14.909Z</time>
      </trkpt>
      <trkpt lat="48.874251" lon="2.255124">
        <ele>38.248044</ele>
        <time>2023-03-30T13:45:16.398Z</time>
      </trkpt>
      <trkpt lat="48.874214" lon="2.255027">
        <ele>38.217542</ele>
        <time>2023-03-30T13:45:17.421Z</time>
      </trkpt>
      <trkpt lat="48.874093" lon="2.254966">
        <ele>38.164819</ele>
        <time>2023-03-30T13:45:19.104Z</time>
      </trkpt>
      <trkpt lat="48.874012" lon="2.255030">
        <ele>38.127065</ele>
        <time>2023-03-30T13:45:20.297Z</time>
      </trkpt>
      <trkpt lat="48.873891" lon="2.254972">
        <ele>38.074593</ele>
        <time>2023-03-30T13:45:22.016Z</time>
      </trkpt>
      <trkpt lat="48.873839" lon="2.254946">
        <ele>38.051954</ele>
        <time>2023-03-30T13:45:22.747Z</time>
      </trkpt>
      <trkpt lat="48.873746" lon="2.254901">
        <ele>38.011590</ele>
        <time>2023-03-30T13:45:23.987Z</time>
      </trkpt>
      <trkpt lat="48.873727" lon="2.254741">
        <ele>37.967362</ele>
        <time>2023-03-30T13:45:31.421Z</time>
      </trkpt>
      <trkpt lat="48.873675" lon="2.254707">
        <ele>37.943952</ele>
        <time>2023-03-30T13:45:35.325Z</time>
      </trkpt>
      <trkpt lat="48.873727" lon="2.254741">
        <ele>37.920541</ele>
        <time>2023-03-30T13:45:39.230Z</time>
      </trkpt>
      <trkpt lat="48.873746" lon="2.254901">
        <ele>37.876313</ele>
        <time>2023-03-30T13:45:46.664Z</time>
      </trkpt>
      <trkpt lat="48.873678" lon="2.254869">
        <ele>37.846873</ele>
        <time>2023-03-30T13:45:47.536Z</time>
      </trkpt>
      <trkpt lat="48.873752" lon="2.254945">
        <ele>37.809940</ele>
        <time>2023-03-30T13:45:48.709Z</time>
      </trkpt>
      <trkpt lat="48.873856" lon="2.255054">
        <ele>37.757698</ele>
        <time>2023-03-30T13:45:50.392Z</time>
      </trkpt>
      <trkpt lat="48.873973" lon="2.255204">
        <ele>37.694402</ele>
        <time>2023-03-30T13:45:52.330Z</time>
      </trkpt>
      <trkpt lat="48.873983" lon="2.255264">
        <ele>37.677564</ele>
        <time>2023-03-30T13:45:52.879Z</time>
      </trkpt>
      <trkpt lat="48.873994" lon="2.255296">
        <ele>37.667743</ele>
        <time>2023-03-30T13:45:53.195Z</time>
      </trkpt>
      <trkpt lat="48.874045" lon="2.255369">
        <ele>37.638773</ele>
        <time>2023-03-30T13:45:54.165Z</time>
      </trkpt>
      <trkpt lat="48.874114" lon="2.255396">
        <ele>37.609306</ele>
        <time>2023-03-30T13:45:55.148Z</time>
      </trkpt>
      <trkpt lat="48.874175" lon="2.255375">
        <ele>37.583439</ele>
        <time>2023-03-30T13:45:56.017Z</time>
      </trkpt>
      <trkpt lat="48.874225" lon="2.255315">
        <ele>37.557095</ele>
        <time>2023-03-30T13:45:56.856Z</time>
      </trkpt>
      <trkpt lat="48.874242" lon="2.255274">
        <ele>37.543911</ele>
        <time>2023-03-30T13:45:57.297Z</time>
      </trkpt>
      <trkpt lat="48.874251" lon="2.255124">
        <ele>37.505463</ele>
        <time>2023-03-30T13:45:58.769Z</time>
      </trkpt>
      <trkpt lat="48.874214" lon="2.255027">
        <ele>37.521533</ele>
        <time>2023-03-30T13:45:59.882Z</time>
      </trkpt>
      <trkpt lat="48.874093" lon="2.254966">
        <ele>37.549310</ele>
        <time>2023-03-30T13:46:01.820Z</time>
      </trkpt>
      <trkpt lat="48.874012" lon="2.255030">
        <ele>37.569200</ele>
        <time>2023-03-30T13:46:03.248Z</time>
      </trkpt>
      <trkpt lat="48.873891" lon="2.254972">
        <ele>37.596845</ele>
        <time>2023-03-30T13:46:05.315Z</time>
      </trkpt>
      <trkpt lat="48.873854" lon="2.254825">
        <ele>37.619402</ele>
        <time>2023-03-30T13:46:07.059Z</time>
      </trkpt>
      <trkpt lat="48.873768" lon="2.254489">
        <ele>37.671073</ele>
        <time>2023-03-30T13:46:10.964Z</time>
      </trkpt>
      <trkpt lat="48.873691" lon="2.254154">
        <ele>37.721930</ele>
        <time>2023-03-30T13:46:14.901Z</time>
      </trkpt>
      <trkpt lat="48.873627" lon="2.253797">
        <ele>37.774959</ele>
        <time>2023-03-30T13:46:18.847Z</time>
      </trkpt>
      <trkpt lat="48.873584" lon="2.253372">
        <ele>37.836584</ele>
        <time>2023-03-30T13:46:23.333Z</time>
      </trkpt>
      <trkpt lat="48.873573" lon="2.253025">
        <ele>37.886372</ele>
        <time>2023-03-30T13:46:26.815Z</time>
      </trkpt>
      <trkpt lat="48.873607" lon="2.252159">
        <ele>37.660908</ele>
        <time>2023-03-30T13:46:35.654Z</time>
      </trkpt>
      <trkpt lat="48.873709" lon="2.251578">
        <ele>37.483111</ele>
        <time>2023-03-30T13:46:41.759Z</time>
      </trkpt>
      <trkpt lat="48.873854" lon="2.251101">
        <ele>37.327743</ele>
        <time>2023-03-30T13:46:46.509Z</time>
      </trkpt>
      <trkpt lat="48.873882" lon="2.251044">
        <ele>37.306708</ele>
        <time>2023-03-30T13:46:47.080Z</time>
      </trkpt>
      <trkpt lat="48.874443" lon="2.249958">
        <ele>36.473605</ele>
        <time>2023-03-30T13:46:57.531Z</time>
      </trkpt>
      <trkpt lat="48.874506" lon="2.249577">
        <ele>36.097111</ele>
        <time>2023-03-30T13:47:00.494Z</time>
      </trkpt>
      <trkpt lat="48.874507" lon="2.249271">
        <ele>35.803853</ele>
        <time>2023-03-30T13:47:02.757Z</time>
      </trkpt>
      <trkpt lat="48.874514" lon="2.248973">
        <ele>35.518082</ele>
        <time>2023-03-30T13:47:05.924Z</time>
      </trkpt>
      <trkpt lat="48.874518" lon="2.248804">
        <ele>35.356017</ele>
        <time>2023-03-30T13:47:07.693Z</time>
      </trkpt>
      <trkpt lat="48.874392" lon="2.248684">
        <ele>35.139378</ele>
        <time>2023-03-30T13:47:09.420Z</time>
      </trkpt>
      <trkpt lat="48.874261" lon="2.248559">
        <ele>34.914020</ele>
        <time>2023-03-30T13:47:11.171Z</time>
      </trkpt>
      <trkpt lat="48.874238" lon="2.248537">
        <ele>34.874427</ele>
        <time>2023-03-30T13:47:11.472Z</time>
      </trkpt>
      <trkpt lat="48.873298" lon="2.247574">
        <ele>34.134739</ele>
        <time>2023-03-30T13:47:25.143Z</time>
      </trkpt>
      <trkpt lat="48.872487" lon="2.246832">
        <ele>33.767982</ele>
        <time>2023-03-30T13:47:40.190Z</time>
      </trkpt>
      <trkpt lat="48.871281" lon="2.245856">
        <ele>34.480432</ele>
        <time>2023-03-30T13:48:03.240Z</time>
      </trkpt>
      <trkpt lat="48.870498" lon="2.245273">
        <ele>34.861207</ele>
        <time>2023-03-30T13:48:18.615Z</time>
      </trkpt>
      <trkpt lat="48.869950" lon="2.244855">
        <ele>35.078280</ele>
        <time>2023-03-30T13:48:29.004Z</time>
      </trkpt>
      <trkpt lat="48.869051" lon="2.244123">
        <ele>35.180000</ele>
        <time>2023-03-30T13:48:44.195Z</time>
      </trkpt>
      <trkpt lat="48.868019" lon="2.243177">
        <ele>34.472479</ele>
        <time>2023-03-30T13:49:00.156Z</time>
      </trkpt>
      <trkpt lat="48.867419" lon="2.242602">
        <ele>34.020542</ele>
        <time>2023-03-30T13:49:08.495Z</time>
      </trkpt>
      <trkpt lat="48.867338" lon="2.242393">
        <ele>33.912374</ele>
        <time>2023-03-30T13:49:10.382Z</time>
      </trkpt>
      <trkpt lat="48.867179" lon="2.241672">
        <ele>33.573283</ele>
        <time>2023-03-30T13:49:16.440Z</time>
      </trkpt>
      <trkpt lat="48.867077" lon="2.241036">
        <ele>33.281372</ele>
        <time>2023-03-30T13:49:22.464Z</time>
      </trkpt>
      <trkpt lat="48.867016" lon="2.240387">
        <ele>33.123708</ele>
        <time>2023-03-30T13:49:28.725Z</time>
      </trkpt>
      <trkpt lat="48.866953" lon="2.239768">
        <ele>33.329882</ele>
        <time>2023-03-30T13:49:35.147Z</time>
      </trkpt>
      <trkpt lat="48.866889" lon="2.238885">
        <ele>33.622290</ele>
        <time>2023-03-30T13:49:45.970Z</time>
      </trkpt>
      <trkpt lat="48.866812" lon="2.238460">
        <ele>33.767392</ele>
        <time>2023-03-30T13:49:51.236Z</time>
      </trkpt>
      <trkpt lat="48.866758" lon="2.238169">
        <ele>33.866916</ele>
        <time>2023-03-30T13:49:54.531Z</time>
      </trkpt>
      <trkpt lat="48.866682" lon="2.237821">
        <ele>33.939360</ele>
        <time>2023-03-30T13:49:58.928Z</time>
      </trkpt>
      <trkpt lat="48.866441" lon="2.237024">
        <ele>33.567150</ele>
        <time>2023-03-30T13:50:08.331Z</time>
      </trkpt>
      <trkpt lat="48.866151" lon="2.236304">
        <ele>33.208909</ele>
        <time>2023-03-30T13:50:15.190Z</time>
      </trkpt>
      <trkpt lat="48.866023" lon="2.236007">
        <ele>33.058243</ele>
        <time>2023-03-30T13:50:17.925Z</time>
      </trkpt>
      <trkpt lat="48.865764" lon="2.235526">
        <ele>32.793767</ele>
        <time>2023-03-30T13:50:22.542Z</time>
      </trkpt>
      <trkpt lat="48.865174" lon="2.234598">
        <ele>32.213132</ele>
        <time>2023-03-30T13:50:32.215Z</time>
      </trkpt>
      <trkpt lat="48.865238" lon="2.234466">
        <ele>32.139357</ele>
        <time>2023-03-30T13:50:34.103Z</time>
      </trkpt>
      <trkpt lat="48.865434" lon="2.234052">
        <ele>31.909875</ele>
        <time>2023-03-30T13:50:40.368Z</time>
      </trkpt>
      <trkpt lat="48.865990" lon="2.232857">
        <ele>32.046562</ele>
        <time>2023-03-30T13:51:02.088Z</time>
      </trkpt>
      <trkpt lat="48.866202" lon="2.232298">
        <ele>32.466960</ele>
        <time>2023-03-30T13:51:12.805Z</time>
      </trkpt>
      <trkpt lat="48.866358" lon="2.231799">
        <ele>32.826920</ele>
        <time>2023-03-30T13:51:22.515Z</time>
      </trkpt>
      <trkpt lat="48.866467" lon="2.231441">
        <ele>33.083939</ele>
        <time>2023-03-30T13:51:27.859Z</time>
      </trkpt>
      <trkpt lat="48.866558" lon="2.231121">
        <ele>33.311075</ele>
        <time>2023-03-30T13:51:32.240Z</time>
      </trkpt>
      <trkpt lat="48.866596" lon="2.230979">
        <ele>33.387238</ele>
        <time>2023-03-30T13:51:34.129Z</time>
      </trkpt>
      <trkpt lat="48.867306" lon="2.228323">
        <ele>34.518860</ele>
        <time>2023-03-30T13:52:04.851Z</time>
      </trkpt>
      <trkpt lat="48.867418" lon="2.227900">
        <ele>34.884244</ele>
        <time>2023-03-30T13:52:10.392Z</time>
      </trkpt>
      <trkpt lat="48.867433" lon="2.227842">
        <ele>34.934183</ele>
        <time>2023-03-30T13:52:11.221Z</time>
      </trkpt>
      <trkpt lat="48.867467" lon="2.227721">
        <ele>35.039617</ele>
        <time>2023-03-30T13:52:12.930Z</time>
      </trkpt>
      <trkpt lat="48.867543" lon="2.227529">
        <ele>35.219176</ele>
        <time>2023-03-30T13:52:15.832Z</time>
      </trkpt>
      <trkpt lat="48.867580" lon="2.227496">
        <ele>35.271432</ele>
        <time>2023-03-30T13:52:16.639Z</time>
      </trkpt>
      <trkpt lat="48.867584" lon="2.227381">
        <ele>35.363712</ele>
        <time>2023-03-30T13:52:18.106Z</time>
      </trkpt>
      <trkpt lat="48.867606" lon="2.227306">
        <ele>35.429514</ele>
        <time>2023-03-30T13:52:19.208Z</time>
      </trkpt>
      <trkpt lat="48.867823" lon="2.226571">
        <ele>36.075077</ele>
        <time>2023-03-30T13:52:30.317Z</time>
      </trkpt>
      <trkpt lat="48.867836" lon="2.226529">
        <ele>36.112271</ele>
        <time>2023-03-30T13:52:30.979Z</time>
      </trkpt>
      <trkpt lat="48.867791" lon="2.226493">
        <ele>36.174215</ele>
        <time>2023-03-30T13:52:31.958Z</time>
      </trkpt>
      <trkpt lat="48.867755" lon="2.226470">
        <ele>36.221785</ele>
        <time>2023-03-30T13:52:32.746Z</time>
      </trkpt>
      <trkpt lat="48.867747" lon="2.226465">
        <ele>36.232321</ele>
        <time>2023-03-30T13:52:32.926Z</time>
      </trkpt>
      <trkpt lat="48.867733" lon="2.226456">
        <ele>36.250838</ele>
        <time>2023-03-30T13:52:33.270Z</time>
      </trkpt>
      <trkpt lat="48.867671" lon="2.226409">
        <ele>36.335233</ele>
        <time>2023-03-30T13:52:34.760Z</time>
      </trkpt>
      <trkpt lat="48.867582" lon="2.226350">
        <ele>36.453509</ele>
        <time>2023-03-30T13:52:36.889Z</time>
      </trkpt>
      <trkpt lat="48.867543" lon="2.226327">
        <ele>36.504467</ele>
        <time>2023-03-30T13:52:38.658Z</time>
      </trkpt>
      <trkpt lat="48.867510" lon="2.226306">
        <ele>36.546981</ele>
        <time>2023-03-30T13:52:39.432Z</time>
      </trkpt>
      <trkpt lat="48.867561" lon="2.226101">
        <ele>36.703950</ele>
        <time>2023-03-30T13:52:42.383Z</time>
      </trkpt>
      <trkpt lat="48.867537" lon="2.225941">
        <ele>36.821483</ele>
        <time>2023-03-30T13:52:44.932Z</time>
      </trkpt>
      <trkpt lat="48.867513" lon="2.225919">
        <ele>36.851997</ele>
        <time>2023-03-30T13:52:45.533Z</time>
      </trkpt>
      <trkpt lat="48.867360" lon="2.225783">
        <ele>37.044966</ele>
        <time>2023-03-30T13:52:49.374Z</time>
      </trkpt>
      <trkpt lat="48.867346" lon="2.225771">
        <ele>37.062465</ele>
        <time>2023-03-30T13:52:49.741Z</time>
      </trkpt>
      <trkpt lat="48.867309" lon="2.225738">
        <ele>37.109171</ele>
        <time>2023-03-30T13:52:50.706Z</time>
      </trkpt>
      <trkpt lat="48.867034" lon="2.225507">
        <ele>37.451251</ele>
        <time>2023-03-30T13:52:57.540Z</time>
      </trkpt>
      <trkpt lat="48.867004" lon="2.225486">
        <ele>37.487211</ele>
        <time>2023-03-30T13:52:58.236Z</time>
      </trkpt>
      <trkpt lat="48.866979" lon="2.225481">
        <ele>37.514665</ele>
        <time>2023-03-30T13:52:58.702Z</time>
      </trkpt>
      <trkpt lat="48.866979" lon="2.225383">
        <ele>37.584853</ele>
        <time>2023-03-30T13:53:00.018Z</time>
      </trkpt>
      <trkpt lat="48.866978" lon="2.225329">
        <ele>37.623543</ele>
        <time>2023-03-30T13:53:00.688Z</time>
      </trkpt>
      <trkpt lat="48.866975" lon="2.225301">
        <ele>37.643861</ele>
        <time>2023-03-30T13:53:01.029Z</time>
      </trkpt>
      <trkpt lat="48.866990" lon="2.225282">
        <ele>37.665119</ele>
        <time>2023-03-30T13:53:01.378Z</time>
      </trkpt>
      <trkpt lat="48.867002" lon="2.225236">
        <ele>37.700561</ele>
        <time>2023-03-30T13:53:01.992Z</time>
      </trkpt>
      <trkpt lat="48.866880" lon="2.225079">
        <ele>37.874594</ele>
        <time>2023-03-30T13:53:04.778Z</time>
      </trkpt>
      <trkpt lat="48.866796" lon="2.224975">
        <ele>37.992545</ele>
        <time>2023-03-30T13:53:06.592Z</time>
      </trkpt>
      <trkpt lat="48.866567" lon="2.224714">
        <ele>38.304167</ele>
        <time>2023-03-30T13:53:11.219Z</time>
      </trkpt>
      <trkpt lat="48.866436" lon="2.224599">
        <ele>38.468870</ele>
        <time>2023-03-30T13:53:13.651Z</time>
      </trkpt>
      <trkpt lat="48.866329" lon="2.224516">
        <ele>38.565725</ele>
        <time>2023-03-30T13:53:15.446Z</time>
      </trkpt>
      <trkpt lat="48.866277" lon="2.224396">
        <ele>38.634845</ele>
        <time>2023-03-30T13:53:16.938Z</time>
      </trkpt>
      <trkpt lat="48.866127" lon="2.224076">
        <ele>38.823852</ele>
        <time>2023-03-30T13:53:21.004Z</time>
      </trkpt>
      <trkpt lat="48.866124" lon="2.224045">
        <ele>38.838924</ele>
        <time>2023-03-30T13:53:21.354Z</time>
      </trkpt>
      <trkpt lat="48.866111" lon="2.224004">
        <ele>38.860817</ele>
        <time>2023-03-30T13:53:21.835Z</time>
      </trkpt>
      <trkpt lat="48.866041" lon="2.223942">
        <ele>38.920058</ele>
        <time>2023-03-30T13:53:23.094Z</time>
      </trkpt>
      <trkpt lat="48.866037" lon="2.223878">
        <ele>38.950981</ele>
        <time>2023-03-30T13:53:23.806Z</time>
      </trkpt>
      <trkpt lat="48.865546" lon="2.222834">
        <ele>39.568310</ele>
        <time>2023-03-30T13:53:37.774Z</time>
      </trkpt>
      <trkpt lat="48.865485" lon="2.222701">
        <ele>39.646301</ele>
        <time>2023-03-30T13:53:39.913Z</time>
      </trkpt>
      <trkpt lat="48.865033" lon="2.221809">
        <ele>41.626638</ele>
        <time>2023-03-30T13:53:56.520Z</time>
      </trkpt>
      <trkpt lat="48.864966" lon="2.221628">
        <ele>42.108435</ele>
        <time>2023-03-30T13:54:00.057Z</time>
      </trkpt>
      <trkpt lat="48.864911" lon="2.221503">
        <ele>42.457298</ele>
        <time>2023-03-30T13:54:02.828Z</time>
      </trkpt>
      <trkpt lat="48.864766" lon="2.221224">
        <ele>43.282143</ele>
        <time>2023-03-30T13:54:09.615Z</time>
      </trkpt>
      <trkpt lat="48.864739" lon="2.221178">
        <ele>43.425157</ele>
        <time>2023-03-30T13:54:10.864Z</time>
      </trkpt>
      <trkpt lat="48.864708" lon="2.221109">
        <ele>43.618994</ele>
        <time>2023-03-30T13:54:12.602Z</time>
      </trkpt>
      <trkpt lat="48.864680" lon="2.221053">
        <ele>43.782170</ele>
        <time>2023-03-30T13:54:14.106Z</time>
      </trkpt>
      <trkpt lat="48.864627" lon="2.220937">
        <ele>44.109809</ele>
        <time>2023-03-30T13:54:17.062Z</time>
      </trkpt>
      <trkpt lat="48.864584" lon="2.220836">
        <ele>44.388900</ele>
        <time>2023-03-30T13:54:19.647Z</time>
      </trkpt>
      <trkpt lat="48.864289" lon="2.220276">
        <ele>46.053205</ele>
        <time>2023-03-30T13:54:35.837Z</time>
      </trkpt>
      <trkpt lat="48.864240" lon="2.220127">
        <ele>46.659354</ele>
        <time>2023-03-30T13:54:39.858Z</time>
      </trkpt>
      <trkpt lat="48.864089" lon="2.219826">
        <ele>48.213751</ele>
        <time>2023-03-30T13:54:49.051Z</time>
      </trkpt>
      <trkpt lat="48.863907" lon="2.219401">
        <ele>50.296153</ele>
        <time>2023-03-30T13:55:02.199Z</time>
      </trkpt>
      <trkpt lat="48.863809" lon="2.219167">
        <ele>51.435244</ele>
        <time>2023-03-30T13:55:09.778Z</time>
      </trkpt>
      <trkpt lat="48.863730" lon="2.219005">
        <ele>52.263322</ele>
        <time>2023-03-30T13:55:15.440Z</time>
      </trkpt>
      <trkpt lat="48.863663" lon="2.218952">
        <ele>52.734784</ele>
        <time>2023-03-30T13:55:18.550Z</time>
      </trkpt>
      <trkpt lat="48.863121" lon="2.218715">
        <ele>56.255211</ele>
        <time>2023-03-30T13:55:43.654Z</time>
      </trkpt>
      <trkpt lat="48.862909" lon="2.218519">
        <ele>57.641266</ele>
        <time>2023-03-30T13:55:53.908Z</time>
      </trkpt>
      <trkpt lat="48.862704" lon="2.218182">
        <ele>58.799543</ele>
        <time>2023-03-30T13:56:05.108Z</time>
      </trkpt>
      <trkpt lat="48.862644" lon="2.218013">
        <ele>59.284162</ele>
        <time>2023-03-30T13:56:09.350Z</time>
      </trkpt>
      <trkpt lat="48.862638" lon="2.217895">
        <ele>59.582828</ele>
        <time>2023-03-30T13:56:12.116Z</time>
      </trkpt>
      <trkpt lat="48.862671" lon="2.217831">
        <ele>59.788031</ele>
        <time>2023-03-30T13:56:13.888Z</time>
      </trkpt>
      <trkpt lat="48.862746" lon="2.217766">
        <ele>60.119202</ele>
        <time>2023-03-30T13:56:16.376Z</time>
      </trkpt>
      <trkpt lat="48.862725" lon="2.217689">
        <ele>60.329550</ele>
        <time>2023-03-30T13:56:17.949Z</time>
      </trkpt>
      <trkpt lat="48.862664" lon="2.217364">
        <ele>61.182426</ele>
        <time>2023-03-30T13:56:24.788Z</time>
      </trkpt>
      <trkpt lat="48.862622" lon="2.217145">
        <ele>61.758085</ele>
        <time>2023-03-30T13:56:28.711Z</time>
      </trkpt>
      <trkpt lat="48.862574" lon="2.216915">
        <ele>62.367005</ele>
        <time>2023-03-30T13:56:33.253Z</time>
      </trkpt>
      <trkpt lat="48.862631" lon="2.216876">
        <ele>62.606783</ele>
        <time>2023-03-30T13:56:34.933Z</time>
      </trkpt>
      <trkpt lat="48.862681" lon="2.216903">
        <ele>62.810323</ele>
        <time>2023-03-30T13:56:36.125Z</time>
      </trkpt>
      <trkpt lat="48.862771" lon="2.216975">
        <ele>63.200451</ele>
        <time>2023-03-30T13:56:38.486Z</time>
      </trkpt>
      <trkpt lat="48.863031" lon="2.217372">
        <ele>64.393586</ele>
        <time>2023-03-30T13:56:47.124Z</time>
      </trkpt>
      <trkpt lat="48.863183" lon="2.217502">
        <ele>64.619460</ele>
        <time>2023-03-30T13:56:51.068Z</time>
      </trkpt>
      <trkpt lat="48.864054" lon="2.217838">
        <ele>65.783245</ele>
        <time>2023-03-30T13:57:04.165Z</time>
      </trkpt>
      <trkpt lat="48.864125" lon="2.217827">
        <ele>65.875673</ele>
        <time>2023-03-30T13:57:05.134Z</time>
      </trkpt>
      <trkpt lat="48.864235" lon="2.217891">
        <ele>66.028211</ele>
        <time>2023-03-30T13:57:18.082Z</time>
      </trkpt>
      <trkpt lat="48.864370" lon="2.217939">
        <ele>66.207768</ele>
        <time>2023-03-30T13:57:33.990Z</time>
      </trkpt>
      <trkpt lat="48.864476" lon="2.217980">
        <ele>66.349422</ele>
        <time>2023-03-30T13:57:47.004Z</time>
      </trkpt>
      <trkpt lat="48.864699" lon="2.218081">
        <ele>66.788578</ele>
        <time>2023-03-30T13:58:15.515Z</time>
      </trkpt>
      <trkpt lat="48.864839" lon="2.218138">
        <ele>67.620207</ele>
        <time>2023-03-30T13:58:19.956Z</time>
      </trkpt>
      <trkpt lat="48.864699" lon="2.218081">
        <ele>68.451837</ele>
        <time>2023-03-30T13:58:24.763Z</time>
      </trkpt>
      <trkpt lat="48.864476" lon="2.217980">
        <ele>69.786990</ele>
        <time>2023-03-30T13:58:55.682Z</time>
      </trkpt>
      <trkpt lat="48.864370" lon="2.217939">
        <ele>70.414596</ele>
        <time>2023-03-30T13:59:10.344Z</time>
      </trkpt>
      <trkpt lat="48.864235" lon="2.217891">
        <ele>71.210128</ele>
        <time>2023-03-30T13:59:29.058Z</time>
      </trkpt>
      <trkpt lat="48.864125" lon="2.217827">
        <ele>71.885957</ele>
        <time>2023-03-30T13:59:45.182Z</time>
      </trkpt>
      <trkpt lat="48.864152" lon="2.217783">
        <ele>72.113084</ele>
        <time>2023-03-30T13:59:46.762Z</time>
      </trkpt>
      <trkpt lat="48.864230" lon="2.217330">
        <ele>73.880625</ele>
        <time>2023-03-30T13:59:59.558Z</time>
      </trkpt>
      <trkpt lat="48.864246" lon="2.216818">
        <ele>75.815448</ele>
        <time>2023-03-30T14:00:14.038Z</time>
      </trkpt>
      <trkpt lat="48.864320" lon="2.216226">
        <ele>78.093974</ele>
        <time>2023-03-30T14:00:31.832Z</time>
      </trkpt>
      <trkpt lat="48.864412" lon="2.215266">
        <ele>81.768322</ele>
        <time>2023-03-30T14:01:01.208Z</time>
      </trkpt>
      <trkpt lat="48.864483" lon="2.214705">
        <ele>83.932052</ele>
        <time>2023-03-30T14:01:15.781Z</time>
      </trkpt>
      <trkpt lat="48.864505" lon="2.213784">
        <ele>87.311553</ele>
        <time>2023-03-30T14:01:33.828Z</time>
      </trkpt>
      <trkpt lat="48.864506" lon="2.213717">
        <ele>87.358027</ele>
        <time>2023-03-30T14:01:34.939Z</time>
      </trkpt>
      <trkpt lat="48.864517" lon="2.213642">
        <ele>87.411315</ele>
        <time>2023-03-30T14:01:36.165Z</time>
      </trkpt>
      <trkpt lat="48.864526" lon="2.213547">
        <ele>87.477874</ele>
        <time>2023-03-30T14:01:37.719Z</time>
      </trkpt>
      <trkpt lat="48.864485" lon="2.213497">
        <ele>87.533284</ele>
        <time>2023-03-30T14:01:38.973Z</time>
      </trkpt>
      <trkpt lat="48.864451" lon="2.213453">
        <ele>87.580355</ele>
        <time>2023-03-30T14:01:40.011Z</time>
      </trkpt>
      <trkpt lat="48.864165" lon="2.213097">
        <ele>87.970027</ele>
        <time>2023-03-30T14:01:47.952Z</time>
      </trkpt>
      <trkpt lat="48.864010" lon="2.212893">
        <ele>88.186155</ele>
        <time>2023-03-30T14:01:51.726Z</time>
      </trkpt>
      <trkpt lat="48.863800" lon="2.212630">
        <ele>88.472984</ele>
        <time>2023-03-30T14:01:56.580Z</time>
      </trkpt>
      <trkpt lat="48.863703" lon="2.212645">
        <ele>88.575765</ele>
        <time>2023-03-30T14:01:58.088Z</time>
      </trkpt>
      <trkpt lat="48.863464" lon="2.212361">
        <ele>88.895555</ele>
        <time>2023-03-30T14:02:02.642Z</time>
      </trkpt>
      <trkpt lat="48.863430" lon="2.212321">
        <ele>88.940877</ele>
        <time>2023-03-30T14:02:03.214Z</time>
      </trkpt>
      <trkpt lat="48.863326" lon="2.212201">
        <ele>89.078516</ele>
        <time>2023-03-30T14:02:05.095Z</time>
      </trkpt>
      <trkpt lat="48.863176" lon="2.212337">
        <ele>89.102947</ele>
        <time>2023-03-30T14:02:07.339Z</time>
      </trkpt>
      <trkpt lat="48.863074" lon="2.212344">
        <ele>88.995493</ele>
        <time>2023-03-30T14:02:08.667Z</time>
      </trkpt>
      <trkpt lat="48.863015" lon="2.212349">
        <ele>88.933305</ele>
        <time>2023-03-30T14:02:09.472Z</time>
      </trkpt>
      <trkpt lat="48.862024" lon="2.212430">
        <ele>87.888870</ele>
        <time>2023-03-30T14:02:21.525Z</time>
      </trkpt>
      <trkpt lat="48.861809" lon="2.212390">
        <ele>87.660915</ele>
        <time>2023-03-30T14:02:23.979Z</time>
      </trkpt>
      <trkpt lat="48.861663" lon="2.212359">
        <ele>87.505773</ele>
        <time>2023-03-30T14:02:25.645Z</time>
      </trkpt>
      <trkpt lat="48.861624" lon="2.212417">
        <ele>87.448353</ele>
        <time>2023-03-30T14:02:26.257Z</time>
      </trkpt>
      <trkpt lat="48.861587" lon="2.212470">
        <ele>87.394848</ele>
        <time>2023-03-30T14:02:26.821Z</time>
      </trkpt>
      <trkpt lat="48.861512" lon="2.212578">
        <ele>87.290623</ele>
        <time>2023-03-30T14:02:27.975Z</time>
      </trkpt>
      <trkpt lat="48.861331" lon="2.212795">
        <ele>87.342476</ele>
        <time>2023-03-30T14:02:30.595Z</time>
      </trkpt>
      <trkpt lat="48.860970" lon="2.212975">
        <ele>87.427936</ele>
        <time>2023-03-30T14:02:35.104Z</time>
      </trkpt>
      <trkpt lat="48.860862" lon="2.213023">
        <ele>87.453247</ele>
        <time>2023-03-30T14:02:36.595Z</time>
      </trkpt>
      <trkpt lat="48.860077" lon="2.213405">
        <ele>87.638652</ele>
        <time>2023-03-30T14:02:51.554Z</time>
      </trkpt>
      <trkpt lat="48.859860" lon="2.213492">
        <ele>87.689133</ele>
        <time>2023-03-30T14:02:56.366Z</time>
      </trkpt>
      <trkpt lat="48.859668" lon="2.213484">
        <ele>88.252068</ele>
        <time>2023-03-30T14:03:00.964Z</time>
      </trkpt>
      <trkpt lat="48.859539" lon="2.213538">
        <ele>88.694644</ele>
        <time>2023-03-30T14:03:03.984Z</time>
      </trkpt>
      <trkpt lat="48.859501" lon="2.213401">
        <ele>89.018188</ele>
        <time>2023-03-30T14:03:06.701Z</time>
      </trkpt>
      <trkpt lat="48.859397" lon="2.213061">
        <ele>89.834136</ele>
        <time>2023-03-30T14:03:12.832Z</time>
      </trkpt>
      <trkpt lat="48.859349" lon="2.212904">
        <ele>90.210879</ele>
        <time>2023-03-30T14:03:16.167Z</time>
      </trkpt>
      <trkpt lat="48.859268" lon="2.212627">
        <ele>90.870532</ele>
        <time>2023-03-30T14:03:21.595Z</time>
      </trkpt>
      <trkpt lat="48.859225" lon="2.212494">
        <ele>91.193020</ele>
        <time>2023-03-30T14:03:24.421Z</time>
      </trkpt>
      <trkpt lat="48.859170" lon="2.212354">
        <ele>91.547864</ele>
        <time>2023-03-30T14:03:27.837Z</time>
      </trkpt>
      <trkpt lat="48.859042" lon="2.211893">
        <ele>92.636754</ele>
        <time>2023-03-30T14:03:38.542Z</time>
      </trkpt>
      <trkpt lat="48.859006" lon="2.211732">
        <ele>93.006799</ele>
        <time>2023-03-30T14:03:42.265Z</time>
      </trkpt>
      <trkpt lat="48.858978" lon="2.211612">
        <ele>93.283876</ele>
        <time>2023-03-30T14:03:44.976Z</time>
      </trkpt>
      <trkpt lat="48.858943" lon="2.211562">
        <ele>93.442752</ele>
        <time>2023-03-30T14:03:46.576Z</time>
      </trkpt>
      <trkpt lat="48.858897" lon="2.211496">
        <ele>93.652452</ele>
        <time>2023-03-30T14:03:48.950Z</time>
      </trkpt>
      <trkpt lat="48.858814" lon="2.211381">
        <ele>94.044873</ele>
        <time>2023-03-30T14:03:52.877Z</time>
      </trkpt>
      <trkpt lat="48.858589" lon="2.211198">
        <ele>94.936525</ele>
        <time>2023-03-30T14:04:01.218Z</time>
      </trkpt>
      <trkpt lat="48.858098" lon="2.210915">
        <ele>96.771336</ele>
        <time>2023-03-30T14:04:16.347Z</time>
      </trkpt>
      <trkpt lat="48.858062" lon="2.210714">
        <ele>97.250222</ele>
        <time>2023-03-30T14:04:19.922Z</time>
      </trkpt>
      <trkpt lat="48.857949" lon="2.210519">
        <ele>97.847588</ele>
        <time>2023-03-30T14:04:24.667Z</time>
      </trkpt>
      <trkpt lat="48.857747" lon="2.210338">
        <ele>98.666917</ele>
        <time>2023-03-30T14:04:30.758Z</time>
      </trkpt>
      <trkpt lat="48.856958" lon="2.209773">
        <ele>100.826111</ele>
        <time>2023-03-30T14:04:54.164Z</time>
      </trkpt>
      <trkpt lat="48.856851" lon="2.209678">
        <ele>101.043747</ele>
        <time>2023-03-30T14:04:57.209Z</time>
      </trkpt>
      <trkpt lat="48.855519" lon="2.208007">
        <ele>103.894965</ele>
        <time>2023-03-30T14:05:30.490Z</time>
      </trkpt>
      <trkpt lat="48.854475" lon="2.206703">
        <ele>106.108411</ele>
        <time>2023-03-30T14:05:57.681Z</time>
      </trkpt>
      <trkpt lat="48.854298" lon="2.206574">
        <ele>106.857139</ele>
        <time>2023-03-30T14:06:02.419Z</time>
      </trkpt>
      <trkpt lat="48.852899" lon="2.205842">
        <ele>112.500611</ele>
        <time>2023-03-30T14:06:48.632Z</time>
      </trkpt>
      <trkpt lat="48.852830" lon="2.205820">
        <ele>112.899368</ele>
        <time>2023-03-30T14:06:51.394Z</time>
      </trkpt>
      <trkpt lat="48.852160" lon="2.205630">
        <ele>116.881829</ele>
        <time>2023-03-30T14:07:18.783Z</time>
      </trkpt>
      <trkpt lat="48.852083" lon="2.205602">
        <ele>117.344450</ele>
        <time>2023-03-30T14:07:21.881Z</time>
      </trkpt>
      <trkpt lat="48.851961" lon="2.205509">
        <ele>118.141961</ele>
        <time>2023-03-30T14:07:27.358Z</time>
      </trkpt>
      <trkpt lat="48.851830" lon="2.205478">
        <ele>118.916633</ele>
        <time>2023-03-30T14:07:32.765Z</time>
      </trkpt>
      <trkpt lat="48.851717" lon="2.205346">
        <ele>119.749420</ele>
        <time>2023-03-30T14:07:38.237Z</time>
      </trkpt>
      <trkpt lat="48.851256" lon="2.205101">
        <ele>122.603056</ele>
        <time>2023-03-30T14:07:57.072Z</time>
      </trkpt>
      <trkpt lat="48.851035" lon="2.204928">
        <ele>123.901665</ele>
        <time>2023-03-30T14:08:06.286Z</time>
      </trkpt>
      <trkpt lat="48.850943" lon="2.204811">
        <ele>124.496871</ele>
        <time>2023-03-30T14:08:10.793Z</time>
      </trkpt>
      <trkpt lat="48.850752" lon="2.204383">
        <ele>126.185252</ele>
        <time>2023-03-30T14:08:23.390Z</time>
      </trkpt>
      <trkpt lat="48.850643" lon="2.204245">
        <ele>126.889148</ele>
        <time>2023-03-30T14:08:28.690Z</time>
      </trkpt>
      <trkpt lat="48.850360" lon="2.203743">
        <ele>129.047326</ele>
        <time>2023-03-30T14:08:43.944Z</time>
      </trkpt>
      <trkpt lat="48.850099" lon="2.203088">
        <ele>131.547339</ele>
        <time>2023-03-30T14:09:00.273Z</time>
      </trkpt>
      <trkpt lat="48.850001" lon="2.202875">
        <ele>132.215207</ele>
        <time>2023-03-30T14:09:05.568Z</time>
      </trkpt>
      <trkpt lat="48.849754" lon="2.202300">
        <ele>133.529526</ele>
        <time>2023-03-30T14:09:18.497Z</time>
      </trkpt>
      <trkpt lat="48.849436" lon="2.201621">
        <ele>135.124717</ele>
        <time>2023-03-30T14:09:32.587Z</time>
      </trkpt>
      <trkpt lat="48.849297" lon="2.201406">
        <ele>135.701622</ele>
        <time>2023-03-30T14:09:37.493Z</time>
      </trkpt>
      <trkpt lat="48.849009" lon="2.201078">
        <ele>136.748479</ele>
        <time>2023-03-30T14:09:46.001Z</time>
      </trkpt>
      <trkpt lat="48.849647" lon="2.199317">
        <ele>140.291849</ele>
        <time>2023-03-30T14:10:16.739Z</time>
      </trkpt>
      <trkpt lat="48.849795" lon="2.198767">
        <ele>141.327531</ele>
        <time>2023-03-30T14:10:27.230Z</time>
      </trkpt>
      <trkpt lat="48.849957" lon="2.197996">
        <ele>143.260631</ele>
        <time>2023-03-30T14:10:43.318Z</time>
      </trkpt>
      <trkpt lat="48.849989" lon="2.197830">
        <ele>143.763249</ele>
        <time>2023-03-30T14:10:47.059Z</time>
      </trkpt>
      <trkpt lat="48.850423" lon="2.195652">
        <ele>150.258410</ele>
        <time>2023-03-30T14:11:37.911Z</time>
      </trkpt>
      <trkpt lat="48.850681" lon="2.194457">
        <ele>153.016985</ele>
        <time>2023-03-30T14:12:03.846Z</time>
      </trkpt>
      <trkpt lat="48.850695" lon="2.194393">
        <ele>153.164915</ele>
        <time>2023-03-30T14:12:05.181Z</time>
      </trkpt>
      <trkpt lat="48.850735" lon="2.194319">
        <ele>153.374967</ele>
        <time>2023-03-30T14:12:07.038Z</time>
      </trkpt>
      <trkpt lat="48.851172" lon="2.192667">
        <ele>156.480070</ele>
        <time>2023-03-30T14:12:34.120Z</time>
      </trkpt>
      <trkpt lat="48.851279" lon="2.192267">
        <ele>156.880942</ele>
        <time>2023-03-30T14:12:40.024Z</time>
      </trkpt>
      <trkpt lat="48.851472" lon="2.191503">
        <ele>157.640708</ele>
        <time>2023-03-30T14:12:50.787Z</time>
      </trkpt>
      <trkpt lat="48.851516" lon="2.191250">
        <ele>157.883656</ele>
        <time>2023-03-30T14:12:54.346Z</time>
      </trkpt>
      <trkpt lat="48.851572" lon="2.190929">
        <ele>158.191965</ele>
        <time>2023-03-30T14:12:58.547Z</time>
      </trkpt>
      <trkpt lat="48.851613" lon="2.190657">
        <ele>158.432603</ele>
        <time>2023-03-30T14:13:02.142Z</time>
      </trkpt>
      <trkpt lat="48.851900" lon="2.189461">
        <ele>158.553438</ele>
        <time>2023-03-30T14:13:15.951Z</time>
      </trkpt>
      <trkpt lat="48.851919" lon="2.189202">
        <ele>158.578174</ele>
        <time>2023-03-30T14:13:18.495Z</time>
      </trkpt>
      <trkpt lat="48.851875" lon="2.188626">
        <ele>158.633213</ele>
        <time>2023-03-30T14:13:23.875Z</time>
      </trkpt>
      <trkpt lat="48.851826" lon="2.188474">
        <ele>158.649279</ele>
        <time>2023-03-30T14:13:25.424Z</time>
      </trkpt>
      <trkpt lat="48.851749" lon="2.188393">
        <ele>158.662788</ele>
        <time>2023-03-30T14:13:26.758Z</time>
      </trkpt>
      <trkpt lat="48.850631" lon="2.187732">
        <ele>158.295057</ele>
        <time>2023-03-30T14:13:42.567Z</time>
      </trkpt>
      <trkpt lat="48.850479" lon="2.187596">
        <ele>158.226177</ele>
        <time>2023-03-30T14:13:44.887Z</time>
      </trkpt>
      <trkpt lat="48.850384" lon="2.187450">
        <ele>158.173417</ele>
        <time>2023-03-30T14:13:46.653Z</time>
      </trkpt>
      <trkpt lat="48.850352" lon="2.187203">
        <ele>158.108729</ele>
        <time>2023-03-30T14:13:48.844Z</time>
      </trkpt>
      <trkpt lat="48.850402" lon="2.187010">
        <ele>158.055431</ele>
        <time>2023-03-30T14:13:50.686Z</time>
      </trkpt>
      <trkpt lat="48.850836" lon="2.186297">
        <ele>158.188883</ele>
        <time>2023-03-30T14:14:00.203Z</time>
      </trkpt>
      <trkpt lat="48.850892" lon="2.186178">
        <ele>158.230523</ele>
        <time>2023-03-30T14:14:01.781Z</time>
      </trkpt>
      <trkpt lat="48.850893" lon="2.186171">
        <ele>158.232562</ele>
        <time>2023-03-30T14:14:01.864Z</time>
      </trkpt>
      <trkpt lat="48.850912" lon="2.186069">
        <ele>158.262734</ele>
        <time>2023-03-30T14:14:03.035Z</time>
      </trkpt>
      <trkpt lat="48.850902" lon="2.185823">
        <ele>158.332883</ele>
        <time>2023-03-30T14:14:05.843Z</time>
      </trkpt>
      <trkpt lat="48.850859" lon="2.185713">
        <ele>158.369299</ele>
        <time>2023-03-30T14:14:07.335Z</time>
      </trkpt>
      <trkpt lat="48.850504" lon="2.185295">
        <ele>158.563545</ele>
        <time>2023-03-30T14:14:15.743Z</time>
      </trkpt>
      <trkpt lat="48.848526" lon="2.182836">
        <ele>159.756391</ele>
        <time>2023-03-30T14:14:58.249Z</time>
      </trkpt>
      <trkpt lat="48.848339" lon="2.182640">
        <ele>159.922443</ele>
        <time>2023-03-30T14:15:01.507Z</time>
      </trkpt>
      <trkpt lat="48.848059" lon="2.182429">
        <ele>160.150898</ele>
        <time>2023-03-30T14:15:06.540Z</time>
      </trkpt>
      <trkpt lat="48.847543" lon="2.182027">
        <ele>160.574758</ele>
        <time>2023-03-30T14:15:17.086Z</time>
      </trkpt>
      <trkpt lat="48.847139" lon="2.181720">
        <ele>160.996601</ele>
        <time>2023-03-30T14:15:25.591Z</time>
      </trkpt>
      <trkpt lat="48.847118" lon="2.181634">
        <ele>161.129320</ele>
        <time>2023-03-30T14:15:26.797Z</time>
      </trkpt>
      <trkpt lat="48.847075" lon="2.181608">
        <ele>161.231069</ele>
        <time>2023-03-30T14:15:27.740Z</time>
      </trkpt>
      <trkpt lat="48.847212" lon="2.181004">
        <ele>162.155416</ele>
        <time>2023-03-30T14:15:37.196Z</time>
      </trkpt>
      <trkpt lat="48.847273" lon="2.180592">
        <ele>162.766414</ele>
        <time>2023-03-30T14:15:44.155Z</time>
      </trkpt>
      <trkpt lat="48.847498" lon="2.179068">
        <ele>164.956923</ele>
        <time>2023-03-30T14:16:11.060Z</time>
      </trkpt>
      <trkpt lat="48.847713" lon="2.177231">
        <ele>166.775937</ele>
        <time>2023-03-30T14:16:37.343Z</time>
      </trkpt>
      <trkpt lat="48.847813" lon="2.176357">
        <ele>167.469955</ele>
        <time>2023-03-30T14:16:47.891Z</time>
      </trkpt>
      <trkpt lat="48.848283" lon="2.173847">
        <ele>167.320823</ele>
        <time>2023-03-30T14:17:12.016Z</time>
      </trkpt>
      <trkpt lat="48.848495" lon="2.172514">
        <ele>166.744948</ele>
        <time>2023-03-30T14:17:23.812Z</time>
      </trkpt>
      <trkpt lat="48.848534" lon="2.171995">
        <ele>166.525592</ele>
        <time>2023-03-30T14:17:28.148Z</time>
      </trkpt>
      <trkpt lat="48.848563" lon="2.171594">
        <ele>166.356189</ele>
        <time>2023-03-30T14:17:31.493Z</time>
      </trkpt>
      <trkpt lat="48.848605" lon="2.171135">
        <ele>166.155907</ele>
        <time>2023-03-30T14:17:35.341Z</time>
      </trkpt>
      <trkpt lat="48.848628" lon="2.170861">
        <ele>166.017552</ele>
        <time>2023-03-30T14:17:37.641Z</time>
      </trkpt>
      <trkpt lat="48.848618" lon="2.170743">
        <ele>165.957960</ele>
        <time>2023-03-30T14:17:38.621Z</time>
      </trkpt>
      <trkpt lat="48.848500" lon="2.170548">
        <ele>165.825268</ele>
        <time>2023-03-30T14:17:40.757Z</time>
      </trkpt>
      <trkpt lat="48.848301" lon="2.170290">
        <ele>165.626161</ele>
        <time>2023-03-30T14:17:43.943Z</time>
      </trkpt>
      <trkpt lat="48.848032" lon="2.169940">
        <ele>165.356609</ele>
        <time>2023-03-30T14:17:48.326Z</time>
      </trkpt>
      <trkpt lat="48.847814" lon="2.169658">
        <ele>165.138697</ele>
        <time>2023-03-30T14:17:52.049Z</time>
      </trkpt>
      <trkpt lat="48.847709" lon="2.169520">
        <ele>165.033029</ele>
        <time>2023-03-30T14:17:53.831Z</time>
      </trkpt>
      <trkpt lat="48.847106" lon="2.169191">
        <ele>164.699981</ele>
        <time>2023-03-30T14:18:02.114Z</time>
      </trkpt>
      <trkpt lat="48.846873" lon="2.169077">
        <ele>164.617802</ele>
        <time>2023-03-30T14:18:05.404Z</time>
      </trkpt>
      <trkpt lat="48.846876" lon="2.169015">
        <ele>164.604067</ele>
        <time>2023-03-30T14:18:05.967Z</time>
      </trkpt>
      <trkpt lat="48.846846" lon="2.168963">
        <ele>164.588788</ele>
        <time>2023-03-30T14:18:06.581Z</time>
      </trkpt>
      <trkpt lat="48.846848" lon="2.168746">
        <ele>164.540841</ele>
        <time>2023-03-30T14:18:09.279Z</time>
      </trkpt>
      <trkpt lat="48.846853" lon="2.168318">
        <ele>164.446266</ele>
        <time>2023-03-30T14:18:14.666Z</time>
      </trkpt>
      <trkpt lat="48.846851" lon="2.167025">
        <ele>164.266616</ele>
        <time>2023-03-30T14:18:31.345Z</time>
      </trkpt>
      <trkpt lat="48.846851" lon="2.166931">
        <ele>164.284109</ele>
        <time>2023-03-30T14:18:32.639Z</time>
      </trkpt>
      <trkpt lat="48.846836" lon="2.158827">
        <ele>165.879201</ele>
        <time>2023-03-30T14:20:27.497Z</time>
      </trkpt>
      <trkpt lat="48.846898" lon="2.158709">
        <ele>165.912536</ele>
        <time>2023-03-30T14:20:29.031Z</time>
      </trkpt>
      <trkpt lat="48.846873" lon="2.158598">
        <ele>165.938435</ele>
        <time>2023-03-30T14:20:30.257Z</time>
      </trkpt>
      <trkpt lat="48.846841" lon="2.158564">
        <ele>165.951534</ele>
        <time>2023-03-30T14:20:30.877Z</time>
      </trkpt>
      <trkpt lat="48.846848" lon="2.156293">
        <ele>166.455289</ele>
        <time>2023-03-30T14:20:55.123Z</time>
      </trkpt>
      <trkpt lat="48.846849" lon="2.155991">
        <ele>166.527795</ele>
        <time>2023-03-30T14:20:58.359Z</time>
      </trkpt>
      <trkpt lat="48.846851" lon="2.155007">
        <ele>166.764039</ele>
        <time>2023-03-30T14:21:08.648Z</time>
      </trkpt>
      <trkpt lat="48.846852" lon="2.154726">
        <ele>166.831504</ele>
        <time>2023-03-30T14:21:11.564Z</time>
      </trkpt>
      <trkpt lat="48.846840" lon="2.153022">
        <ele>167.174450</ele>
        <time>2023-03-30T14:21:30.181Z</time>
      </trkpt>
      <trkpt lat="48.846840" lon="2.152709">
        <ele>167.218320</ele>
        <time>2023-03-30T14:21:33.516Z</time>
      </trkpt>
      <trkpt lat="48.846860" lon="2.150455">
        <ele>167.269131</ele>
        <time>2023-03-30T14:21:56.451Z</time>
      </trkpt>
      <trkpt lat="48.846899" lon="2.150442">
        <ele>167.245224</ele>
        <time>2023-03-30T14:21:57.015Z</time>
      </trkpt>
      <trkpt lat="48.846935" lon="2.150350">
        <ele>167.203048</ele>
        <time>2023-03-30T14:21:57.993Z</time>
      </trkpt>
      <trkpt lat="48.846909" lon="2.150266">
        <ele>167.166471</ele>
        <time>2023-03-30T14:21:58.843Z</time>
      </trkpt>
      <trkpt lat="48.846855" lon="2.150243">
        <ele>167.132891</ele>
        <time>2023-03-30T14:21:59.632Z</time>
      </trkpt>
      <trkpt lat="48.846849" lon="2.148938">
        <ele>166.618664</ele>
        <time>2023-03-30T14:22:10.542Z</time>
      </trkpt>
      <trkpt lat="48.846849" lon="2.148931">
        <ele>166.615906</ele>
        <time>2023-03-30T14:22:10.594Z</time>
      </trkpt>
      <trkpt lat="48.846852" lon="2.148865">
        <ele>166.589837</ele>
        <time>2023-03-30T14:22:11.105Z</time>
      </trkpt>
      <trkpt lat="48.846912" lon="2.148766">
        <ele>166.536805</ele>
        <time>2023-03-30T14:22:12.141Z</time>
      </trkpt>
      <trkpt lat="48.847922" lon="2.147167">
        <ele>165.160560</ele>
        <time>2023-03-30T14:22:29.546Z</time>
      </trkpt>
      <trkpt lat="48.847959" lon="2.147141">
        <ele>165.119202</ele>
        <time>2023-03-30T14:22:30.052Z</time>
      </trkpt>
      <trkpt lat="48.848023" lon="2.147166">
        <ele>165.052160</ele>
        <time>2023-03-30T14:22:30.845Z</time>
      </trkpt>
      <trkpt lat="48.848077" lon="2.147073">
        <ele>164.969355</ele>
        <time>2023-03-30T14:22:31.843Z</time>
      </trkpt>
      <trkpt lat="48.848059" lon="2.146989">
        <ele>164.910375</ele>
        <time>2023-03-30T14:22:32.542Z</time>
      </trkpt>
      <trkpt lat="48.848922" lon="2.145585">
        <ele>164.050736</ele>
        <time>2023-03-30T14:22:49.215Z</time>
      </trkpt>
      <trkpt lat="48.849382" lon="2.144890">
        <ele>163.690317</ele>
        <time>2023-03-30T14:22:58.492Z</time>
      </trkpt>
      <trkpt lat="48.849431" lon="2.144854">
        <ele>163.660076</ele>
        <time>2023-03-30T14:22:59.212Z</time>
      </trkpt>
      <trkpt lat="48.849191" lon="2.143758">
        <ele>162.362909</ele>
        <time>2023-03-30T14:23:08.484Z</time>
      </trkpt>
      <trkpt lat="48.849189" lon="2.143743">
        <ele>162.342287</ele>
        <time>2023-03-30T14:23:08.597Z</time>
      </trkpt>
      <trkpt lat="48.849103" lon="2.143272">
        <ele>161.683656</ele>
        <time>2023-03-30T14:23:12.163Z</time>
      </trkpt>
      <trkpt lat="48.849084" lon="2.143080">
        <ele>161.422034</ele>
        <time>2023-03-30T14:23:13.549Z</time>
      </trkpt>
      <trkpt lat="48.849095" lon="2.142856">
        <ele>161.119364</ele>
        <time>2023-03-30T14:23:15.131Z</time>
      </trkpt>
      <trkpt lat="48.849189" lon="2.142511">
        <ele>160.616218</ele>
        <time>2023-03-30T14:23:17.670Z</time>
      </trkpt>
      <trkpt lat="48.849266" lon="2.142335">
        <ele>160.331436</ele>
        <time>2023-03-30T14:23:19.069Z</time>
      </trkpt>
      <trkpt lat="48.849340" lon="2.142253">
        <ele>160.143902</ele>
        <time>2023-03-30T14:23:20.028Z</time>
      </trkpt>
      <trkpt lat="48.849683" lon="2.142269">
        <ele>158.897842</ele>
        <time>2023-03-30T14:23:23.479Z</time>
      </trkpt>
      <trkpt lat="48.850426" lon="2.142377">
        <ele>155.478914</ele>
        <time>2023-03-30T14:23:30.703Z</time>
      </trkpt>
      <trkpt lat="48.850607" lon="2.142190">
        <ele>154.476371</ele>
        <time>2023-03-30T14:23:32.734Z</time>
      </trkpt>
      <trkpt lat="48.850653" lon="2.142056">
        <ele>154.020816</ele>
        <time>2023-03-30T14:23:33.652Z</time>
      </trkpt>
      <trkpt lat="48.850661" lon="2.141947">
        <ele>153.690236</ele>
        <time>2023-03-30T14:23:34.312Z</time>
      </trkpt>
      <trkpt lat="48.850631" lon="2.141783">
        <ele>153.177170</ele>
        <time>2023-03-30T14:23:35.343Z</time>
      </trkpt>
      <trkpt lat="48.850467" lon="2.141462">
        <ele>151.952231</ele>
        <time>2023-03-30T14:23:37.824Z</time>
      </trkpt>
      <trkpt lat="48.850428" lon="2.141325">
        <ele>151.518762</ele>
        <time>2023-03-30T14:23:38.749Z</time>
      </trkpt>
      <trkpt lat="48.850421" lon="2.141138">
        <ele>151.020897</ele>
        <time>2023-03-30T14:23:39.909Z</time>
      </trkpt>
      <trkpt lat="48.850467" lon="2.140966">
        <ele>150.527389</ele>
        <time>2023-03-30T14:23:41.066Z</time>
      </trkpt>
      <trkpt lat="48.850590" lon="2.140907">
        <ele>150.006371</ele>
        <time>2023-03-30T14:23:42.295Z</time>
      </trkpt>
      <trkpt lat="48.850714" lon="2.140952">
        <ele>149.491393</ele>
        <time>2023-03-30T14:23:43.504Z</time>
      </trkpt>
      <trkpt lat="48.850951" lon="2.141153">
        <ele>148.395048</ele>
        <time>2023-03-30T14:23:46.106Z</time>
      </trkpt>
      <trkpt lat="48.851254" lon="2.141366">
        <ele>147.046486</ele>
        <time>2023-03-30T14:23:49.414Z</time>
      </trkpt>
      <trkpt lat="48.851315" lon="2.141351">
        <ele>146.796873</ele>
        <time>2023-03-30T14:23:50.005Z</time>
      </trkpt>
      <trkpt lat="48.851045" lon="2.140934">
        <ele>145.241852</ele>
        <time>2023-03-30T14:23:53.814Z</time>
      </trkpt>
      <trkpt lat="48.849490" lon="2.138534">
        <ele>138.134999</ele>
        <time>2023-03-30T14:24:17.475Z</time>
      </trkpt>
      <trkpt lat="48.848692" lon="2.137420">
        <ele>131.005718</ele>
        <time>2023-03-30T14:24:27.405Z</time>
      </trkpt>
      <trkpt lat="48.848901" lon="2.136946">
        <ele>128.535450</ele>
        <time>2023-03-30T14:24:30.673Z</time>
      </trkpt>
      <trkpt lat="48.849346" lon="2.135962">
        <ele>121.324691</ele>
        <time>2023-03-30T14:24:37.382Z</time>
      </trkpt>
      <trkpt lat="48.849580" lon="2.135336">
        <ele>116.718488</ele>
        <time>2023-03-30T14:24:41.404Z</time>
      </trkpt>
      <trkpt lat="48.849659" lon="2.135042">
        <ele>114.686716</ele>
        <time>2023-03-30T14:24:43.195Z</time>
      </trkpt>
      <trkpt lat="48.849740" lon="2.134452">
        <ele>110.830668</ele>
        <time>2023-03-30T14:24:46.661Z</time>
      </trkpt>
      <trkpt lat="48.849730" lon="2.134266">
        <ele>110.027230</ele>
        <time>2023-03-30T14:24:47.751Z</time>
      </trkpt>
      <trkpt lat="48.849726" lon="2.134177">
        <ele>109.889547</ele>
        <time>2023-03-30T14:24:48.273Z</time>
      </trkpt>
      <trkpt lat="48.849695" lon="2.134022">
        <ele>109.639515</ele>
        <time>2023-03-30T14:24:49.241Z</time>
      </trkpt>
      <trkpt lat="48.849560" lon="2.133729">
        <ele>109.087466</ele>
        <time>2023-03-30T14:24:51.397Z</time>
      </trkpt>
      <trkpt lat="48.848919" lon="2.132905">
        <ele>107.118269</ele>
        <time>2023-03-30T14:25:00.321Z</time>
      </trkpt>
      <trkpt lat="48.848874" lon="2.132786">
        <ele>106.906435</ele>
        <time>2023-03-30T14:25:01.993Z</time>
      </trkpt>
      <trkpt lat="48.848896" lon="2.132760">
        <ele>106.841067</ele>
        <time>2023-03-30T14:25:02.427Z</time>
      </trkpt>
      <trkpt lat="48.848890" lon="2.132681">
        <ele>106.718327</ele>
        <time>2023-03-30T14:25:03.388Z</time>
      </trkpt>
      <trkpt lat="48.849307" lon="2.132295">
        <ele>106.521265</ele>
        <time>2023-03-30T14:25:15.720Z</time>
      </trkpt>
      <trkpt lat="48.849492" lon="2.132057">
        <ele>107.451593</ele>
        <time>2023-03-30T14:25:23.209Z</time>
      </trkpt>
      <trkpt lat="48.849841" lon="2.131496">
        <ele>109.401430</ele>
        <time>2023-03-30T14:25:39.269Z</time>
      </trkpt>
      <trkpt lat="48.849955" lon="2.131383">
        <ele>109.923828</ele>
        <time>2023-03-30T14:25:43.863Z</time>
      </trkpt>
      <trkpt lat="48.849966" lon="2.131202">
        <ele>110.382912</ele>
        <time>2023-03-30T14:25:47.471Z</time>
      </trkpt>
      <trkpt lat="48.849978" lon="2.131067">
        <ele>110.726969</ele>
        <time>2023-03-30T14:25:50.522Z</time>
      </trkpt>
      <trkpt lat="48.849971" lon="2.130919">
        <ele>111.101726</ele>
        <time>2023-03-30T14:25:54.069Z</time>
      </trkpt>
      <trkpt lat="48.850111" lon="2.130914">
        <ele>111.639215</ele>
        <time>2023-03-30T14:25:58.586Z</time>
      </trkpt>
      <trkpt lat="48.850316" lon="2.131032">
        <ele>112.480585</ele>
        <time>2023-03-30T14:26:06.407Z</time>
      </trkpt>
      <trkpt lat="48.850416" lon="2.131048">
        <ele>112.860048</ele>
        <time>2023-03-30T14:26:09.658Z</time>
      </trkpt>
      <trkpt lat="48.851608" lon="2.130908">
        <ele>116.468940</ele>
        <time>2023-03-30T14:26:44.982Z</time>
      </trkpt>
      <trkpt lat="48.852342" lon="2.130955">
        <ele>118.327559</ele>
        <time>2023-03-30T14:27:00.988Z</time>
      </trkpt>
      <trkpt lat="48.854100" lon="2.131161">
        <ele>119.001937</ele>
        <time>2023-03-30T14:27:29.254Z</time>
      </trkpt>
      <trkpt lat="48.854134" lon="2.131245">
        <ele>118.962622</ele>
        <time>2023-03-30T14:27:30.055Z</time>
      </trkpt>
      <trkpt lat="48.854166" lon="2.131259">
        <ele>118.942446</ele>
        <time>2023-03-30T14:27:30.436Z</time>
      </trkpt>
      <trkpt lat="48.854224" lon="2.131216">
        <ele>118.903348</ele>
        <time>2023-03-30T14:27:31.206Z</time>
      </trkpt>
      <trkpt lat="48.854236" lon="2.131171">
        <ele>118.883991</ele>
        <time>2023-03-30T14:27:31.624Z</time>
      </trkpt>
      <trkpt lat="48.854216" lon="2.131081">
        <ele>118.846121</ele>
        <time>2023-03-30T14:27:32.474Z</time>
      </trkpt>
      <trkpt lat="48.854892" lon="2.130209">
        <ele>118.308916</ele>
        <time>2023-03-30T14:27:43.224Z</time>
      </trkpt>
      <trkpt lat="48.855254" lon="2.129731">
        <ele>118.018375</ele>
        <time>2023-03-30T14:27:49.135Z</time>
      </trkpt>
      <trkpt lat="48.855479" lon="2.129414">
        <ele>118.430259</ele>
        <time>2023-03-30T14:27:53.503Z</time>
      </trkpt>
      <trkpt lat="48.856065" lon="2.128606">
        <ele>119.958609</ele>
        <time>2023-03-30T14:28:07.176Z</time>
      </trkpt>
      <trkpt lat="48.856316" lon="2.127960">
        <ele>120.912099</ele>
        <time>2023-03-30T14:28:19.646Z</time>
      </trkpt>
      <trkpt lat="48.856593" lon="2.127171">
        <ele>123.789827</ele>
        <time>2023-03-30T14:28:40.717Z</time>
      </trkpt>
      <trkpt lat="48.857117" lon="2.125850">
        <ele>131.447401</ele>
        <time>2023-03-30T14:29:28.627Z</time>
      </trkpt>
      <trkpt lat="48.857453" lon="2.124756">
        <ele>136.842042</ele>
        <time>2023-03-30T14:30:09.908Z</time>
      </trkpt>
      <trkpt lat="48.857501" lon="2.124726">
        <ele>137.136730</ele>
        <time>2023-03-30T14:30:12.438Z</time>
      </trkpt>
      <trkpt lat="48.857512" lon="2.124556">
        <ele>137.774873</ele>
        <time>2023-03-30T14:30:17.771Z</time>
      </trkpt>
      <trkpt lat="48.857770" lon="2.123669">
        <ele>141.397861</ele>
        <time>2023-03-30T14:30:44.934Z</time>
      </trkpt>
      <trkpt lat="48.857843" lon="2.123406">
        <ele>142.464216</ele>
        <time>2023-03-30T14:30:51.295Z</time>
      </trkpt>
      <trkpt lat="48.858035" lon="2.122712">
        <ele>145.209451</ele>
        <time>2023-03-30T14:31:04.426Z</time>
      </trkpt>
      <trkpt lat="48.858307" lon="2.121633">
        <ele>142.795365</ele>
        <time>2023-03-30T14:31:14.026Z</time>
      </trkpt>
      <trkpt lat="48.859031" lon="2.119798">
        <ele>137.251377</ele>
        <time>2023-03-30T14:31:27.026Z</time>
      </trkpt>
      <trkpt lat="48.858893" lon="2.119606">
        <ele>136.124312</ele>
        <time>2023-03-30T14:31:28.691Z</time>
      </trkpt>
      <trkpt lat="48.858845" lon="2.119472">
        <ele>135.519581</ele>
        <time>2023-03-30T14:31:29.583Z</time>
      </trkpt>
      <trkpt lat="48.858855" lon="2.119364">
        <ele>135.087302</ele>
        <time>2023-03-30T14:31:30.203Z</time>
      </trkpt>
      <trkpt lat="48.858908" lon="2.119313">
        <ele>134.709404</ele>
        <time>2023-03-30T14:31:30.754Z</time>
      </trkpt>
      <trkpt lat="48.859163" lon="2.119249">
        <ele>133.152390</ele>
        <time>2023-03-30T14:31:33.091Z</time>
      </trkpt>
      <trkpt lat="48.859271" lon="2.119082">
        <ele>132.224254</ele>
        <time>2023-03-30T14:31:34.469Z</time>
      </trkpt>
      <trkpt lat="48.859782" lon="2.117591">
        <ele>128.134915</ele>
        <time>2023-03-30T14:31:44.963Z</time>
      </trkpt>
      <trkpt lat="48.859844" lon="2.117431">
        <ele>128.005065</ele>
        <time>2023-03-30T14:31:46.215Z</time>
      </trkpt>
      <trkpt lat="48.860734" lon="2.115619">
        <ele>127.626883</ele>
        <time>2023-03-30T14:32:13.295Z</time>
      </trkpt>
      <trkpt lat="48.860807" lon="2.115410">
        <ele>128.028956</ele>
        <time>2023-03-30T14:32:16.754Z</time>
      </trkpt>
      <trkpt lat="48.860893" lon="2.115159">
        <ele>128.509821</ele>
        <time>2023-03-30T14:32:22.389Z</time>
      </trkpt>
      <trkpt lat="48.861007" lon="2.114826">
        <ele>129.147665</ele>
        <time>2023-03-30T14:32:28.725Z</time>
      </trkpt>
      <trkpt lat="48.861076" lon="2.114502">
        <ele>129.726319</ele>
        <time>2023-03-30T14:32:35.707Z</time>
      </trkpt>
      <trkpt lat="48.860836" lon="2.114352">
        <ele>130.396535</ele>
        <time>2023-03-30T14:32:43.794Z</time>
      </trkpt>
      <trkpt lat="48.860593" lon="2.113702">
        <ele>131.713291</ele>
        <time>2023-03-30T14:33:00.446Z</time>
      </trkpt>
      <trkpt lat="48.860593" lon="2.113702">
        <ele>131.713291</ele>
        <time>2023-03-30T14:33:00.494Z</time>
      </trkpt>
      <trkpt lat="48.860593" lon="2.113702">
        <ele>131.713291</ele>
        <time>2023-03-30T14:33:00.494Z</time>
      </trkpt>
      <trkpt lat="48.860590" lon="2.113700">
        <ele>131.723343</ele>
        <time>2023-03-30T14:33:00.555Z</time>
      </trkpt>
      <trkpt lat="48.860720" lon="2.113680">
        <ele>132.124293</ele>
        <time>2023-03-30T14:33:02.978Z</time>
      </trkpt>
      <trkpt lat="48.860880" lon="2.113700">
        <ele>132.616917</ele>
        <time>2023-03-30T14:33:05.955Z</time>
      </trkpt>
      <trkpt lat="48.861190" lon="2.114080">
        <ele>133.838949</ele>
        <time>2023-03-30T14:33:13.337Z</time>
      </trkpt>
      <trkpt lat="48.861310" lon="2.113850">
        <ele>134.431551</ele>
        <time>2023-03-30T14:33:16.917Z</time>
      </trkpt>
      <trkpt lat="48.861410" lon="2.113440">
        <ele>135.314287</ele>
        <time>2023-03-30T14:33:22.249Z</time>
      </trkpt>
      <trkpt lat="48.861460" lon="2.113370">
        <ele>135.522875</ele>
        <time>2023-03-30T14:33:23.509Z</time>
      </trkpt>
      <trkpt lat="48.861430" lon="2.113140">
        <ele>135.996224</ele>
        <time>2023-03-30T14:33:26.370Z</time>
      </trkpt>
      <trkpt lat="48.861440" lon="2.113144">
        <ele>136.027954</ele>
        <time>2023-03-30T14:33:26.559Z</time>
      </trkpt>
      <trkpt lat="48.861501" lon="2.112819">
        <ele>136.710224</ele>
        <time>2023-03-30T14:33:32.585Z</time>
      </trkpt>
      <trkpt lat="48.861567" lon="2.112644">
        <ele>137.277777</ele>
        <time>2023-03-30T14:33:36.943Z</time>
      </trkpt>
      <trkpt lat="48.861893" lon="2.111778">
        <ele>141.104336</ele>
        <time>2023-03-30T14:34:00.279Z</time>
      </trkpt>
      <trkpt lat="48.862296" lon="2.110727">
        <ele>145.769774</ele>
        <time>2023-03-30T14:34:32.940Z</time>
      </trkpt>
      <trkpt lat="48.862326" lon="2.110648">
        <ele>146.119603</ele>
        <time>2023-03-30T14:34:35.939Z</time>
      </trkpt>
      <trkpt lat="48.862369" lon="2.110569">
        <ele>146.512836</ele>
        <time>2023-03-30T14:34:38.893Z</time>
      </trkpt>
      <trkpt lat="48.862595" lon="2.110266">
        <ele>147.966511</ele>
        <time>2023-03-30T14:34:52.023Z</time>
      </trkpt>
      <trkpt lat="48.862833" lon="2.110000">
        <ele>149.070929</ele>
        <time>2023-03-30T14:35:04.652Z</time>
      </trkpt>
      <trkpt lat="48.862967" lon="2.109687">
        <ele>149.989405</ele>
        <time>2023-03-30T14:35:14.718Z</time>
      </trkpt>
      <trkpt lat="48.863061" lon="2.109384">
        <ele>150.813336</ele>
        <time>2023-03-30T14:35:22.802Z</time>
      </trkpt>
      <trkpt lat="48.863169" lon="2.109050">
        <ele>151.728671</ele>
        <time>2023-03-30T14:35:30.428Z</time>
      </trkpt>
      <trkpt lat="48.863306" lon="2.108123">
        <ele>154.065428</ele>
        <time>2023-03-30T14:35:43.006Z</time>
      </trkpt>
      <trkpt lat="48.863609" lon="2.107187">
        <ele>151.171135</ele>
        <time>2023-03-30T14:35:50.218Z</time>
      </trkpt>
      <trkpt lat="48.863761" lon="2.106786">
        <ele>149.805472</ele>
        <time>2023-03-30T14:35:53.071Z</time>
      </trkpt>
      <trkpt lat="48.864276" lon="2.105629">
        <ele>145.412279</ele>
        <time>2023-03-30T14:36:01.385Z</time>
      </trkpt>
      <trkpt lat="48.864533" lon="2.105356">
        <ele>143.047997</ele>
        <time>2023-03-30T14:36:04.168Z</time>
      </trkpt>
      <trkpt lat="48.864291" lon="2.104685">
        <ele>139.251969</ele>
        <time>2023-03-30T14:36:08.620Z</time>
      </trkpt>
      <trkpt lat="48.864045" lon="2.103872">
        <ele>134.812753</ele>
        <time>2023-03-30T14:36:13.844Z</time>
      </trkpt>
      <trkpt lat="48.864025" lon="2.103808">
        <ele>134.461266</ele>
        <time>2023-03-30T14:36:14.264Z</time>
      </trkpt>
      <trkpt lat="48.866087" lon="2.102020">
        <ele>117.168499</ele>
        <time>2023-03-30T14:36:35.361Z</time>
      </trkpt>
      <trkpt lat="48.866322" lon="2.101988">
        <ele>115.919481</ele>
        <time>2023-03-30T14:36:37.463Z</time>
      </trkpt>
      <trkpt lat="48.866635" lon="2.102122">
        <ele>114.198076</ele>
        <time>2023-03-30T14:36:40.396Z</time>
      </trkpt>
      <trkpt lat="48.866835" lon="2.102090">
        <ele>113.133473</ele>
        <time>2023-03-30T14:36:42.233Z</time>
      </trkpt>
      <trkpt lat="48.867009" lon="2.101968">
        <ele>112.119104</ele>
        <time>2023-03-30T14:36:44.060Z</time>
      </trkpt>
      <trkpt lat="48.867103" lon="2.101898">
        <ele>111.564992</ele>
        <time>2023-03-30T14:36:45.045Z</time>
      </trkpt>
      <trkpt lat="48.867191" lon="2.101867">
        <ele>111.086796</ele>
        <time>2023-03-30T14:36:45.970Z</time>
      </trkpt>
      <trkpt lat="48.867247" lon="2.101886">
        <ele>110.783051</ele>
        <time>2023-03-30T14:36:46.595Z</time>
      </trkpt>
      <trkpt lat="48.867301" lon="2.101860">
        <ele>110.483192</ele>
        <time>2023-03-30T14:36:47.173Z</time>
      </trkpt>
      <trkpt lat="48.867341" lon="2.101788">
        <ele>110.155014</ele>
        <time>2023-03-30T14:36:47.791Z</time>
      </trkpt>
      <trkpt lat="48.867348" lon="2.101701">
        <ele>109.849798</ele>
        <time>2023-03-30T14:36:48.369Z</time>
      </trkpt>
      <trkpt lat="48.867322" lon="2.101612">
        <ele>109.510688</ele>
        <time>2023-03-30T14:36:49.076Z</time>
      </trkpt>
      <trkpt lat="48.867240" lon="2.101558">
        <ele>109.467275</ele>
        <time>2023-03-30T14:36:50.250Z</time>
      </trkpt>
      <trkpt lat="48.867198" lon="2.101453">
        <ele>109.672990</ele>
        <time>2023-03-30T14:36:51.260Z</time>
      </trkpt>
      <trkpt lat="48.867144" lon="2.101317">
        <ele>109.938912</ele>
        <time>2023-03-30T14:36:52.442Z</time>
      </trkpt>
      <trkpt lat="48.867084" lon="2.101136">
        <ele>110.278204</ele>
        <time>2023-03-30T14:36:54.446Z</time>
      </trkpt>
      <trkpt lat="48.866897" lon="2.100861">
        <ele>110.940308</ele>
        <time>2023-03-30T14:36:58.853Z</time>
      </trkpt>
      <trkpt lat="48.866793" lon="2.100760">
        <ele>111.254364</ele>
        <time>2023-03-30T14:37:01.601Z</time>
      </trkpt>
      <trkpt lat="48.866537" lon="2.100543">
        <ele>112.000268</ele>
        <time>2023-03-30T14:37:08.555Z</time>
      </trkpt>
      <trkpt lat="48.866458" lon="2.100411">
        <ele>112.299007</ele>
        <time>2023-03-30T14:37:12.381Z</time>
      </trkpt>
      <trkpt lat="48.866061" lon="2.099144">
        <ele>115.869888</ele>
        <time>2023-03-30T14:37:48.829Z</time>
      </trkpt>
      <trkpt lat="48.865592" lon="2.097611">
        <ele>123.351321</ele>
        <time>2023-03-30T14:38:35.447Z</time>
      </trkpt>
      <trkpt lat="48.865509" lon="2.097340">
        <ele>124.674136</ele>
        <time>2023-03-30T14:38:43.426Z</time>
      </trkpt>
      <trkpt lat="48.865448" lon="2.097141">
        <ele>125.645650</ele>
        <time>2023-03-30T14:38:49.958Z</time>
      </trkpt>
      <trkpt lat="48.865249" lon="2.096490">
        <ele>128.621018</ele>
        <time>2023-03-30T14:39:11.408Z</time>
      </trkpt>
      <trkpt lat="48.865192" lon="2.096304">
        <ele>129.464184</ele>
        <time>2023-03-30T14:39:17.515Z</time>
      </trkpt>
      <trkpt lat="48.865150" lon="2.096169">
        <ele>130.077830</ele>
        <time>2023-03-30T14:39:21.921Z</time>
      </trkpt>
      <trkpt lat="48.865107" lon="2.096027">
        <ele>130.720185</ele>
        <time>2023-03-30T14:39:26.065Z</time>
      </trkpt>
      <trkpt lat="48.864932" lon="2.095455">
        <ele>133.312393</ele>
        <time>2023-03-30T14:39:42.717Z</time>
      </trkpt>
      <trkpt lat="48.864861" lon="2.095120">
        <ele>134.758648</ele>
        <time>2023-03-30T14:39:51.746Z</time>
      </trkpt>
      <trkpt lat="48.864838" lon="2.094893">
        <ele>135.702431</ele>
        <time>2023-03-30T14:39:56.672Z</time>
      </trkpt>
      <trkpt lat="48.864837" lon="2.094844">
        <ele>135.903878</ele>
        <time>2023-03-30T14:39:57.879Z</time>
      </trkpt>
      <trkpt lat="48.864837" lon="2.094799">
        <ele>136.088792</ele>
        <time>2023-03-30T14:39:58.929Z</time>
      </trkpt>
      <trkpt lat="48.864838" lon="2.094753">
        <ele>136.277917</ele>
        <time>2023-03-30T14:39:59.937Z</time>
      </trkpt>
      <trkpt lat="48.864841" lon="2.094702">
        <ele>136.488322</ele>
        <time>2023-03-30T14:40:01.088Z</time>
      </trkpt>
      <trkpt lat="48.864844" lon="2.094651">
        <ele>136.698727</ele>
        <time>2023-03-30T14:40:02.213Z</time>
      </trkpt>
      <trkpt lat="48.864850" lon="2.094600">
        <ele>136.911620</ele>
        <time>2023-03-30T14:40:03.347Z</time>
      </trkpt>
      <trkpt lat="48.864857" lon="2.094549">
        <ele>137.125701</ele>
        <time>2023-03-30T14:40:04.442Z</time>
      </trkpt>
      <trkpt lat="48.864865" lon="2.094498">
        <ele>137.318832</ele>
        <time>2023-03-30T14:40:05.497Z</time>
      </trkpt>
      <trkpt lat="48.864874" lon="2.094449">
        <ele>137.482005</ele>
        <time>2023-03-30T14:40:06.479Z</time>
      </trkpt>
      <trkpt lat="48.864885" lon="2.094400">
        <ele>137.648067</ele>
        <time>2023-03-30T14:40:07.462Z</time>
      </trkpt>
      <trkpt lat="48.864897" lon="2.094353">
        <ele>137.809770</ele>
        <time>2023-03-30T14:40:08.597Z</time>
      </trkpt>
      <trkpt lat="48.864910" lon="2.094307">
        <ele>137.970348</ele>
        <time>2023-03-30T14:40:09.777Z</time>
      </trkpt>
      <trkpt lat="48.865074" lon="2.094082">
        <ele>139.047458</ele>
        <time>2023-03-30T14:40:17.167Z</time>
      </trkpt>
      <trkpt lat="48.865148" lon="2.094003">
        <ele>139.488341</ele>
        <time>2023-03-30T14:40:20.056Z</time>
      </trkpt>
      <trkpt lat="48.865310" lon="2.093681">
        <ele>140.788529</ele>
        <time>2023-03-30T14:40:29.578Z</time>
      </trkpt>
      <trkpt lat="48.865416" lon="2.093599">
        <ele>141.368420</ele>
        <time>2023-03-30T14:40:33.818Z</time>
      </trkpt>
      <trkpt lat="48.865507" lon="2.093530">
        <ele>141.864235</ele>
        <time>2023-03-30T14:40:37.695Z</time>
      </trkpt>
      <trkpt lat="48.865695" lon="2.093502">
        <ele>142.785247</ele>
        <time>2023-03-30T14:40:44.711Z</time>
      </trkpt>
      <trkpt lat="48.865807" lon="2.093538">
        <ele>143.343394</ele>
        <time>2023-03-30T14:40:48.752Z</time>
      </trkpt>
      <trkpt lat="48.866032" lon="2.093720">
        <ele>144.586053</ele>
        <time>2023-03-30T14:40:57.093Z</time>
      </trkpt>
      <trkpt lat="48.866151" lon="2.093777">
        <ele>145.194377</ele>
        <time>2023-03-30T14:41:00.906Z</time>
      </trkpt>
      <trkpt lat="48.866292" lon="2.093785">
        <ele>145.882323</ele>
        <time>2023-03-30T14:41:05.108Z</time>
      </trkpt>
      <trkpt lat="48.866459" lon="2.093714">
        <ele>146.876835</ele>
        <time>2023-03-30T14:41:10.663Z</time>
      </trkpt>
      <trkpt lat="48.866608" lon="2.093550">
        <ele>147.959709</ele>
        <time>2023-03-30T14:41:16.748Z</time>
      </trkpt>
      <trkpt lat="48.866723" lon="2.093306">
        <ele>149.122034</ele>
        <time>2023-03-30T14:41:23.739Z</time>
      </trkpt>
      <trkpt lat="48.866799" lon="2.093066">
        <ele>150.153461</ele>
        <time>2023-03-30T14:41:29.888Z</time>
      </trkpt>
      <trkpt lat="48.866810" lon="2.092941">
        <ele>150.641809</ele>
        <time>2023-03-30T14:41:33.135Z</time>
      </trkpt>
      <trkpt lat="48.866763" lon="2.092674">
        <ele>151.712088</ele>
        <time>2023-03-30T14:41:40.045Z</time>
      </trkpt>
      <trkpt lat="48.866704" lon="2.092543">
        <ele>152.326862</ele>
        <time>2023-03-30T14:41:44.169Z</time>
      </trkpt>
      <trkpt lat="48.866628" lon="2.092372">
        <ele>153.125994</ele>
        <time>2023-03-30T14:41:49.873Z</time>
      </trkpt>
      <trkpt lat="48.865930" lon="2.090972">
        <ele>159.609078</ele>
        <time>2023-03-30T14:42:40.132Z</time>
      </trkpt>
      <trkpt lat="48.865606" lon="2.090259">
        <ele>162.643134</ele>
        <time>2023-03-30T14:43:00.938Z</time>
      </trkpt>
      <trkpt lat="48.865477" lon="2.089815">
        <ele>164.342541</ele>
        <time>2023-03-30T14:43:11.432Z</time>
      </trkpt>
      <trkpt lat="48.865074" lon="2.087900">
        <ele>168.887258</ele>
        <time>2023-03-30T14:43:47.908Z</time>
      </trkpt>
      <trkpt lat="48.865050" lon="2.087392">
        <ele>169.816905</ele>
        <time>2023-03-30T14:43:55.797Z</time>
      </trkpt>
      <trkpt lat="48.864996" lon="2.087194">
        <ele>170.208146</ele>
        <time>2023-03-30T14:43:59.074Z</time>
      </trkpt>
      <trkpt lat="48.864833" lon="2.086977">
        <ele>170.809352</ele>
        <time>2023-03-30T14:44:04.283Z</time>
      </trkpt>
      <trkpt lat="48.862164" lon="2.084521">
        <ele>177.094809</ele>
        <time>2023-03-30T14:45:17.335Z</time>
      </trkpt>
      <trkpt lat="48.862135" lon="2.084495">
        <ele>177.152874</ele>
        <time>2023-03-30T14:45:17.996Z</time>
      </trkpt>
      <trkpt lat="48.861763" lon="2.084133">
        <ele>177.914632</ele>
        <time>2023-03-30T14:45:26.423Z</time>
      </trkpt>
      <trkpt lat="48.861599" lon="2.083994">
        <ele>178.170530</ele>
        <time>2023-03-30T14:45:29.892Z</time>
      </trkpt>
      <trkpt lat="48.861291" lon="2.083838">
        <ele>178.357543</ele>
        <time>2023-03-30T14:45:35.614Z</time>
      </trkpt>
      <trkpt lat="48.861214" lon="2.083811">
        <ele>178.403064</ele>
        <time>2023-03-30T14:45:37.025Z</time>
      </trkpt>
      <trkpt lat="48.860035" lon="2.083788">
        <ele>179.082280</ele>
        <time>2023-03-30T14:45:56.483Z</time>
      </trkpt>
      <trkpt lat="48.856880" lon="2.083791">
        <ele>180.177519</ele>
        <time>2023-03-30T14:46:48.705Z</time>
      </trkpt>
      <trkpt lat="48.854161" lon="2.083802">
        <ele>179.774049</ele>
        <time>2023-03-30T14:47:26.084Z</time>
      </trkpt>
      <trkpt lat="48.854177" lon="2.083342">
        <ele>179.803458</ele>
        <time>2023-03-30T14:47:30.759Z</time>
      </trkpt>
      <trkpt lat="48.854197" lon="2.082789">
        <ele>179.838817</ele>
        <time>2023-03-30T14:47:36.383Z</time>
      </trkpt>
      <trkpt lat="48.854254" lon="2.080587">
        <ele>179.963547</ele>
        <time>2023-03-30T14:47:59.500Z</time>
      </trkpt>
      <trkpt lat="48.854350" lon="2.077264">
        <ele>180.307485</ele>
        <time>2023-03-30T14:48:31.354Z</time>
      </trkpt>
      <trkpt lat="48.854403" lon="2.076014">
        <ele>180.574411</ele>
        <time>2023-03-30T14:48:45.315Z</time>
      </trkpt>
      <trkpt lat="48.854417" lon="2.074796">
        <ele>181.620678</ele>
        <time>2023-03-30T14:49:00.688Z</time>
      </trkpt>
      <trkpt lat="48.854424" lon="2.074234">
        <ele>182.103452</ele>
        <time>2023-03-30T14:49:08.401Z</time>
      </trkpt>
      <trkpt lat="48.854461" lon="2.073343">
        <ele>182.876561</ele>
        <time>2023-03-30T14:49:21.354Z</time>
      </trkpt>
      <trkpt lat="48.854464" lon="2.073260">
        <ele>182.969855</ele>
        <time>2023-03-30T14:49:22.584Z</time>
      </trkpt>
      <trkpt lat="48.854608" lon="2.067683">
        <ele>188.622394</ele>
        <time>2023-03-30T14:50:41.974Z</time>
      </trkpt>
      <trkpt lat="48.854663" lon="2.066313">
        <ele>188.434829</ele>
        <time>2023-03-30T14:50:54.624Z</time>
      </trkpt>
      <trkpt lat="48.854698" lon="2.064589">
        <ele>187.672201</ele>
        <time>2023-03-30T14:51:08.584Z</time>
      </trkpt>
      <trkpt lat="48.854702" lon="2.064402">
        <ele>187.478100</ele>
        <time>2023-03-30T14:51:10.117Z</time>
      </trkpt>
      <trkpt lat="48.854707" lon="2.064316">
        <ele>187.388534</ele>
        <time>2023-03-30T14:51:10.826Z</time>
      </trkpt>
      <trkpt lat="48.854888" lon="2.064234">
        <ele>187.090742</ele>
        <time>2023-03-30T14:51:13.142Z</time>
      </trkpt>
      <trkpt lat="48.854908" lon="2.064222">
        <ele>187.056840</ele>
        <time>2023-03-30T14:51:13.418Z</time>
      </trkpt>
      <trkpt lat="48.856138" lon="2.063325">
        <ele>184.273458</ele>
        <time>2023-03-30T14:51:28.398Z</time>
      </trkpt>
      <trkpt lat="48.856307" lon="2.063277">
        <ele>183.683383</ele>
        <time>2023-03-30T14:51:30.183Z</time>
      </trkpt>
      <trkpt lat="48.856397" lon="2.063264">
        <ele>183.373097</ele>
        <time>2023-03-30T14:51:31.120Z</time>
      </trkpt>
      <trkpt lat="48.856543" lon="2.063299">
        <ele>182.865808</ele>
        <time>2023-03-30T14:51:32.662Z</time>
      </trkpt>
      <trkpt lat="48.857362" lon="2.063809">
        <ele>179.828099</ele>
        <time>2023-03-30T14:51:41.401Z</time>
      </trkpt>
      <trkpt lat="48.857527" lon="2.064065">
        <ele>178.868453</ele>
        <time>2023-03-30T14:51:43.610Z</time>
      </trkpt>
      <trkpt lat="48.857695" lon="2.064535">
        <ele>176.937075</ele>
        <time>2023-03-30T14:51:46.883Z</time>
      </trkpt>
      <trkpt lat="48.857772" lon="2.064758">
        <ele>176.027708</ele>
        <time>2023-03-30T14:51:48.426Z</time>
      </trkpt>
      <trkpt lat="48.857774" lon="2.064763">
        <ele>176.006579</ele>
        <time>2023-03-30T14:51:48.461Z</time>
      </trkpt>
      <trkpt lat="48.857888" lon="2.064933">
        <ele>175.130089</ele>
        <time>2023-03-30T14:51:49.946Z</time>
      </trkpt>
      <trkpt lat="48.858401" lon="2.065270">
        <ele>172.062959</ele>
        <time>2023-03-30T14:51:55.137Z</time>
      </trkpt>
      <trkpt lat="48.858548" lon="2.065440">
        <ele>171.049230</ele>
        <time>2023-03-30T14:51:56.841Z</time>
      </trkpt>
      <trkpt lat="48.858700" lon="2.065720">
        <ele>169.738492</ele>
        <time>2023-03-30T14:51:59.052Z</time>
      </trkpt>
      <trkpt lat="48.858798" lon="2.066037">
        <ele>168.450961</ele>
        <time>2023-03-30T14:52:01.146Z</time>
      </trkpt>
      <trkpt lat="48.859020" lon="2.067056">
        <ele>164.479349</ele>
        <time>2023-03-30T14:52:07.562Z</time>
      </trkpt>
      <trkpt lat="48.859127" lon="2.067418">
        <ele>163.010997</ele>
        <time>2023-03-30T14:52:09.992Z</time>
      </trkpt>
      <trkpt lat="48.859162" lon="2.067741">
        <ele>161.799809</ele>
        <time>2023-03-30T14:52:12.051Z</time>
      </trkpt>
      <trkpt lat="48.859096" lon="2.068168">
        <ele>160.176910</ele>
        <time>2023-03-30T14:52:14.797Z</time>
      </trkpt>
      <trkpt lat="48.858976" lon="2.068464">
        <ele>158.909799</ele>
        <time>2023-03-30T14:52:16.976Z</time>
      </trkpt>
      <trkpt lat="48.858821" lon="2.068690">
        <ele>157.761224</ele>
        <time>2023-03-30T14:52:19.000Z</time>
      </trkpt>
      <trkpt lat="48.858674" lon="2.069111">
        <ele>156.084382</ele>
        <time>2023-03-30T14:52:21.902Z</time>
      </trkpt>
      <trkpt lat="48.858661" lon="2.069236">
        <ele>155.639143</ele>
        <time>2023-03-30T14:52:22.674Z</time>
      </trkpt>
      <trkpt lat="48.858677" lon="2.069537">
        <ele>154.576705</ele>
        <time>2023-03-30T14:52:24.501Z</time>
      </trkpt>
      <trkpt lat="48.858828" lon="2.069854">
        <ele>153.199804</ele>
        <time>2023-03-30T14:52:26.902Z</time>
      </trkpt>
      <trkpt lat="48.859037" lon="2.070007">
        <ele>151.959301</ele>
        <time>2023-03-30T14:52:29.082Z</time>
      </trkpt>
      <trkpt lat="48.859349" lon="2.070157">
        <ele>150.209405</ele>
        <time>2023-03-30T14:52:32.155Z</time>
      </trkpt>
      <trkpt lat="48.859505" lon="2.070133">
        <ele>149.303726</ele>
        <time>2023-03-30T14:52:33.633Z</time>
      </trkpt>
      <trkpt lat="48.859645" lon="2.070035">
        <ele>148.291285</ele>
        <time>2023-03-30T14:52:35.071Z</time>
      </trkpt>
      <trkpt lat="48.859821" lon="2.069821">
        <ele>146.810821</ele>
        <time>2023-03-30T14:52:37.167Z</time>
      </trkpt>
      <trkpt lat="48.860312" lon="2.069059">
        <ele>142.201533</ele>
        <time>2023-03-30T14:52:43.492Z</time>
      </trkpt>
      <trkpt lat="48.860766" lon="2.068169">
        <ele>137.298002</ele>
        <time>2023-03-30T14:52:50.112Z</time>
      </trkpt>
      <trkpt lat="48.861024" lon="2.067843">
        <ele>134.937260</ele>
        <time>2023-03-30T14:52:53.124Z</time>
      </trkpt>
      <trkpt lat="48.861265" lon="2.067638">
        <ele>132.994009</ele>
        <time>2023-03-30T14:52:55.599Z</time>
      </trkpt>
      <trkpt lat="48.861673" lon="2.067520">
        <ele>130.071643</ele>
        <time>2023-03-30T14:52:59.306Z</time>
      </trkpt>
      <trkpt lat="48.861858" lon="2.067491">
        <ele>128.763001</ele>
        <time>2023-03-30T14:53:00.965Z</time>
      </trkpt>
      <trkpt lat="48.862159" lon="2.067574">
        <ele>126.610469</ele>
        <time>2023-03-30T14:53:03.719Z</time>
      </trkpt>
      <trkpt lat="48.862709" lon="2.067846">
        <ele>122.831017</ele>
        <time>2023-03-30T14:53:08.985Z</time>
      </trkpt>
      <trkpt lat="48.862801" lon="2.067863">
        <ele>122.250222</ele>
        <time>2023-03-30T14:53:09.832Z</time>
      </trkpt>
      <trkpt lat="48.863022" lon="2.067805">
        <ele>120.844756</ele>
        <time>2023-03-30T14:53:11.888Z</time>
      </trkpt>
      <trkpt lat="48.863098" lon="2.067816">
        <ele>120.366321</ele>
        <time>2023-03-30T14:53:12.578Z</time>
      </trkpt>
      <trkpt lat="48.863174" lon="2.067938">
        <ele>119.673629</ele>
        <time>2023-03-30T14:53:13.585Z</time>
      </trkpt>
      <trkpt lat="48.863342" lon="2.068952">
        <ele>115.362670</ele>
        <time>2023-03-30T14:53:19.876Z</time>
      </trkpt>
      <trkpt lat="48.863405" lon="2.069120">
        <ele>114.565432</ele>
        <time>2023-03-30T14:53:21.052Z</time>
      </trkpt>
      <trkpt lat="48.863463" lon="2.069160">
        <ele>114.166295</ele>
        <time>2023-03-30T14:53:21.631Z</time>
      </trkpt>
      <trkpt lat="48.863965" lon="2.069323">
        <ele>111.077344</ele>
        <time>2023-03-30T14:53:26.323Z</time>
      </trkpt>
      <trkpt lat="48.864347" lon="2.069386">
        <ele>108.773000</ele>
        <time>2023-03-30T14:53:29.817Z</time>
      </trkpt>
      <trkpt lat="48.864907" lon="2.069203">
        <ele>105.337887</ele>
        <time>2023-03-30T14:53:35.079Z</time>
      </trkpt>
      <trkpt lat="48.865083" lon="2.069184">
        <ele>104.279736</ele>
        <time>2023-03-30T14:53:36.706Z</time>
      </trkpt>
      <trkpt lat="48.865256" lon="2.069213">
        <ele>103.235945</ele>
        <time>2023-03-30T14:53:38.304Z</time>
      </trkpt>
      <trkpt lat="48.865429" lon="2.069321">
        <ele>102.360437</ele>
        <time>2023-03-30T14:53:40.046Z</time>
      </trkpt>
      <trkpt lat="48.865683" lon="2.069639">
        <ele>100.862323</ele>
        <time>2023-03-30T14:53:43.129Z</time>
      </trkpt>
      <trkpt lat="48.865716" lon="2.069699">
        <ele>100.628093</ele>
        <time>2023-03-30T14:53:43.619Z</time>
      </trkpt>
      <trkpt lat="48.865973" lon="2.070166">
        <ele>98.804565</ele>
        <time>2023-03-30T14:53:47.396Z</time>
      </trkpt>
      <trkpt lat="48.866172" lon="2.070507">
        <ele>97.439339</ele>
        <time>2023-03-30T14:53:50.241Z</time>
      </trkpt>
      <trkpt lat="48.866304" lon="2.070484">
        <ele>96.834435</ele>
        <time>2023-03-30T14:53:51.510Z</time>
      </trkpt>
      <trkpt lat="48.866503" lon="2.070394">
        <ele>95.889182</ele>
        <time>2023-03-30T14:53:53.596Z</time>
      </trkpt>
      <trkpt lat="48.867660" lon="2.069979">
        <ele>92.582518</ele>
        <time>2023-03-30T14:54:05.907Z</time>
      </trkpt>
      <trkpt lat="48.867707" lon="2.070003">
        <ele>92.463109</ele>
        <time>2023-03-30T14:54:06.426Z</time>
      </trkpt>
      <trkpt lat="48.867723" lon="2.070087">
        <ele>92.324567</ele>
        <time>2023-03-30T14:54:07.090Z</time>
      </trkpt>
      <trkpt lat="48.867811" lon="2.070219">
        <ele>92.026830</ele>
        <time>2023-03-30T14:54:08.403Z</time>
      </trkpt>
      <trkpt lat="48.868550" lon="2.070903">
        <ele>89.885340</ele>
        <time>2023-03-30T14:54:18.218Z</time>
      </trkpt>
      <trkpt lat="48.868763" lon="2.071176">
        <ele>89.156710</ele>
        <time>2023-03-30T14:54:21.742Z</time>
      </trkpt>
      <trkpt lat="48.868913" lon="2.071465">
        <ele>88.523395</ele>
        <time>2023-03-30T14:54:24.558Z</time>
      </trkpt>
      <trkpt lat="48.869464" lon="2.072488">
        <ele>86.248778</ele>
        <time>2023-03-30T14:54:33.148Z</time>
      </trkpt>
      <trkpt lat="48.869675" lon="2.072782">
        <ele>85.570213</ele>
        <time>2023-03-30T14:54:36.002Z</time>
      </trkpt>
      <trkpt lat="48.869861" lon="2.072853">
        <ele>85.154038</ele>
        <time>2023-03-30T14:54:37.957Z</time>
      </trkpt>
      <trkpt lat="48.869951" lon="2.072696">
        <ele>84.856764</ele>
        <time>2023-03-30T14:54:39.409Z</time>
      </trkpt>
      <trkpt lat="48.870185" lon="2.072322">
        <ele>84.119957</ele>
        <time>2023-03-30T14:54:42.933Z</time>
      </trkpt>
      <trkpt lat="48.870314" lon="2.072265">
        <ele>83.828425</ele>
        <time>2023-03-30T14:54:44.340Z</time>
      </trkpt>
      <trkpt lat="48.870336" lon="2.072311">
        <ele>83.747241</ele>
        <time>2023-03-30T14:54:44.759Z</time>
      </trkpt>
      <trkpt lat="48.870407" lon="2.072327">
        <ele>83.591477</ele>
        <time>2023-03-30T14:54:45.511Z</time>
      </trkpt>
      <trkpt lat="48.870448" lon="2.072258">
        <ele>83.458746</ele>
        <time>2023-03-30T14:54:46.180Z</time>
      </trkpt>
      <trkpt lat="48.870449" lon="2.072204">
        <ele>83.381634</ele>
        <time>2023-03-30T14:54:46.564Z</time>
      </trkpt>
      <trkpt lat="48.870521" lon="2.072103">
        <ele>83.169033</ele>
        <time>2023-03-30T14:54:47.646Z</time>
      </trkpt>
      <trkpt lat="48.870626" lon="2.072039">
        <ele>82.923538</ele>
        <time>2023-03-30T14:54:48.899Z</time>
      </trkpt>
      <trkpt lat="48.870940" lon="2.072054">
        <ele>82.241779</ele>
        <time>2023-03-30T14:54:52.471Z</time>
      </trkpt>
      <trkpt lat="48.870941" lon="2.072055">
        <ele>82.239181</ele>
        <time>2023-03-30T14:54:52.483Z</time>
      </trkpt>
      <trkpt lat="48.870997" lon="2.072037">
        <ele>82.114967</ele>
        <time>2023-03-30T14:54:53.170Z</time>
      </trkpt>
      <trkpt lat="48.871072" lon="2.071948">
        <ele>82.073934</ele>
        <time>2023-03-30T14:54:54.302Z</time>
      </trkpt>
      <trkpt lat="48.871074" lon="2.071798">
        <ele>82.215632</ele>
        <time>2023-03-30T14:54:55.550Z</time>
      </trkpt>
      <trkpt lat="48.870849" lon="2.071391">
        <ele>82.717761</ele>
        <time>2023-03-30T14:55:01.570Z</time>
      </trkpt>
      <trkpt lat="48.870591" lon="2.070964">
        <ele>83.265371</ele>
        <time>2023-03-30T14:55:10.936Z</time>
      </trkpt>
      <trkpt lat="48.870240" lon="2.070405">
        <ele>83.995267</ele>
        <time>2023-03-30T14:55:23.891Z</time>
      </trkpt>
      <trkpt lat="48.869960" lon="2.070072">
        <ele>84.505714</ele>
        <time>2023-03-30T14:55:31.897Z</time>
      </trkpt>
      <trkpt lat="48.869801" lon="2.069883">
        <ele>84.833030</ele>
        <time>2023-03-30T14:55:36.245Z</time>
      </trkpt>
      <trkpt lat="48.869633" lon="2.069456">
        <ele>85.389018</ele>
        <time>2023-03-30T14:55:43.508Z</time>
      </trkpt>
      <trkpt lat="48.869600" lon="2.069321">
        <ele>85.549952</ele>
        <time>2023-03-30T14:55:45.491Z</time>
      </trkpt>
      <trkpt lat="48.869315" lon="2.068599">
        <ele>86.490873</ele>
        <time>2023-03-30T14:55:57.273Z</time>
      </trkpt>
      <trkpt lat="48.869191" lon="2.068459">
        <ele>86.753264</ele>
        <time>2023-03-30T14:56:00.377Z</time>
      </trkpt>
      <trkpt lat="48.868969" lon="2.067325">
        <ele>88.190126</ele>
        <time>2023-03-30T14:56:16.838Z</time>
      </trkpt>
      <trkpt lat="48.868725" lon="2.066033">
        <ele>90.093831</ele>
        <time>2023-03-30T14:56:37.701Z</time>
      </trkpt>
      <trkpt lat="48.868665" lon="2.065471">
        <ele>90.900177</ele>
        <time>2023-03-30T14:56:46.510Z</time>
      </trkpt>
      <trkpt lat="48.868615" lon="2.064656">
        <ele>92.385050</ele>
        <time>2023-03-30T14:56:59.592Z</time>
      </trkpt>
      <trkpt lat="48.868629" lon="2.063717">
        <ele>94.516461</ele>
        <time>2023-03-30T14:57:16.652Z</time>
      </trkpt>
      <trkpt lat="48.868640" lon="2.063178">
        <ele>95.740197</ele>
        <time>2023-03-30T14:57:27.503Z</time>
      </trkpt>
      <trkpt lat="48.868720" lon="2.062880">
        <ele>96.470595</ele>
        <time>2023-03-30T14:57:33.906Z</time>
      </trkpt>
      <trkpt lat="48.868832" lon="2.062559">
        <ele>97.295168</ele>
        <time>2023-03-30T14:57:41.469Z</time>
      </trkpt>
      <trkpt lat="48.868950" lon="2.061562">
        <ele>100.005840</ele>
        <time>2023-03-30T14:58:02.200Z</time>
      </trkpt>
      <trkpt lat="48.869041" lon="2.061036">
        <ele>101.511906</ele>
        <time>2023-03-30T14:58:13.940Z</time>
      </trkpt>
      <trkpt lat="48.869482" lon="2.059608">
        <ele>105.789652</ele>
        <time>2023-03-30T14:58:47.536Z</time>
      </trkpt>
      <trkpt lat="48.869586" lon="2.059220">
        <ele>106.770035</ele>
        <time>2023-03-30T14:58:55.436Z</time>
      </trkpt>
      <trkpt lat="48.869684" lon="2.058728">
        <ele>107.972910</ele>
        <time>2023-03-30T14:59:04.831Z</time>
      </trkpt>
      <trkpt lat="48.869743" lon="2.058118">
        <ele>109.415616</ele>
        <time>2023-03-30T14:59:16.106Z</time>
      </trkpt>
      <trkpt lat="48.869728" lon="2.057896">
        <ele>109.937814</ele>
        <time>2023-03-30T14:59:20.296Z</time>
      </trkpt>
      <trkpt lat="48.869626" lon="2.056952">
        <ele>112.328923</ele>
        <time>2023-03-30T14:59:38.060Z</time>
      </trkpt>
      <trkpt lat="48.869588" lon="2.056606">
        <ele>113.409511</ele>
        <time>2023-03-30T14:59:45.017Z</time>
      </trkpt>
      <trkpt lat="48.869434" lon="2.055168">
        <ele>117.897523</ele>
        <time>2023-03-30T15:00:16.671Z</time>
      </trkpt>
      <trkpt lat="48.869427" lon="2.055109">
        <ele>118.082202</ele>
        <time>2023-03-30T15:00:18.015Z</time>
      </trkpt>
      <trkpt lat="48.869348" lon="2.054289">
        <ele>120.762181</ele>
        <time>2023-03-30T15:00:38.104Z</time>
      </trkpt>
      <trkpt lat="48.869275" lon="2.053826">
        <ele>122.588735</ele>
        <time>2023-03-30T15:00:50.801Z</time>
      </trkpt>
      <trkpt lat="48.869126" lon="2.053001">
        <ele>125.870885</ele>
        <time>2023-03-30T15:01:14.527Z</time>
      </trkpt>
      <trkpt lat="48.869082" lon="2.052919">
        <ele>126.276862</ele>
        <time>2023-03-30T15:01:17.530Z</time>
      </trkpt>
      <trkpt lat="48.868953" lon="2.052775">
        <ele>127.210270</ele>
        <time>2023-03-30T15:01:23.882Z</time>
      </trkpt>
      <trkpt lat="48.868840" lon="2.052711">
        <ele>127.913572</ele>
        <time>2023-03-30T15:01:28.303Z</time>
      </trkpt>
      <trkpt lat="48.868281" lon="2.052740">
        <ele>131.007425</ele>
        <time>2023-03-30T15:01:47.524Z</time>
      </trkpt>
      <trkpt lat="48.868085" lon="2.052701">
        <ele>131.818762</ele>
        <time>2023-03-30T15:01:53.821Z</time>
      </trkpt>
      <trkpt lat="48.867944" lon="2.052546">
        <ele>132.532944</ele>
        <time>2023-03-30T15:02:00.003Z</time>
      </trkpt>
      <trkpt lat="48.867874" lon="2.052458">
        <ele>132.905769</ele>
        <time>2023-03-30T15:02:02.956Z</time>
      </trkpt>
      <trkpt lat="48.867818" lon="2.052331">
        <ele>133.318568</ele>
        <time>2023-03-30T15:02:06.197Z</time>
      </trkpt>
      <trkpt lat="48.867815" lon="2.052272">
        <ele>133.478338</ele>
        <time>2023-03-30T15:02:07.664Z</time>
      </trkpt>
      <trkpt lat="48.867810" lon="2.052172">
        <ele>133.749108</ele>
        <time>2023-03-30T15:02:09.979Z</time>
      </trkpt>
      <trkpt lat="48.867779" lon="2.051630">
        <ele>135.217981</ele>
        <time>2023-03-30T15:02:21.041Z</time>
      </trkpt>
      <trkpt lat="48.867770" lon="2.051423">
        <ele>135.778082</ele>
        <time>2023-03-30T15:02:24.954Z</time>
      </trkpt>
      <trkpt lat="48.867769" lon="2.051353">
        <ele>135.967120</ele>
        <time>2023-03-30T15:02:26.263Z</time>
      </trkpt>
      <trkpt lat="48.867767" lon="2.051240">
        <ele>136.272321</ele>
        <time>2023-03-30T15:02:28.338Z</time>
      </trkpt>
      <trkpt lat="48.867766" lon="2.051147">
        <ele>136.523446</ele>
        <time>2023-03-30T15:02:30.268Z</time>
      </trkpt>
      <trkpt lat="48.867752" lon="2.050968">
        <ele>137.010135</ele>
        <time>2023-03-30T15:02:33.612Z</time>
      </trkpt>
      <trkpt lat="48.867718" lon="2.050909">
        <ele>137.221912</ele>
        <time>2023-03-30T15:02:35.006Z</time>
      </trkpt>
      <trkpt lat="48.867505" lon="2.050879">
        <ele>138.121427</ele>
        <time>2023-03-30T15:02:41.079Z</time>
      </trkpt>
      <trkpt lat="48.867330" lon="2.050881">
        <ele>138.980481</ele>
        <time>2023-03-30T15:02:45.588Z</time>
      </trkpt>
      <trkpt lat="48.867219" lon="2.050924">
        <ele>139.542764</ele>
        <time>2023-03-30T15:02:48.615Z</time>
      </trkpt>
      <trkpt lat="48.867196" lon="2.050936">
        <ele>139.662129</ele>
        <time>2023-03-30T15:02:49.358Z</time>
      </trkpt>
      <trkpt lat="48.866860" lon="2.051123">
        <ele>141.418521</ele>
        <time>2023-03-30T15:02:59.055Z</time>
      </trkpt>
      <trkpt lat="48.866766" lon="2.051134">
        <ele>141.881308</ele>
        <time>2023-03-30T15:03:01.888Z</time>
      </trkpt>
      <trkpt lat="48.866726" lon="2.051077">
        <ele>142.150435</ele>
        <time>2023-03-30T15:03:03.527Z</time>
      </trkpt>
      <trkpt lat="48.866708" lon="2.050850">
        <ele>142.888731</ele>
        <time>2023-03-30T15:03:08.297Z</time>
      </trkpt>
      <trkpt lat="48.866700" lon="2.050338">
        <ele>144.542462</ele>
        <time>2023-03-30T15:03:21.364Z</time>
      </trkpt>
      <trkpt lat="48.866728" lon="2.050127">
        <ele>145.237513</ele>
        <time>2023-03-30T15:03:27.364Z</time>
      </trkpt>
      <trkpt lat="48.866836" lon="2.049959">
        <ele>145.996020</ele>
        <time>2023-03-30T15:03:33.790Z</time>
      </trkpt>
      <trkpt lat="48.866861" lon="2.049816">
        <ele>146.473800</ele>
        <time>2023-03-30T15:03:37.939Z</time>
      </trkpt>
      <trkpt lat="48.866836" lon="2.049603">
        <ele>147.415924</ele>
        <time>2023-03-30T15:03:44.105Z</time>
      </trkpt>
      <trkpt lat="48.866656" lon="2.048876">
        <ele>151.652837</ele>
        <time>2023-03-30T15:04:07.239Z</time>
      </trkpt>
      <trkpt lat="48.866625" lon="2.048757">
        <ele>152.350953</ele>
        <time>2023-03-30T15:04:11.353Z</time>
      </trkpt>
      <trkpt lat="48.866349" lon="2.047693">
        <ele>158.589360</ele>
        <time>2023-03-30T15:04:49.003Z</time>
      </trkpt>
      <trkpt lat="48.865941" lon="2.046113">
        <ele>167.317328</ele>
        <time>2023-03-30T15:05:46.009Z</time>
      </trkpt>
      <trkpt lat="48.865397" lon="2.044004">
        <ele>176.928016</ele>
        <time>2023-03-30T15:06:47.991Z</time>
      </trkpt>
      <trkpt lat="48.865353" lon="2.043854">
        <ele>177.324573</ele>
        <time>2023-03-30T15:06:51.467Z</time>
      </trkpt>
      <trkpt lat="48.865289" lon="2.043511">
        <ele>178.185433</ele>
        <time>2023-03-30T15:06:58.654Z</time>
      </trkpt>
      <trkpt lat="48.865274" lon="2.043254">
        <ele>178.808410</ele>
        <time>2023-03-30T15:07:03.583Z</time>
      </trkpt>
      <trkpt lat="48.865574" lon="2.040528">
        <ele>183.256313</ele>
        <time>2023-03-30T15:07:44.058Z</time>
      </trkpt>
      <trkpt lat="48.866545" lon="2.038716">
        <ele>184.298868</ele>
        <time>2023-03-30T15:08:11.701Z</time>
      </trkpt>
      <trkpt lat="48.866547" lon="2.038712">
        <ele>184.298434</ele>
        <time>2023-03-30T15:08:11.754Z</time>
      </trkpt>
      <trkpt lat="48.867367" lon="2.037108">
        <ele>183.550187</ele>
        <time>2023-03-30T15:08:29.023Z</time>
      </trkpt>
      <trkpt lat="48.867504" lon="2.036847">
        <ele>182.998472</ele>
        <time>2023-03-30T15:08:31.577Z</time>
      </trkpt>
      <trkpt lat="48.867507" lon="2.036841">
        <ele>182.986020</ele>
        <time>2023-03-30T15:08:31.638Z</time>
      </trkpt>
      <trkpt lat="48.867655" lon="2.036611">
        <ele>182.454406</ele>
        <time>2023-03-30T15:08:33.973Z</time>
      </trkpt>
      <trkpt lat="48.867802" lon="2.036490">
        <ele>182.034519</ele>
        <time>2023-03-30T15:08:35.855Z</time>
      </trkpt>
      <trkpt lat="48.867820" lon="2.036487">
        <ele>181.989036</ele>
        <time>2023-03-30T15:08:36.056Z</time>
      </trkpt>
      <trkpt lat="48.867880" lon="2.036431">
        <ele>181.812190</ele>
        <time>2023-03-30T15:08:36.810Z</time>
      </trkpt>
      <trkpt lat="48.867900" lon="2.036357">
        <ele>181.680005</ele>
        <time>2023-03-30T15:08:37.353Z</time>
      </trkpt>
      <trkpt lat="48.867899" lon="2.036303">
        <ele>181.590748</ele>
        <time>2023-03-30T15:08:37.713Z</time>
      </trkpt>
      <trkpt lat="48.867885" lon="2.036253">
        <ele>181.500962</ele>
        <time>2023-03-30T15:08:38.075Z</time>
      </trkpt>
      <trkpt lat="48.867830" lon="2.036188">
        <ele>181.325978</ele>
        <time>2023-03-30T15:08:38.834Z</time>
      </trkpt>
      <trkpt lat="48.867812" lon="2.036182">
        <ele>181.279691</ele>
        <time>2023-03-30T15:08:39.024Z</time>
      </trkpt>
      <trkpt lat="48.867657" lon="2.036089">
        <ele>180.861134</ele>
        <time>2023-03-30T15:08:40.757Z</time>
      </trkpt>
      <trkpt lat="48.867446" lon="2.035733">
        <ele>180.069376</ele>
        <time>2023-03-30T15:08:43.920Z</time>
      </trkpt>
      <trkpt lat="48.867171" lon="2.035268">
        <ele>178.145733</ele>
        <time>2023-03-30T15:08:47.876Z</time>
      </trkpt>
      <trkpt lat="48.867073" lon="2.035103">
        <ele>177.233608</ele>
        <time>2023-03-30T15:08:49.823Z</time>
      </trkpt>
      <trkpt lat="48.866408" lon="2.034013">
        <ele>171.133891</ele>
        <time>2023-03-30T15:09:02.471Z</time>
      </trkpt>
      <trkpt lat="48.866252" lon="2.033703">
        <ele>169.532432</ele>
        <time>2023-03-30T15:09:05.727Z</time>
      </trkpt>
      <trkpt lat="48.866088" lon="2.033521">
        <ele>168.265998</ele>
        <time>2023-03-30T15:09:08.298Z</time>
      </trkpt>
      <trkpt lat="48.866023" lon="2.033461">
        <ele>167.791918</ele>
        <time>2023-03-30T15:09:09.254Z</time>
      </trkpt>
      <trkpt lat="48.865887" lon="2.033262">
        <ele>166.615111</ele>
        <time>2023-03-30T15:09:10.939Z</time>
      </trkpt>
      <trkpt lat="48.865884" lon="2.033256">
        <ele>166.584204</ele>
        <time>2023-03-30T15:09:10.983Z</time>
      </trkpt>
      <trkpt lat="48.865831" lon="2.033112">
        <ele>165.907508</ele>
        <time>2023-03-30T15:09:11.957Z</time>
      </trkpt>
      <trkpt lat="48.865802" lon="2.032990">
        <ele>165.375521</ele>
        <time>2023-03-30T15:09:12.724Z</time>
      </trkpt>
      <trkpt lat="48.865758" lon="2.032890">
        <ele>164.882138</ele>
        <time>2023-03-30T15:09:13.441Z</time>
      </trkpt>
      <trkpt lat="48.865703" lon="2.032833">
        <ele>164.467155</ele>
        <time>2023-03-30T15:09:14.034Z</time>
      </trkpt>
      <trkpt lat="48.865354" lon="2.032199">
        <ele>161.076850</ele>
        <time>2023-03-30T15:09:18.977Z</time>
      </trkpt>
      <trkpt lat="48.864581" lon="2.031128">
        <ele>155.660669</ele>
        <time>2023-03-30T15:09:28.751Z</time>
      </trkpt>
      <trkpt lat="48.864371" lon="2.030793">
        <ele>154.554226</ele>
        <time>2023-03-30T15:09:31.912Z</time>
      </trkpt>
      <trkpt lat="48.864240" lon="2.030532">
        <ele>153.769257</ele>
        <time>2023-03-30T15:09:34.139Z</time>
      </trkpt>
      <trkpt lat="48.864091" lon="2.030238">
        <ele>152.881860</ele>
        <time>2023-03-30T15:09:36.769Z</time>
      </trkpt>
      <trkpt lat="48.864040" lon="2.030138">
        <ele>152.579313</ele>
        <time>2023-03-30T15:09:37.610Z</time>
      </trkpt>
      <trkpt lat="48.863848" lon="2.029767">
        <ele>151.450622</ele>
        <time>2023-03-30T15:09:40.797Z</time>
      </trkpt>
      <trkpt lat="48.863778" lon="2.029632">
        <ele>151.039608</ele>
        <time>2023-03-30T15:09:41.905Z</time>
      </trkpt>
      <trkpt lat="48.863855" lon="2.029524">
        <ele>150.658864</ele>
        <time>2023-03-30T15:09:43.460Z</time>
      </trkpt>
      <trkpt lat="48.863913" lon="2.029194">
        <ele>149.848513</ele>
        <time>2023-03-30T15:09:46.609Z</time>
      </trkpt>
      <trkpt lat="48.863958" lon="2.029119">
        <ele>149.607692</ele>
        <time>2023-03-30T15:09:47.565Z</time>
      </trkpt>
      <trkpt lat="48.864043" lon="2.029014">
        <ele>149.212705</ele>
        <time>2023-03-30T15:09:49.139Z</time>
      </trkpt>
      <trkpt lat="48.864069" lon="2.028942">
        <ele>149.017850</ele>
        <time>2023-03-30T15:09:49.898Z</time>
      </trkpt>
      <trkpt lat="48.864179" lon="2.028336">
        <ele>147.526459</ele>
        <time>2023-03-30T15:09:55.726Z</time>
      </trkpt>
      <trkpt lat="48.864175" lon="2.028128">
        <ele>147.032792</ele>
        <time>2023-03-30T15:09:57.674Z</time>
      </trkpt>
      <trkpt lat="48.864069" lon="2.027447">
        <ele>145.372588</ele>
        <time>2023-03-30T15:10:04.339Z</time>
      </trkpt>
      <trkpt lat="48.864465" lon="2.026624">
        <ele>143.169525</ele>
        <time>2023-03-30T15:10:13.886Z</time>
      </trkpt>
      <trkpt lat="48.864614" lon="2.026323">
        <ele>142.433129</ele>
        <time>2023-03-30T15:10:17.378Z</time>
      </trkpt>
      <trkpt lat="48.864904" lon="2.025705">
        <ele>140.949162</ele>
        <time>2023-03-30T15:10:24.539Z</time>
      </trkpt>
      <trkpt lat="48.864986" lon="2.025447">
        <ele>140.389031</ele>
        <time>2023-03-30T15:10:27.350Z</time>
      </trkpt>
      <trkpt lat="48.865120" lon="2.024225">
        <ele>138.673481</ele>
        <time>2023-03-30T15:10:40.117Z</time>
      </trkpt>
      <trkpt lat="48.865963" lon="2.022175">
        <ele>137.876596</ele>
        <time>2023-03-30T15:11:11.045Z</time>
      </trkpt>
      <trkpt lat="48.866129" lon="2.021882">
        <ele>137.995691</ele>
        <time>2023-03-30T15:11:16.682Z</time>
      </trkpt>
      <trkpt lat="48.866553" lon="2.021366">
        <ele>138.249981</ele>
        <time>2023-03-30T15:11:28.777Z</time>
      </trkpt>
      <trkpt lat="48.866824" lon="2.021065">
        <ele>138.407119</ele>
        <time>2023-03-30T15:11:36.438Z</time>
      </trkpt>
      <trkpt lat="48.867005" lon="2.020647">
        <ele>138.561244</ele>
        <time>2023-03-30T15:11:44.154Z</time>
      </trkpt>
      <trkpt lat="48.867276" lon="2.019987">
        <ele>138.732452</ele>
        <time>2023-03-30T15:11:55.815Z</time>
      </trkpt>
      <trkpt lat="48.867477" lon="2.019663">
        <ele>138.792364</ele>
        <time>2023-03-30T15:12:02.039Z</time>
      </trkpt>
      <trkpt lat="48.867711" lon="2.019395">
        <ele>138.852279</ele>
        <time>2023-03-30T15:12:07.828Z</time>
      </trkpt>
      <trkpt lat="48.867965" lon="2.019128">
        <ele>138.915432</ele>
        <time>2023-03-30T15:12:13.782Z</time>
      </trkpt>
      <trkpt lat="48.868243" lon="2.018689">
        <ele>138.997407</ele>
        <time>2023-03-30T15:12:21.687Z</time>
      </trkpt>
      <trkpt lat="48.868553" lon="2.018045">
        <ele>139.371279</ele>
        <time>2023-03-30T15:12:33.018Z</time>
      </trkpt>
      <trkpt lat="48.868705" lon="2.017644">
        <ele>139.721978</ele>
        <time>2023-03-30T15:12:40.263Z</time>
      </trkpt>
      <trkpt lat="48.869329" lon="2.016564">
        <ele>140.811213</ele>
        <time>2023-03-30T15:13:05.030Z</time>
      </trkpt>
      <trkpt lat="48.869488" lon="2.016132">
        <ele>141.179403</ele>
        <time>2023-03-30T15:13:13.841Z</time>
      </trkpt>
      <trkpt lat="48.869777" lon="2.015158">
        <ele>141.905640</ele>
        <time>2023-03-30T15:13:32.155Z</time>
      </trkpt>
      <trkpt lat="48.869950" lon="2.014759">
        <ele>142.230444</ele>
        <time>2023-03-30T15:13:39.965Z</time>
      </trkpt>
      <trkpt lat="48.869963" lon="2.014667">
        <ele>142.294401</ele>
        <time>2023-03-30T15:13:41.441Z</time>
      </trkpt>
      <trkpt lat="48.869982" lon="2.014516">
        <ele>142.398891</ele>
        <time>2023-03-30T15:13:43.848Z</time>
      </trkpt>
      <trkpt lat="48.870131" lon="2.013480">
        <ele>142.997105</ele>
        <time>2023-03-30T15:13:59.677Z</time>
      </trkpt>
      <trkpt lat="48.870373" lon="2.012062">
        <ele>143.133010</ele>
        <time>2023-03-30T15:14:18.281Z</time>
      </trkpt>
      <trkpt lat="48.870645" lon="2.011172">
        <ele>143.224052</ele>
        <time>2023-03-30T15:14:31.380Z</time>
      </trkpt>
      <trkpt lat="48.871027" lon="2.010261">
        <ele>144.054238</ele>
        <time>2023-03-30T15:14:48.227Z</time>
      </trkpt>
      <trkpt lat="48.871083" lon="2.010036">
        <ele>144.251978</ele>
        <time>2023-03-30T15:14:52.460Z</time>
      </trkpt>
      <trkpt lat="48.871206" lon="2.009156">
        <ele>144.991456</ele>
        <time>2023-03-30T15:15:08.400Z</time>
      </trkpt>
      <trkpt lat="48.871212" lon="2.008991">
        <ele>145.127287</ele>
        <time>2023-03-30T15:15:11.491Z</time>
      </trkpt>
      <trkpt lat="48.871183" lon="2.008838">
        <ele>145.258164</ele>
        <time>2023-03-30T15:15:14.264Z</time>
      </trkpt>
      <trkpt lat="48.871197" lon="2.008697">
        <ele>145.375374</ele>
        <time>2023-03-30T15:15:16.614Z</time>
      </trkpt>
      <trkpt lat="48.871276" lon="2.008444">
        <ele>145.657083</ele>
        <time>2023-03-30T15:15:21.361Z</time>
      </trkpt>
      <trkpt lat="48.871495" lon="2.007952">
        <ele>146.344237</ele>
        <time>2023-03-30T15:15:31.527Z</time>
      </trkpt>
      <trkpt lat="48.871662" lon="2.007635">
        <ele>146.814014</ele>
        <time>2023-03-30T15:15:38.877Z</time>
      </trkpt>
      <trkpt lat="48.871944" lon="2.007256">
        <ele>147.475907</ele>
        <time>2023-03-30T15:15:49.528Z</time>
      </trkpt>
      <trkpt lat="48.872017" lon="2.007088">
        <ele>147.708802</ele>
        <time>2023-03-30T15:15:53.389Z</time>
      </trkpt>
      <trkpt lat="48.872101" lon="2.006682">
        <ele>148.201094</ele>
        <time>2023-03-30T15:16:01.508Z</time>
      </trkpt>
      <trkpt lat="48.872259" lon="2.006213">
        <ele>148.683168</ele>
        <time>2023-03-30T15:16:11.037Z</time>
      </trkpt>
      <trkpt lat="48.872563" lon="2.005505">
        <ele>148.921661</ele>
        <time>2023-03-30T15:16:25.216Z</time>
      </trkpt>
      <trkpt lat="48.872770" lon="2.004756">
        <ele>149.150823</ele>
        <time>2023-03-30T15:16:36.651Z</time>
      </trkpt>
      <trkpt lat="48.873124" lon="2.003512">
        <ele>149.095089</ele>
        <time>2023-03-30T15:16:53.303Z</time>
      </trkpt>
      <trkpt lat="48.873538" lon="2.002327">
        <ele>148.088801</ele>
        <time>2023-03-30T15:17:07.430Z</time>
      </trkpt>
      <trkpt lat="48.873763" lon="2.001116">
        <ele>147.689009</ele>
        <time>2023-03-30T15:17:21.564Z</time>
      </trkpt>
      <trkpt lat="48.873821" lon="2.001026">
        <ele>147.830841</ele>
        <time>2023-03-30T15:17:23.124Z</time>
      </trkpt>
      <trkpt lat="48.874051" lon="2.000822">
        <ele>148.286553</ele>
        <time>2023-03-30T15:17:28.790Z</time>
      </trkpt>
      <trkpt lat="48.874218" lon="2.000669">
        <ele>148.620239</ele>
        <time>2023-03-30T15:17:33.648Z</time>
      </trkpt>
      <trkpt lat="48.874413" lon="2.000343">
        <ele>149.116254</ele>
        <time>2023-03-30T15:17:41.386Z</time>
      </trkpt>
      <trkpt lat="48.874555" lon="1.999933">
        <ele>149.637835</ele>
        <time>2023-03-30T15:17:50.823Z</time>
      </trkpt>
      <trkpt lat="48.874662" lon="1.999325">
        <ele>150.346289</ele>
        <time>2023-03-30T15:18:05.495Z</time>
      </trkpt>
      <trkpt lat="48.874748" lon="1.998838">
        <ele>151.552797</ele>
        <time>2023-03-30T15:18:18.166Z</time>
      </trkpt>
      <trkpt lat="48.874970" lon="1.998088">
        <ele>153.728877</ele>
        <time>2023-03-30T15:18:38.304Z</time>
      </trkpt>
      <trkpt lat="48.875030" lon="1.997915">
        <ele>154.246346</ele>
        <time>2023-03-30T15:18:43.131Z</time>
      </trkpt>
      <trkpt lat="48.875252" lon="1.997482">
        <ele>155.698952</ele>
        <time>2023-03-30T15:18:56.665Z</time>
      </trkpt>
      <trkpt lat="48.875360" lon="1.997290">
        <ele>156.367398</ele>
        <time>2023-03-30T15:19:02.767Z</time>
      </trkpt>
      <trkpt lat="48.875697" lon="1.996883">
        <ele>157.980113</ele>
        <time>2023-03-30T15:19:18.114Z</time>
      </trkpt>
      <trkpt lat="48.876535" lon="1.996136">
        <ele>160.790272</ele>
        <time>2023-03-30T15:19:48.883Z</time>
      </trkpt>
      <trkpt lat="48.876635" lon="1.996006">
        <ele>161.170884</ele>
        <time>2023-03-30T15:19:52.808Z</time>
      </trkpt>
      <trkpt lat="48.876721" lon="1.995815">
        <ele>161.611287</ele>
        <time>2023-03-30T15:19:57.309Z</time>
      </trkpt>
      <trkpt lat="48.876765" lon="1.995609">
        <ele>162.023375</ele>
        <time>2023-03-30T15:20:01.640Z</time>
      </trkpt>
      <trkpt lat="48.876821" lon="1.994718">
        <ele>163.705537</ele>
        <time>2023-03-30T15:20:19.482Z</time>
      </trkpt>
      <trkpt lat="48.877050" lon="1.993239">
        <ele>166.525445</ele>
        <time>2023-03-30T15:20:50.486Z</time>
      </trkpt>
      <trkpt lat="48.877088" lon="1.992424">
        <ele>168.052973</ele>
        <time>2023-03-30T15:21:07.784Z</time>
      </trkpt>
      <trkpt lat="48.877118" lon="1.992230">
        <ele>168.470658</ele>
        <time>2023-03-30T15:21:12.359Z</time>
      </trkpt>
      <trkpt lat="48.877473" lon="1.991157">
        <ele>170.988027</ele>
        <time>2023-03-30T15:21:39.680Z</time>
      </trkpt>
      <trkpt lat="48.877590" lon="1.990684">
        <ele>172.047157</ele>
        <time>2023-03-30T15:21:50.839Z</time>
      </trkpt>
      <trkpt lat="48.877647" lon="1.990451">
        <ele>172.568176</ele>
        <time>2023-03-30T15:21:56.026Z</time>
      </trkpt>
      <trkpt lat="48.877706" lon="1.990212">
        <ele>173.103205</ele>
        <time>2023-03-30T15:22:01.630Z</time>
      </trkpt>
      <trkpt lat="48.877828" lon="1.989711">
        <ele>173.984906</ele>
        <time>2023-03-30T15:22:12.643Z</time>
      </trkpt>
      <trkpt lat="48.877978" lon="1.989072">
        <ele>174.775239</ele>
        <time>2023-03-30T15:22:25.762Z</time>
      </trkpt>
      <trkpt lat="48.878030" lon="1.988848">
        <ele>175.051943</ele>
        <time>2023-03-30T15:22:29.980Z</time>
      </trkpt>
      <trkpt lat="48.878121" lon="1.988413">
        <ele>175.583668</ele>
        <time>2023-03-30T15:22:38.172Z</time>
      </trkpt>
      <trkpt lat="48.878240" lon="1.987505">
        <ele>176.662142</ele>
        <time>2023-03-30T15:22:53.794Z</time>
      </trkpt>
      <trkpt lat="48.878264" lon="1.987276">
        <ele>176.881741</ele>
        <time>2023-03-30T15:22:57.146Z</time>
      </trkpt>
      <trkpt lat="48.878342" lon="1.986561">
        <ele>177.007700</ele>
        <time>2023-03-30T15:23:07.812Z</time>
      </trkpt>
      <trkpt lat="48.878374" lon="1.986295">
        <ele>177.054696</ele>
        <time>2023-03-30T15:23:11.750Z</time>
      </trkpt>
      <trkpt lat="48.878509" lon="1.985755">
        <ele>177.155096</ele>
        <time>2023-03-30T15:23:19.773Z</time>
      </trkpt>
      <trkpt lat="48.878577" lon="1.985530">
        <ele>177.198130</ele>
        <time>2023-03-30T15:23:23.146Z</time>
      </trkpt>
      <trkpt lat="48.878640" lon="1.985367">
        <ele>177.230988</ele>
        <time>2023-03-30T15:23:25.678Z</time>
      </trkpt>
      <trkpt lat="48.878735" lon="1.985211">
        <ele>177.267937</ele>
        <time>2023-03-30T15:23:28.410Z</time>
      </trkpt>
      <trkpt lat="48.878940" lon="1.985221">
        <ele>177.322138</ele>
        <time>2023-03-30T15:23:32.490Z</time>
      </trkpt>
      <trkpt lat="48.879379" lon="1.985344">
        <ele>177.180249</ele>
        <time>2023-03-30T15:23:41.032Z</time>
      </trkpt>
      <trkpt lat="48.879917" lon="1.985568">
        <ele>176.910915</ele>
        <time>2023-03-30T15:23:51.424Z</time>
      </trkpt>
      <trkpt lat="48.880256" lon="1.985777">
        <ele>176.734287</ele>
        <time>2023-03-30T15:23:58.152Z</time>
      </trkpt>
      <trkpt lat="48.880348" lon="1.985861">
        <ele>176.682472</ele>
        <time>2023-03-30T15:24:00.158Z</time>
      </trkpt>
      <trkpt lat="48.880598" lon="1.986201">
        <ele>176.520523</ele>
        <time>2023-03-30T15:24:06.276Z</time>
      </trkpt>
      <trkpt lat="48.880761" lon="1.985837">
        <ele>176.365043</ele>
        <time>2023-03-30T15:24:09.941Z</time>
      </trkpt>
      <trkpt lat="48.880947" lon="1.985405">
        <ele>176.175180</ele>
        <time>2023-03-30T15:24:14.202Z</time>
      </trkpt>
      <trkpt lat="48.881067" lon="1.985280">
        <ele>176.093851</ele>
        <time>2023-03-30T15:24:16.021Z</time>
      </trkpt>
      <trkpt lat="48.881191" lon="1.985210">
        <ele>176.019895</ele>
        <time>2023-03-30T15:24:17.656Z</time>
      </trkpt>
      <trkpt lat="48.881715" lon="1.985063">
        <ele>175.721964</ele>
        <time>2023-03-30T15:24:24.456Z</time>
      </trkpt>
      <trkpt lat="48.881895" lon="1.984918">
        <ele>175.608071</ele>
        <time>2023-03-30T15:24:27.157Z</time>
      </trkpt>
      <trkpt lat="48.882063" lon="1.984727">
        <ele>175.490785</ele>
        <time>2023-03-30T15:24:30.207Z</time>
      </trkpt>
      <trkpt lat="48.882160" lon="1.984667">
        <ele>175.489826</ele>
        <time>2023-03-30T15:24:31.689Z</time>
      </trkpt>
      <trkpt lat="48.882411" lon="1.984696">
        <ele>175.542996</ele>
        <time>2023-03-30T15:24:35.608Z</time>
      </trkpt>
      <trkpt lat="48.882518" lon="1.984741">
        <ele>175.566446</ele>
        <time>2023-03-30T15:24:37.323Z</time>
      </trkpt>
      <trkpt lat="48.882919" lon="1.984867">
        <ele>175.652937</ele>
        <time>2023-03-30T15:24:44.227Z</time>
      </trkpt>
      <trkpt lat="48.882976" lon="1.984679">
        <ele>175.681693</ele>
        <time>2023-03-30T15:24:46.679Z</time>
      </trkpt>
      <trkpt lat="48.883635" lon="1.982518">
        <ele>175.514592</ele>
        <time>2023-03-30T15:25:11.257Z</time>
      </trkpt>
      <trkpt lat="48.883815" lon="1.982659">
        <ele>175.423083</ele>
        <time>2023-03-30T15:25:14.094Z</time>
      </trkpt>
      <trkpt lat="48.883962" lon="1.982756">
        <ele>175.350662</ele>
        <time>2023-03-30T15:25:16.127Z</time>
      </trkpt>
      <trkpt lat="48.884127" lon="1.982727">
        <ele>175.275594</ele>
        <time>2023-03-30T15:25:18.260Z</time>
      </trkpt>
      <trkpt lat="48.884177" lon="1.982743">
        <ele>175.252501</ele>
        <time>2023-03-30T15:25:18.884Z</time>
      </trkpt>
      <trkpt lat="48.884214" lon="1.982737">
        <ele>175.235685</ele>
        <time>2023-03-30T15:25:19.321Z</time>
      </trkpt>
      <trkpt lat="48.884293" lon="1.982663">
        <ele>175.193751</ele>
        <time>2023-03-30T15:25:20.433Z</time>
      </trkpt>
      <trkpt lat="48.884327" lon="1.982540">
        <ele>175.154098</ele>
        <time>2023-03-30T15:25:21.482Z</time>
      </trkpt>
      <trkpt lat="48.884328" lon="1.982520">
        <ele>175.148137</ele>
        <time>2023-03-30T15:25:21.646Z</time>
      </trkpt>
      <trkpt lat="48.884356" lon="1.982422">
        <ele>175.116382</ele>
        <time>2023-03-30T15:25:22.503Z</time>
      </trkpt>
      <trkpt lat="48.884457" lon="1.982292">
        <ele>175.056579</ele>
        <time>2023-03-30T15:25:24.016Z</time>
      </trkpt>
      <trkpt lat="48.884545" lon="1.982251">
        <ele>174.969500</ele>
        <time>2023-03-30T15:25:25.075Z</time>
      </trkpt>
      <trkpt lat="48.884613" lon="1.982258">
        <ele>174.884977</ele>
        <time>2023-03-30T15:25:25.870Z</time>
      </trkpt>
      <trkpt lat="48.884736" lon="1.982399">
        <ele>174.693955</ele>
        <time>2023-03-30T15:25:27.638Z</time>
      </trkpt>
      <trkpt lat="48.884901" lon="1.982796">
        <ele>174.310959</ele>
        <time>2023-03-30T15:25:31.148Z</time>
      </trkpt>
      <trkpt lat="48.885031" lon="1.983125">
        <ele>173.997950</ele>
        <time>2023-03-30T15:25:33.972Z</time>
      </trkpt>
      <trkpt lat="48.885150" lon="1.983289">
        <ele>173.798787</ele>
        <time>2023-03-30T15:25:35.812Z</time>
      </trkpt>
      <trkpt lat="48.885294" lon="1.983381">
        <ele>173.605086</ele>
        <time>2023-03-30T15:25:37.634Z</time>
      </trkpt>
      <trkpt lat="48.885374" lon="1.983394">
        <ele>173.505309</ele>
        <time>2023-03-30T15:25:38.601Z</time>
      </trkpt>
      <trkpt lat="48.885574" lon="1.983330">
        <ele>173.251847</ele>
        <time>2023-03-30T15:25:41.013Z</time>
      </trkpt>
      <trkpt lat="48.885694" lon="1.983209">
        <ele>173.073289</ele>
        <time>2023-03-30T15:25:42.735Z</time>
      </trkpt>
      <trkpt lat="48.885794" lon="1.983017">
        <ele>172.873553</ele>
        <time>2023-03-30T15:25:44.706Z</time>
      </trkpt>
      <trkpt lat="48.888997" lon="1.973432">
        <ele>172.042854</ele>
        <time>2023-03-30T15:27:26.684Z</time>
      </trkpt>
      <trkpt lat="48.890263" lon="1.969645">
        <ele>173.039500</ele>
        <time>2023-03-30T15:28:12.840Z</time>
      </trkpt>
      <trkpt lat="48.890917" lon="1.967682">
        <ele>173.675731</ele>
        <time>2023-03-30T15:28:36.831Z</time>
      </trkpt>
      <trkpt lat="48.891117" lon="1.967083">
        <ele>173.868008</ele>
        <time>2023-03-30T15:28:44.138Z</time>
      </trkpt>
      <trkpt lat="48.892811" lon="1.961984">
        <ele>175.417864</ele>
        <time>2023-03-30T15:29:46.010Z</time>
      </trkpt>
      <trkpt lat="48.892882" lon="1.961915">
        <ele>175.452920</ele>
        <time>2023-03-30T15:29:47.401Z</time>
      </trkpt>
      <trkpt lat="48.892943" lon="1.961598">
        <ele>175.543275</ele>
        <time>2023-03-30T15:29:50.872Z</time>
      </trkpt>
      <trkpt lat="48.894472" lon="1.956974">
        <ele>177.118466</ele>
        <time>2023-03-30T15:30:48.283Z</time>
      </trkpt>
      <trkpt lat="48.895369" lon="1.954322">
        <ele>177.825405</ele>
        <time>2023-03-30T15:31:19.523Z</time>
      </trkpt>
      <trkpt lat="48.895554" lon="1.953890">
        <ele>177.936603</ele>
        <time>2023-03-30T15:31:25.054Z</time>
      </trkpt>
      <trkpt lat="48.896283" lon="1.952549">
        <ele>178.289408</ele>
        <time>2023-03-30T15:31:44.091Z</time>
      </trkpt>
      <trkpt lat="48.896707" lon="1.951779">
        <ele>178.491494</ele>
        <time>2023-03-30T15:31:54.694Z</time>
      </trkpt>
      <trkpt lat="48.897079" lon="1.951103">
        <ele>178.382900</ele>
        <time>2023-03-30T15:32:03.270Z</time>
      </trkpt>
      <trkpt lat="48.897735" lon="1.949897">
        <ele>178.061664</ele>
        <time>2023-03-30T15:32:16.998Z</time>
      </trkpt>
      <trkpt lat="48.898394" lon="1.948686">
        <ele>177.604284</ele>
        <time>2023-03-30T15:32:30.411Z</time>
      </trkpt>
      <trkpt lat="48.899253" lon="1.947108">
        <ele>177.045601</ele>
        <time>2023-03-30T15:32:48.309Z</time>
      </trkpt>
      <trkpt lat="48.899982" lon="1.945784">
        <ele>176.941956</ele>
        <time>2023-03-30T15:33:05.160Z</time>
      </trkpt>
      <trkpt lat="48.900508" lon="1.944829">
        <ele>176.935102</ele>
        <time>2023-03-30T15:33:17.268Z</time>
      </trkpt>
      <trkpt lat="48.901114" lon="1.943728">
        <ele>176.997893</ele>
        <time>2023-03-30T15:33:31.773Z</time>
      </trkpt>
      <trkpt lat="48.902076" lon="1.942004">
        <ele>176.991599</ele>
        <time>2023-03-30T15:33:54.300Z</time>
      </trkpt>
      <trkpt lat="48.902265" lon="1.941576">
        <ele>176.980584</ele>
        <time>2023-03-30T15:33:59.306Z</time>
      </trkpt>
      <trkpt lat="48.902309" lon="1.941647">
        <ele>176.978500</ele>
        <time>2023-03-30T15:34:00.558Z</time>
      </trkpt>
      <trkpt lat="48.903319" lon="1.941846">
        <ele>176.588805</ele>
        <time>2023-03-30T15:34:19.959Z</time>
      </trkpt>
      <trkpt lat="48.903533" lon="1.941968">
        <ele>176.462422</ele>
        <time>2023-03-30T15:34:24.150Z</time>
      </trkpt>
      <trkpt lat="48.903760" lon="1.942275">
        <ele>176.294452</ele>
        <time>2023-03-30T15:34:29.607Z</time>
      </trkpt>
      <trkpt lat="48.903929" lon="1.942662">
        <ele>176.125556</ele>
        <time>2023-03-30T15:34:35.024Z</time>
      </trkpt>
      <trkpt lat="48.904223" lon="1.945569">
        <ele>174.851425</ele>
        <time>2023-03-30T15:35:09.688Z</time>
      </trkpt>
      <trkpt lat="48.904333" lon="1.946861">
        <ele>174.731445</ele>
        <time>2023-03-30T15:35:26.193Z</time>
      </trkpt>
      <trkpt lat="48.904442" lon="1.947631">
        <ele>174.713769</ele>
        <time>2023-03-30T15:35:36.834Z</time>
      </trkpt>
      <trkpt lat="48.904684" lon="1.948832">
        <ele>174.739616</ele>
        <time>2023-03-30T15:35:54.586Z</time>
      </trkpt>
      <trkpt lat="48.904717" lon="1.948979">
        <ele>174.757358</ele>
        <time>2023-03-30T15:35:56.796Z</time>
      </trkpt>
      <trkpt lat="48.905122" lon="1.950111">
        <ele>174.904562</ele>
        <time>2023-03-30T15:36:14.590Z</time>
      </trkpt>
      <trkpt lat="48.905290" lon="1.950878">
        <ele>174.996901</ele>
        <time>2023-03-30T15:36:25.594Z</time>
      </trkpt>
      <trkpt lat="48.905614" lon="1.953669">
        <ele>174.295183</ele>
        <time>2023-03-30T15:37:01.790Z</time>
      </trkpt>
      <trkpt lat="48.905683" lon="1.954032">
        <ele>173.353929</ele>
        <time>2023-03-30T15:37:05.938Z</time>
      </trkpt>
      <trkpt lat="48.905767" lon="1.954214">
        <ele>172.799983</ele>
        <time>2023-03-30T15:37:08.267Z</time>
      </trkpt>
      <trkpt lat="48.905989" lon="1.954463">
        <ele>171.754769</ele>
        <time>2023-03-30T15:37:12.481Z</time>
      </trkpt>
      <trkpt lat="48.906541" lon="1.955115">
        <ele>169.106468</ele>
        <time>2023-03-30T15:37:22.257Z</time>
      </trkpt>
      <trkpt lat="48.906805" lon="1.955191">
        <ele>168.088256</ele>
        <time>2023-03-30T15:37:25.820Z</time>
      </trkpt>
      <trkpt lat="48.907245" lon="1.955262">
        <ele>165.103572</ele>
        <time>2023-03-30T15:37:31.516Z</time>
      </trkpt>
      <trkpt lat="48.908017" lon="1.955805">
        <ele>158.017044</ele>
        <time>2023-03-30T15:37:42.073Z</time>
      </trkpt>
      <trkpt lat="48.908610" lon="1.955856">
        <ele>153.068206</ele>
        <time>2023-03-30T15:37:49.336Z</time>
      </trkpt>
      <trkpt lat="48.909550" lon="1.954998">
        <ele>145.198471</ele>
        <time>2023-03-30T15:38:03.121Z</time>
      </trkpt>
      <trkpt lat="48.909684" lon="1.954960">
        <ele>144.229998</ele>
        <time>2023-03-30T15:38:04.882Z</time>
      </trkpt>
      <trkpt lat="48.909734" lon="1.954995">
        <ele>143.838951</ele>
        <time>2023-03-30T15:38:05.582Z</time>
      </trkpt>
      <trkpt lat="48.909779" lon="1.955085">
        <ele>143.310879</ele>
        <time>2023-03-30T15:38:06.551Z</time>
      </trkpt>
      <trkpt lat="48.909866" lon="1.955388">
        <ele>141.766809</ele>
        <time>2023-03-30T15:38:09.392Z</time>
      </trkpt>
      <trkpt lat="48.910101" lon="1.956403">
        <ele>138.277011</ele>
        <time>2023-03-30T15:38:19.000Z</time>
      </trkpt>
      <trkpt lat="48.910356" lon="1.957522">
        <ele>135.581770</ele>
        <time>2023-03-30T15:38:30.628Z</time>
      </trkpt>
      <trkpt lat="48.910721" lon="1.959117">
        <ele>132.026044</ele>
        <time>2023-03-30T15:38:47.087Z</time>
      </trkpt>
      <trkpt lat="48.910816" lon="1.959534">
        <ele>131.184916</ele>
        <time>2023-03-30T15:38:51.324Z</time>
      </trkpt>
      <trkpt lat="48.910858" lon="1.959629">
        <ele>130.966710</ele>
        <time>2023-03-30T15:38:52.408Z</time>
      </trkpt>
      <trkpt lat="48.910900" lon="1.959725">
        <ele>130.746920</ele>
        <time>2023-03-30T15:38:53.505Z</time>
      </trkpt>
      <trkpt lat="48.911982" lon="1.962248">
        <ele>126.211945</ele>
        <time>2023-03-30T15:39:23.162Z</time>
      </trkpt>
      <trkpt lat="48.911984" lon="1.962254">
        <ele>126.203829</ele>
        <time>2023-03-30T15:39:23.232Z</time>
      </trkpt>
      <trkpt lat="48.912099" lon="1.962466">
        <ele>125.872209</ele>
        <time>2023-03-30T15:39:26.232Z</time>
      </trkpt>
      <trkpt lat="48.912187" lon="1.962316">
        <ele>125.629641</ele>
        <time>2023-03-30T15:39:28.743Z</time>
      </trkpt>
      <trkpt lat="48.912629" lon="1.961961">
        <ele>125.115219</ele>
        <time>2023-03-30T15:39:38.207Z</time>
      </trkpt>
      <trkpt lat="48.912887" lon="1.961741">
        <ele>125.355755</ele>
        <time>2023-03-30T15:39:44.664Z</time>
      </trkpt>
      <trkpt lat="48.912953" lon="1.961856">
        <ele>125.437362</ele>
        <time>2023-03-30T15:39:46.750Z</time>
      </trkpt>
      <trkpt lat="48.913205" lon="1.962506">
        <ele>125.840738</ele>
        <time>2023-03-30T15:39:59.145Z</time>
      </trkpt>
      <trkpt lat="48.913468" lon="1.963361">
        <ele>126.345318</ele>
        <time>2023-03-30T15:40:15.186Z</time>
      </trkpt>
      <trkpt lat="48.913849" lon="1.965261">
        <ele>127.725002</ele>
        <time>2023-03-30T15:40:47.782Z</time>
      </trkpt>
      <trkpt lat="48.913953" lon="1.965616">
        <ele>128.002067</ele>
        <time>2023-03-30T15:40:54.313Z</time>
      </trkpt>
      <trkpt lat="48.914110" lon="1.965982">
        <ele>128.313626</ele>
        <time>2023-03-30T15:41:01.418Z</time>
      </trkpt>
      <trkpt lat="48.914468" lon="1.966422">
        <ele>128.198417</ele>
        <time>2023-03-30T15:41:11.867Z</time>
      </trkpt>
      <trkpt lat="48.914805" lon="1.966923">
        <ele>127.939002</ele>
        <time>2023-03-30T15:41:20.889Z</time>
      </trkpt>
      <trkpt lat="48.914939" lon="1.967306">
        <ele>127.781998</ele>
        <time>2023-03-30T15:41:26.121Z</time>
      </trkpt>
      <trkpt lat="48.914994" lon="1.967679">
        <ele>127.643672</ele>
        <time>2023-03-30T15:41:30.479Z</time>
      </trkpt>
      <trkpt lat="48.914954" lon="1.968273">
        <ele>127.427609</ele>
        <time>2023-03-30T15:41:36.916Z</time>
      </trkpt>
      <trkpt lat="48.915030" lon="1.969112">
        <ele>126.521328</ele>
        <time>2023-03-30T15:41:45.497Z</time>
      </trkpt>
      <trkpt lat="48.915517" lon="1.970016">
        <ele>125.234774</ele>
        <time>2023-03-30T15:41:57.075Z</time>
      </trkpt>
      <trkpt lat="48.916503" lon="1.971567">
        <ele>125.316915</ele>
        <time>2023-03-30T15:42:24.546Z</time>
      </trkpt>
      <trkpt lat="48.916551" lon="1.971612">
        <ele>125.372873</ele>
        <time>2023-03-30T15:42:26.021Z</time>
      </trkpt>
      <trkpt lat="48.916588" lon="1.971702">
        <ele>125.442116</ele>
        <time>2023-03-30T15:42:27.843Z</time>
      </trkpt>
      <trkpt lat="48.916657" lon="1.971718">
        <ele>125.511392</ele>
        <time>2023-03-30T15:42:29.760Z</time>
      </trkpt>
      <trkpt lat="48.916676" lon="1.971704">
        <ele>125.532344</ele>
        <time>2023-03-30T15:42:30.383Z</time>
      </trkpt>
      <trkpt lat="48.916693" lon="1.971684">
        <ele>125.553672</ele>
        <time>2023-03-30T15:42:31.002Z</time>
      </trkpt>
      <trkpt lat="48.916713" lon="1.971567">
        <ele>125.632525</ele>
        <time>2023-03-30T15:42:33.276Z</time>
      </trkpt>
      <trkpt lat="48.916659" lon="1.971479">
        <ele>125.711056</ele>
        <time>2023-03-30T15:42:35.470Z</time>
      </trkpt>
      <trkpt lat="48.916705" lon="1.971303">
        <ele>125.834599</ele>
        <time>2023-03-30T15:42:38.432Z</time>
      </trkpt>
      <trkpt lat="48.916913" lon="1.970935">
        <ele>126.151196</ele>
        <time>2023-03-30T15:42:48.274Z</time>
      </trkpt>
      <trkpt lat="48.916977" lon="1.970811">
        <ele>126.387762</ele>
        <time>2023-03-30T15:42:51.014Z</time>
      </trkpt>
      <trkpt lat="48.917802" lon="1.969323">
        <ele>130.220443</ele>
        <time>2023-03-30T15:43:26.719Z</time>
      </trkpt>
      <trkpt lat="48.917803" lon="1.969322">
        <ele>130.224028</ele>
        <time>2023-03-30T15:43:26.755Z</time>
      </trkpt>
      <trkpt lat="48.918008" lon="1.969064">
        <ele>131.020976</ele>
        <time>2023-03-30T15:43:33.936Z</time>
      </trkpt>
      <trkpt lat="48.918273" lon="1.968757">
        <ele>131.815390</ele>
        <time>2023-03-30T15:43:42.594Z</time>
      </trkpt>
      <trkpt lat="48.918461" lon="1.968471">
        <ele>132.245930</ele>
        <time>2023-03-30T15:43:49.065Z</time>
      </trkpt>
      <trkpt lat="48.918674" lon="1.967971">
        <ele>132.880112</ele>
        <time>2023-03-30T15:43:57.979Z</time>
      </trkpt>
      <trkpt lat="48.919009" lon="1.967090">
        <ele>133.963414</ele>
        <time>2023-03-30T15:44:11.852Z</time>
      </trkpt>
      <trkpt lat="48.919134" lon="1.966921">
        <ele>134.234222</ele>
        <time>2023-03-30T15:44:14.961Z</time>
      </trkpt>
      <trkpt lat="48.919326" lon="1.966681">
        <ele>134.365180</ele>
        <time>2023-03-30T15:44:19.285Z</time>
      </trkpt>
      <trkpt lat="48.919668" lon="1.966335">
        <ele>133.805894</ele>
        <time>2023-03-30T15:44:25.233Z</time>
      </trkpt>
      <trkpt lat="48.920208" lon="1.965976">
        <ele>133.003381</ele>
        <time>2023-03-30T15:44:32.192Z</time>
      </trkpt>
      <trkpt lat="48.920285" lon="1.965923">
        <ele>132.888291</ele>
        <time>2023-03-30T15:44:33.116Z</time>
      </trkpt>
      <trkpt lat="48.920538" lon="1.965685">
        <ele>132.483228</ele>
        <time>2023-03-30T15:44:36.236Z</time>
      </trkpt>
      <trkpt lat="48.921025" lon="1.964998">
        <ele>131.356817</ele>
        <time>2023-03-30T15:44:42.988Z</time>
      </trkpt>
      <trkpt lat="48.921469" lon="1.964290">
        <ele>130.058929</ele>
        <time>2023-03-30T15:44:49.672Z</time>
      </trkpt>
      <trkpt lat="48.921786" lon="1.963957">
        <ele>129.281551</ele>
        <time>2023-03-30T15:44:54.003Z</time>
      </trkpt>
      <trkpt lat="48.921906" lon="1.963775">
        <ele>128.939637</ele>
        <time>2023-03-30T15:44:56.092Z</time>
      </trkpt>
      <trkpt lat="48.922139" lon="1.963721">
        <ele>128.463976</ele>
        <time>2023-03-30T15:45:00.221Z</time>
      </trkpt>
      <trkpt lat="48.922322" lon="1.963571">
        <ele>128.430987</ele>
        <time>2023-03-30T15:45:04.051Z</time>
      </trkpt>
      <trkpt lat="48.922497" lon="1.963197">
        <ele>128.466522</ele>
        <time>2023-03-30T15:45:10.305Z</time>
      </trkpt>
      <trkpt lat="48.922687" lon="1.962720">
        <ele>128.509692</ele>
        <time>2023-03-30T15:45:17.930Z</time>
      </trkpt>
      <trkpt lat="48.922893" lon="1.962402">
        <ele>128.544253</ele>
        <time>2023-03-30T15:45:24.525Z</time>
      </trkpt>
      <trkpt lat="48.923076" lon="1.962360">
        <ele>128.566051</ele>
        <time>2023-03-30T15:45:28.367Z</time>
      </trkpt>
      <trkpt lat="48.923062" lon="1.962187">
        <ele>128.579542</ele>
        <time>2023-03-30T15:45:30.730Z</time>
      </trkpt>
      <trkpt lat="48.923175" lon="1.961448">
        <ele>128.514294</ele>
        <time>2023-03-30T15:45:39.553Z</time>
      </trkpt>
      <trkpt lat="48.923227" lon="1.960978">
        <ele>128.277945</ele>
        <time>2023-03-30T15:45:44.207Z</time>
      </trkpt>
      <trkpt lat="48.923197" lon="1.960713">
        <ele>128.144597</ele>
        <time>2023-03-30T15:45:46.403Z</time>
      </trkpt>
      <trkpt lat="48.923114" lon="1.960444">
        <ele>127.997227</ele>
        <time>2023-03-30T15:45:48.830Z</time>
      </trkpt>
      <trkpt lat="48.923083" lon="1.959908">
        <ele>127.730402</ele>
        <time>2023-03-30T15:45:52.979Z</time>
      </trkpt>
      <trkpt lat="48.923068" lon="1.959577">
        <ele>127.565872</ele>
        <time>2023-03-30T15:45:55.491Z</time>
      </trkpt>
      <trkpt lat="48.923187" lon="1.959162">
        <ele>127.341334</ele>
        <time>2023-03-30T15:45:58.958Z</time>
      </trkpt>
      <trkpt lat="48.923475" lon="1.958273">
        <ele>125.652772</ele>
        <time>2023-03-30T15:46:06.693Z</time>
      </trkpt>
      <trkpt lat="48.923568" lon="1.957531">
        <ele>124.195829</ele>
        <time>2023-03-30T15:46:12.045Z</time>
      </trkpt>
      <trkpt lat="48.923657" lon="1.956160">
        <ele>121.197165</ele>
        <time>2023-03-30T15:46:20.797Z</time>
      </trkpt>
      <trkpt lat="48.923727" lon="1.955531">
        <ele>119.024007</ele>
        <time>2023-03-30T15:46:24.653Z</time>
      </trkpt>
      <trkpt lat="48.923786" lon="1.954695">
        <ele>116.159856</ele>
        <time>2023-03-30T15:46:29.721Z</time>
      </trkpt>
      <trkpt lat="48.923888" lon="1.953951">
        <ele>113.570901</ele>
        <time>2023-03-30T15:46:34.360Z</time>
      </trkpt>
      <trkpt lat="48.924006" lon="1.953364">
        <ele>112.509153</ele>
        <time>2023-03-30T15:46:38.148Z</time>
      </trkpt>
      <trkpt lat="48.924068" lon="1.953170">
        <ele>112.415443</ele>
        <time>2023-03-30T15:46:39.506Z</time>
      </trkpt>
      <trkpt lat="48.924838" lon="1.950707">
        <ele>112.945353</ele>
        <time>2023-03-30T15:47:10.040Z</time>
      </trkpt>
      <trkpt lat="48.925749" lon="1.947750">
        <ele>121.560722</ele>
        <time>2023-03-30T15:48:26.503Z</time>
      </trkpt>
      <trkpt lat="48.926004" lon="1.947003">
        <ele>123.725507</ele>
        <time>2023-03-30T15:48:43.638Z</time>
      </trkpt>
      <trkpt lat="48.925233" lon="1.944748">
        <ele>128.728125</ele>
        <time>2023-03-30T15:49:32.174Z</time>
      </trkpt>
      <trkpt lat="48.924904" lon="1.944014">
        <ele>130.223592</ele>
        <time>2023-03-30T15:49:49.593Z</time>
      </trkpt>
      <trkpt lat="48.924088" lon="1.943548">
        <ele>134.396997</ele>
        <time>2023-03-30T15:50:21.071Z</time>
      </trkpt>
      <trkpt lat="48.923907" lon="1.943388">
        <ele>135.446488</ele>
        <time>2023-03-30T15:50:28.229Z</time>
      </trkpt>
      <trkpt lat="48.923168" lon="1.942525">
        <ele>140.468768</ele>
        <time>2023-03-30T15:51:04.840Z</time>
      </trkpt>
      <trkpt lat="48.923058" lon="1.942462">
        <ele>141.367660</ele>
        <time>2023-03-30T15:51:10.036Z</time>
      </trkpt>
      <trkpt lat="48.922902" lon="1.942438">
        <ele>142.566847</ele>
        <time>2023-03-30T15:51:17.115Z</time>
      </trkpt>
      <trkpt lat="48.922691" lon="1.942563">
        <ele>144.298552</ele>
        <time>2023-03-30T15:51:27.890Z</time>
      </trkpt>
      <trkpt lat="48.922505" lon="1.942613">
        <ele>145.743122</ele>
        <time>2023-03-30T15:51:37.021Z</time>
      </trkpt>
      <trkpt lat="48.922282" lon="1.942497">
        <ele>147.545527</ele>
        <time>2023-03-30T15:51:48.084Z</time>
      </trkpt>
      <trkpt lat="48.921928" lon="1.942128">
        <ele>150.827139</ele>
        <time>2023-03-30T15:52:08.304Z</time>
      </trkpt>
      <trkpt lat="48.921608" lon="1.941594">
        <ele>154.338920</ele>
        <time>2023-03-30T15:52:30.220Z</time>
      </trkpt>
      <trkpt lat="48.921231" lon="1.940868">
        <ele>158.544024</ele>
        <time>2023-03-30T15:52:58.468Z</time>
      </trkpt>
      <trkpt lat="48.921025" lon="1.940357">
        <ele>161.268415</ele>
        <time>2023-03-30T15:53:16.329Z</time>
      </trkpt>
      <trkpt lat="48.920527" lon="1.938714">
        <ele>167.458272</ele>
        <time>2023-03-30T15:53:59.834Z</time>
      </trkpt>
      <trkpt lat="48.920429" lon="1.938491">
        <ele>168.033485</ele>
        <time>2023-03-30T15:54:04.813Z</time>
      </trkpt>
      <trkpt lat="48.920209" lon="1.938115">
        <ele>169.112955</ele>
        <time>2023-03-30T15:54:13.545Z</time>
      </trkpt>
      <trkpt lat="48.919873" lon="1.937675">
        <ele>170.559345</ele>
        <time>2023-03-30T15:54:24.029Z</time>
      </trkpt>
      <trkpt lat="48.919305" lon="1.937008">
        <ele>171.891881</ele>
        <time>2023-03-30T15:54:42.224Z</time>
      </trkpt>
      <trkpt lat="48.918386" lon="1.936257">
        <ele>172.824173</ele>
        <time>2023-03-30T15:55:05.171Z</time>
      </trkpt>
      <trkpt lat="48.915656" lon="1.934733">
        <ele>175.837172</ele>
        <time>2023-03-30T15:56:16.572Z</time>
      </trkpt>
      <trkpt lat="48.915648" lon="1.934732">
        <ele>175.845366</ele>
        <time>2023-03-30T15:56:16.773Z</time>
      </trkpt>
      <trkpt lat="48.915072" lon="1.934627">
        <ele>176.437589</ele>
        <time>2023-03-30T15:56:31.061Z</time>
      </trkpt>
      <trkpt lat="48.914978" lon="1.933894">
        <ele>176.909015</ele>
        <time>2023-03-30T15:56:40.243Z</time>
      </trkpt>
      <trkpt lat="48.914878" lon="1.933121">
        <ele>177.180725</ele>
        <time>2023-03-30T15:56:49.571Z</time>
      </trkpt>
      <trkpt lat="48.914320" lon="1.928796">
        <ele>178.415071</ele>
        <time>2023-03-30T15:57:36.526Z</time>
      </trkpt>
      <trkpt lat="48.914024" lon="1.927717">
        <ele>178.800944</ele>
        <time>2023-03-30T15:57:49.298Z</time>
      </trkpt>
      <trkpt lat="48.913778" lon="1.926993">
        <ele>179.085070</ele>
        <time>2023-03-30T15:57:58.384Z</time>
      </trkpt>
      <trkpt lat="48.913591" lon="1.925453">
        <ele>179.708472</ele>
        <time>2023-03-30T15:58:16.133Z</time>
      </trkpt>
      <trkpt lat="48.913449" lon="1.924321">
        <ele>180.252849</ele>
        <time>2023-03-30T15:58:29.241Z</time>
      </trkpt>
      <trkpt lat="48.913253" lon="1.922710">
        <ele>181.164587</ele>
        <time>2023-03-30T15:58:49.112Z</time>
      </trkpt>
      <trkpt lat="48.913176" lon="1.922319">
        <ele>181.440140</ele>
        <time>2023-03-30T15:58:54.311Z</time>
      </trkpt>
      <trkpt lat="48.913145" lon="1.921971">
        <ele>181.677217</ele>
        <time>2023-03-30T15:58:58.805Z</time>
      </trkpt>
      <trkpt lat="48.913162" lon="1.921784">
        <ele>181.804660</ele>
        <time>2023-03-30T15:59:01.310Z</time>
      </trkpt>
      <trkpt lat="48.913490" lon="1.920655">
        <ele>182.600757</ele>
        <time>2023-03-30T15:59:16.951Z</time>
      </trkpt>
      <trkpt lat="48.913741" lon="1.919583">
        <ele>183.031731</ele>
        <time>2023-03-30T15:59:30.282Z</time>
      </trkpt>
      <trkpt lat="48.914072" lon="1.918763">
        <ele>183.396172</ele>
        <time>2023-03-30T15:59:40.934Z</time>
      </trkpt>
      <trkpt lat="48.914093" lon="1.918654">
        <ele>183.439188</ele>
        <time>2023-03-30T15:59:42.131Z</time>
      </trkpt>
      <trkpt lat="48.914063" lon="1.918546">
        <ele>183.483592</ele>
        <time>2023-03-30T15:59:43.338Z</time>
      </trkpt>
      <trkpt lat="48.913900" lon="1.918254">
        <ele>183.593381</ele>
        <time>2023-03-30T15:59:47.202Z</time>
      </trkpt>
      <trkpt lat="48.913886" lon="1.918233">
        <ele>183.594460</ele>
        <time>2023-03-30T15:59:47.498Z</time>
      </trkpt>
      <trkpt lat="48.913494" lon="1.917725">
        <ele>183.622697</ele>
        <time>2023-03-30T15:59:54.918Z</time>
      </trkpt>
      <trkpt lat="48.913225" lon="1.917388">
        <ele>183.641805</ele>
        <time>2023-03-30T16:00:00.052Z</time>
      </trkpt>
      <trkpt lat="48.913598" lon="1.916779">
        <ele>183.671808</ele>
        <time>2023-03-30T16:00:08.191Z</time>
      </trkpt>
      <trkpt lat="48.913738" lon="1.916398">
        <ele>183.687540</ele>
        <time>2023-03-30T16:00:12.586Z</time>
      </trkpt>
      <trkpt lat="48.913810" lon="1.915968">
        <ele>183.689056</ele>
        <time>2023-03-30T16:00:17.104Z</time>
      </trkpt>
      <trkpt lat="48.913807" lon="1.915694">
        <ele>183.689542</ele>
        <time>2023-03-30T16:00:19.920Z</time>
      </trkpt>
      <trkpt lat="48.913805" lon="1.915562">
        <ele>183.689776</ele>
        <time>2023-03-30T16:00:21.259Z</time>
      </trkpt>
      <trkpt lat="48.913778" lon="1.914599">
        <ele>183.691485</ele>
        <time>2023-03-30T16:00:30.650Z</time>
      </trkpt>
      <trkpt lat="48.913707" lon="1.911857">
        <ele>183.243103</ele>
        <time>2023-03-30T16:00:56.359Z</time>
      </trkpt>
      <trkpt lat="48.913760" lon="1.910950">
        <ele>183.015393</ele>
        <time>2023-03-30T16:01:03.978Z</time>
      </trkpt>
      <trkpt lat="48.913816" lon="1.910942">
        <ele>182.981384</ele>
        <time>2023-03-30T16:01:04.671Z</time>
      </trkpt>
      <trkpt lat="48.913887" lon="1.910861">
        <ele>182.918776</ele>
        <time>2023-03-30T16:01:05.739Z</time>
      </trkpt>
      <trkpt lat="48.913891" lon="1.910735">
        <ele>182.860286</ele>
        <time>2023-03-30T16:01:06.778Z</time>
      </trkpt>
      <trkpt lat="48.913866" lon="1.910658">
        <ele>182.820465</ele>
        <time>2023-03-30T16:01:07.508Z</time>
      </trkpt>
      <trkpt lat="48.913765" lon="1.910595">
        <ele>182.743452</ele>
        <time>2023-03-30T16:01:08.954Z</time>
      </trkpt>
      <trkpt lat="48.913668" lon="1.909796">
        <ele>182.366715</ele>
        <time>2023-03-30T16:01:15.708Z</time>
      </trkpt>
      <trkpt lat="48.913650" lon="1.909377">
        <ele>182.172024</ele>
        <time>2023-03-30T16:01:19.244Z</time>
      </trkpt>
      <trkpt lat="48.913637" lon="1.908736">
        <ele>181.874672</ele>
        <time>2023-03-30T16:01:24.600Z</time>
      </trkpt>
      <trkpt lat="48.913694" lon="1.908142">
        <ele>181.643070</ele>
        <time>2023-03-30T16:01:29.734Z</time>
      </trkpt>
      <trkpt lat="48.914553" lon="1.903931">
        <ele>180.153547</ele>
        <time>2023-03-30T16:02:08.576Z</time>
      </trkpt>
      <trkpt lat="48.914823" lon="1.902640">
        <ele>179.515102</ele>
        <time>2023-03-30T16:02:19.691Z</time>
      </trkpt>
      <trkpt lat="48.915251" lon="1.900589">
        <ele>178.226947</ele>
        <time>2023-03-30T16:02:36.877Z</time>
      </trkpt>
      <trkpt lat="48.915742" lon="1.898309">
        <ele>177.407819</ele>
        <time>2023-03-30T16:02:57.758Z</time>
      </trkpt>
      <trkpt lat="48.915825" lon="1.897864">
        <ele>177.294208</ele>
        <time>2023-03-30T16:03:01.995Z</time>
      </trkpt>
      <trkpt lat="48.915869" lon="1.897370">
        <ele>177.282359</ele>
        <time>2023-03-30T16:03:06.688Z</time>
      </trkpt>
      <trkpt lat="48.915844" lon="1.896772">
        <ele>177.268117</ele>
        <time>2023-03-30T16:03:12.415Z</time>
      </trkpt>
      <trkpt lat="48.914941" lon="1.890640">
        <ele>177.518262</ele>
        <time>2023-03-30T16:04:14.068Z</time>
      </trkpt>
      <trkpt lat="48.914901" lon="1.890185">
        <ele>177.596926</ele>
        <time>2023-03-30T16:04:19.184Z</time>
      </trkpt>
      <trkpt lat="48.914762" lon="1.887275">
        <ele>179.356833</ele>
        <time>2023-03-30T16:04:55.345Z</time>
      </trkpt>
      <trkpt lat="48.914654" lon="1.884545">
        <ele>181.404368</ele>
        <time>2023-03-30T16:05:30.475Z</time>
      </trkpt>
      <trkpt lat="48.914569" lon="1.882129">
        <ele>182.716905</ele>
        <time>2023-03-30T16:05:59.600Z</time>
      </trkpt>
      <trkpt lat="48.914619" lon="1.881747">
        <ele>182.916519</ele>
        <time>2023-03-30T16:06:04.010Z</time>
      </trkpt>
      <trkpt lat="48.914677" lon="1.881537">
        <ele>182.928275</ele>
        <time>2023-03-30T16:06:06.493Z</time>
      </trkpt>
      <trkpt lat="48.914849" lon="1.881143">
        <ele>182.952684</ele>
        <time>2023-03-30T16:06:11.677Z</time>
      </trkpt>
      <trkpt lat="48.915006" lon="1.880936">
        <ele>182.968997</ele>
        <time>2023-03-30T16:06:15.181Z</time>
      </trkpt>
      <trkpt lat="48.915213" lon="1.880753">
        <ele>182.987795</ele>
        <time>2023-03-30T16:06:19.098Z</time>
      </trkpt>
      <trkpt lat="48.917559" lon="1.879205">
        <ele>181.715044</ele>
        <time>2023-03-30T16:06:53.616Z</time>
      </trkpt>
      <trkpt lat="48.919148" lon="1.878135">
        <ele>176.785622</ele>
        <time>2023-03-30T16:07:11.497Z</time>
      </trkpt>
      <trkpt lat="48.919400" lon="1.877902">
        <ele>175.721891</ele>
        <time>2023-03-30T16:07:14.335Z</time>
      </trkpt>
      <trkpt lat="48.920534" lon="1.876368">
        <ele>168.769637</ele>
        <time>2023-03-30T16:07:28.804Z</time>
      </trkpt>
      <trkpt lat="48.921065" lon="1.875657">
        <ele>165.390720</ele>
        <time>2023-03-30T16:07:35.452Z</time>
      </trkpt>
      <trkpt lat="48.921368" lon="1.875241">
        <ele>163.416594</ele>
        <time>2023-03-30T16:07:39.319Z</time>
      </trkpt>
      <trkpt lat="48.921759" lon="1.874734">
        <ele>160.931627</ele>
        <time>2023-03-30T16:07:44.215Z</time>
      </trkpt>
      <trkpt lat="48.921943" lon="1.874416">
        <ele>159.584748</ele>
        <time>2023-03-30T16:07:46.865Z</time>
      </trkpt>
      <trkpt lat="48.922235" lon="1.873901">
        <ele>157.303427</ele>
        <time>2023-03-30T16:07:51.075Z</time>
      </trkpt>
      <trkpt lat="48.922661" lon="1.873353">
        <ele>154.434329</ele>
        <time>2023-03-30T16:07:56.295Z</time>
      </trkpt>
      <trkpt lat="48.922697" lon="1.873294">
        <ele>154.162205</ele>
        <time>2023-03-30T16:07:56.788Z</time>
      </trkpt>
      <trkpt lat="48.922812" lon="1.872994">
        <ele>152.988342</ele>
        <time>2023-03-30T16:07:58.944Z</time>
      </trkpt>
      <trkpt lat="48.922839" lon="1.872761">
        <ele>152.188703</ele>
        <time>2023-03-30T16:08:00.410Z</time>
      </trkpt>
      <trkpt lat="48.922836" lon="1.872538">
        <ele>151.434857</ele>
        <time>2023-03-30T16:08:01.799Z</time>
      </trkpt>
      <trkpt lat="48.922788" lon="1.872346">
        <ele>150.740560</ele>
        <time>2023-03-30T16:08:03.073Z</time>
      </trkpt>
      <trkpt lat="48.922677" lon="1.872094">
        <ele>149.628167</ele>
        <time>2023-03-30T16:08:04.942Z</time>
      </trkpt>
      <trkpt lat="48.922522" lon="1.871964">
        <ele>148.483462</ele>
        <time>2023-03-30T16:08:06.588Z</time>
      </trkpt>
      <trkpt lat="48.922384" lon="1.871898">
        <ele>147.547837</ele>
        <time>2023-03-30T16:08:07.921Z</time>
      </trkpt>
      <trkpt lat="48.922239" lon="1.871902">
        <ele>146.609819</ele>
        <time>2023-03-30T16:08:09.257Z</time>
      </trkpt>
      <trkpt lat="48.921539" lon="1.872199">
        <ele>141.909538</ele>
        <time>2023-03-30T16:08:15.846Z</time>
      </trkpt>
      <trkpt lat="48.921436" lon="1.872211">
        <ele>141.241382</ele>
        <time>2023-03-30T16:08:16.770Z</time>
      </trkpt>
      <trkpt lat="48.921409" lon="1.872128">
        <ele>140.847762</ele>
        <time>2023-03-30T16:08:17.315Z</time>
      </trkpt>
      <trkpt lat="48.921369" lon="1.872110">
        <ele>140.577968</ele>
        <time>2023-03-30T16:08:17.688Z</time>
      </trkpt>
      <trkpt lat="48.921330" lon="1.872134">
        <ele>140.305872</ele>
        <time>2023-03-30T16:08:18.065Z</time>
      </trkpt>
      <trkpt lat="48.921224" lon="1.871926">
        <ele>139.187141</ele>
        <time>2023-03-30T16:08:19.615Z</time>
      </trkpt>
      <trkpt lat="48.918867" lon="1.867610">
        <ele>110.839944</ele>
        <time>2023-03-30T16:08:52.278Z</time>
      </trkpt>
      <trkpt lat="48.918177" lon="1.866335">
        <ele>103.566265</ele>
        <time>2023-03-30T16:09:02.066Z</time>
      </trkpt>
      <trkpt lat="48.917081" lon="1.864299">
        <ele>92.420789</ele>
        <time>2023-03-30T16:09:17.863Z</time>
      </trkpt>
      <trkpt lat="48.916618" lon="1.863604">
        <ele>88.342268</ele>
        <time>2023-03-30T16:09:23.777Z</time>
      </trkpt>
      <trkpt lat="48.915761" lon="1.862654">
        <ele>81.795880</ele>
        <time>2023-03-30T16:09:33.458Z</time>
      </trkpt>
      <trkpt lat="48.915551" lon="1.862346">
        <ele>80.000123</ele>
        <time>2023-03-30T16:09:36.124Z</time>
      </trkpt>
      <trkpt lat="48.915266" lon="1.861841">
        <ele>77.306778</ele>
        <time>2023-03-30T16:09:40.125Z</time>
      </trkpt>
      <trkpt lat="48.914935" lon="1.861025">
        <ele>73.747867</ele>
        <time>2023-03-30T16:09:45.915Z</time>
      </trkpt>
      <trkpt lat="48.914797" lon="1.860749">
        <ele>72.503495</ele>
        <time>2023-03-30T16:09:48.026Z</time>
      </trkpt>
      <trkpt lat="48.913964" lon="1.859503">
        <ele>66.154512</ele>
        <time>2023-03-30T16:09:58.941Z</time>
      </trkpt>
      <trkpt lat="48.913293" lon="1.858523">
        <ele>61.535470</ele>
        <time>2023-03-30T16:10:07.806Z</time>
      </trkpt>
      <trkpt lat="48.912920" lon="1.858269">
        <ele>59.505994</ele>
        <time>2023-03-30T16:10:11.701Z</time>
      </trkpt>
      <trkpt lat="48.911806" lon="1.857713">
        <ele>53.496528</ele>
        <time>2023-03-30T16:10:22.607Z</time>
      </trkpt>
      <trkpt lat="48.911499" lon="1.857488">
        <ele>51.721526</ele>
        <time>2023-03-30T16:10:25.759Z</time>
      </trkpt>
      <trkpt lat="48.911231" lon="1.857161">
        <ele>49.932095</ele>
        <time>2023-03-30T16:10:28.979Z</time>
      </trkpt>
      <trkpt lat="48.911148" lon="1.857022">
        <ele>49.289157</ele>
        <time>2023-03-30T16:10:30.146Z</time>
      </trkpt>
      <trkpt lat="48.911030" lon="1.856739">
        <ele>48.141779</ele>
        <time>2023-03-30T16:10:32.235Z</time>
      </trkpt>
      <trkpt lat="48.910973" lon="1.856236">
        <ele>46.837793</ele>
        <time>2023-03-30T16:10:35.478Z</time>
      </trkpt>
      <trkpt lat="48.911001" lon="1.856000">
        <ele>46.225246</ele>
        <time>2023-03-30T16:10:37.021Z</time>
      </trkpt>
      <trkpt lat="48.911252" lon="1.855209">
        <ele>43.981675</ele>
        <time>2023-03-30T16:10:42.572Z</time>
      </trkpt>
      <trkpt lat="48.911313" lon="1.855097">
        <ele>43.610137</ele>
        <time>2023-03-30T16:10:43.498Z</time>
      </trkpt>
      <trkpt lat="48.911407" lon="1.854980">
        <ele>43.138154</ele>
        <time>2023-03-30T16:10:44.695Z</time>
      </trkpt>
      <trkpt lat="48.911870" lon="1.854642">
        <ele>41.145519</ele>
        <time>2023-03-30T16:10:49.917Z</time>
      </trkpt>
      <trkpt lat="48.911968" lon="1.854537">
        <ele>40.857694</ele>
        <time>2023-03-30T16:10:51.191Z</time>
      </trkpt>
      <trkpt lat="48.912032" lon="1.854440">
        <ele>40.640770</ele>
        <time>2023-03-30T16:10:52.159Z</time>
      </trkpt>
      <trkpt lat="48.912040" lon="1.854388">
        <ele>40.556484</ele>
        <time>2023-03-30T16:10:52.543Z</time>
      </trkpt>
      <trkpt lat="48.912034" lon="1.854286">
        <ele>40.394862</ele>
        <time>2023-03-30T16:10:53.261Z</time>
      </trkpt>
      <trkpt lat="48.911775" lon="1.853458">
        <ele>38.947629</ele>
        <time>2023-03-30T16:10:59.804Z</time>
      </trkpt>
      <trkpt lat="48.910862" lon="1.853983">
        <ele>36.753231</ele>
        <time>2023-03-30T16:11:10.131Z</time>
      </trkpt>
      <trkpt lat="48.910743" lon="1.854099">
        <ele>36.636656</ele>
        <time>2023-03-30T16:11:11.651Z</time>
      </trkpt>
      <trkpt lat="48.910680" lon="1.853928">
        <ele>36.530381</ele>
        <time>2023-03-30T16:11:13.080Z</time>
      </trkpt>
      <trkpt lat="48.910240" lon="1.853371">
        <ele>36.058252</ele>
        <time>2023-03-30T16:11:20.068Z</time>
      </trkpt>
      <trkpt lat="48.910139" lon="1.853249">
        <ele>35.951879</ele>
        <time>2023-03-30T16:11:21.700Z</time>
      </trkpt>
      <trkpt lat="48.910053" lon="1.853146">
        <ele>35.861601</ele>
        <time>2023-03-30T16:11:23.117Z</time>
      </trkpt>
      <trkpt lat="48.909596" lon="1.852594">
        <ele>35.380297</ele>
        <time>2023-03-30T16:11:31.115Z</time>
      </trkpt>
      <trkpt lat="48.909535" lon="1.852486">
        <ele>35.524510</ele>
        <time>2023-03-30T16:11:32.588Z</time>
      </trkpt>
      <trkpt lat="48.909482" lon="1.852395">
        <ele>35.785245</ele>
        <time>2023-03-30T16:11:34.021Z</time>
      </trkpt>
      <trkpt lat="48.909148" lon="1.851822">
        <ele>37.427615</ele>
        <time>2023-03-30T16:11:44.696Z</time>
      </trkpt>
      <trkpt lat="48.909115" lon="1.851769">
        <ele>37.584172</ele>
        <time>2023-03-30T16:11:45.890Z</time>
      </trkpt>
      <trkpt lat="48.908781" lon="1.851322">
        <ele>39.035513</ele>
        <time>2023-03-30T16:11:58.622Z</time>
      </trkpt>
      <trkpt lat="48.908564" lon="1.851113">
        <ele>39.873456</ele>
        <time>2023-03-30T16:12:07.069Z</time>
      </trkpt>
      <trkpt lat="48.908402" lon="1.850907">
        <ele>40.562314</ele>
        <time>2023-03-30T16:12:14.425Z</time>
      </trkpt>
      <trkpt lat="48.908127" lon="1.850450">
        <ele>42.804710</ele>
        <time>2023-03-30T16:12:29.465Z</time>
      </trkpt>
      <trkpt lat="48.907857" lon="1.850041">
        <ele>45.730977</ele>
        <time>2023-03-30T16:12:46.038Z</time>
      </trkpt>
      <trkpt lat="48.907467" lon="1.849456">
        <ele>49.937293</ele>
        <time>2023-03-30T16:13:13.241Z</time>
      </trkpt>
      <trkpt lat="48.907120" lon="1.849005">
        <ele>53.442445</ele>
        <time>2023-03-30T16:13:36.028Z</time>
      </trkpt>
      <trkpt lat="48.906694" lon="1.848612">
        <ele>56.991441</ele>
        <time>2023-03-30T16:13:59.906Z</time>
      </trkpt>
      <trkpt lat="48.906551" lon="1.848465">
        <ele>58.152698</ele>
        <time>2023-03-30T16:14:07.645Z</time>
      </trkpt>
      <trkpt lat="48.906135" lon="1.848083">
        <ele>61.422187</ele>
        <time>2023-03-30T16:14:28.669Z</time>
      </trkpt>
      <trkpt lat="48.905974" lon="1.847964">
        <ele>62.626591</ele>
        <time>2023-03-30T16:14:35.929Z</time>
      </trkpt>
      <trkpt lat="48.905572" lon="1.847802">
        <ele>65.424817</ele>
        <time>2023-03-30T16:14:53.002Z</time>
      </trkpt>
      <trkpt lat="48.905001" lon="1.847665">
        <ele>68.247523</ele>
        <time>2023-03-30T16:15:13.113Z</time>
      </trkpt>
      <trkpt lat="48.904600" lon="1.847654">
        <ele>69.626323</ele>
        <time>2023-03-30T16:15:24.256Z</time>
      </trkpt>
      <trkpt lat="48.903940" lon="1.847580">
        <ele>71.901454</ele>
        <time>2023-03-30T16:15:41.806Z</time>
      </trkpt>
      <trkpt lat="48.903686" lon="1.847487">
        <ele>72.799601</ele>
        <time>2023-03-30T16:15:48.715Z</time>
      </trkpt>
      <trkpt lat="48.903152" lon="1.847238">
        <ele>73.966654</ele>
        <time>2023-03-30T16:16:02.613Z</time>
      </trkpt>
      <trkpt lat="48.903051" lon="1.847189">
        <ele>74.135523</ele>
        <time>2023-03-30T16:16:04.895Z</time>
      </trkpt>
      <trkpt lat="48.902425" lon="1.846938">
        <ele>75.166750</ele>
        <time>2023-03-30T16:16:18.097Z</time>
      </trkpt>
      <trkpt lat="48.902172" lon="1.846818">
        <ele>75.588895</ele>
        <time>2023-03-30T16:16:22.913Z</time>
      </trkpt>
      <trkpt lat="48.901225" lon="1.846148">
        <ele>77.173869</ele>
        <time>2023-03-30T16:16:42.892Z</time>
      </trkpt>
      <trkpt lat="48.900624" lon="1.845840">
        <ele>78.109859</ele>
        <time>2023-03-30T16:16:55.219Z</time>
      </trkpt>
      <trkpt lat="48.899866" lon="1.845568">
        <ele>79.807134</ele>
        <time>2023-03-30T16:17:13.384Z</time>
      </trkpt>
      <trkpt lat="48.899202" lon="1.845382">
        <ele>82.093792</ele>
        <time>2023-03-30T16:17:32.465Z</time>
      </trkpt>
      <trkpt lat="48.897962" lon="1.845015">
        <ele>86.625732</ele>
        <time>2023-03-30T16:18:11.693Z</time>
      </trkpt>
      <trkpt lat="48.897832" lon="1.844959">
        <ele>87.163657</ele>
        <time>2023-03-30T16:18:15.855Z</time>
      </trkpt>
      <trkpt lat="48.896312" lon="1.843829">
        <ele>93.639922</ele>
        <time>2023-03-30T16:19:07.624Z</time>
      </trkpt>
      <trkpt lat="48.896083" lon="1.843571">
        <ele>94.611931</ele>
        <time>2023-03-30T16:19:16.232Z</time>
      </trkpt>
      <trkpt lat="48.895120" lon="1.842069">
        <ele>98.837364</ele>
        <time>2023-03-30T16:19:54.367Z</time>
      </trkpt>
      <trkpt lat="48.893038" lon="1.839071">
        <ele>103.771465</ele>
        <time>2023-03-30T16:20:54.599Z</time>
      </trkpt>
      <trkpt lat="48.892926" lon="1.838910">
        <ele>104.004806</ele>
        <time>2023-03-30T16:20:57.727Z</time>
      </trkpt>
      <trkpt lat="48.891022" lon="1.837050">
        <ele>107.500485</ele>
        <time>2023-03-30T16:21:44.970Z</time>
      </trkpt>
      <trkpt lat="48.888453" lon="1.832991">
        <ele>114.201515</ele>
        <time>2023-03-30T16:23:07.090Z</time>
      </trkpt>
      <trkpt lat="48.888184" lon="1.832529">
        <ele>114.934156</ele>
        <time>2023-03-30T16:23:16.098Z</time>
      </trkpt>
      <trkpt lat="48.887499" lon="1.831042">
        <ele>117.068171</ele>
        <time>2023-03-30T16:23:42.133Z</time>
      </trkpt>
      <trkpt lat="48.887017" lon="1.829996">
        <ele>118.429232</ele>
        <time>2023-03-30T16:24:00.172Z</time>
      </trkpt>
      <trkpt lat="48.886746" lon="1.829506">
        <ele>119.111512</ele>
        <time>2023-03-30T16:24:09.153Z</time>
      </trkpt>
      <trkpt lat="48.886418" lon="1.829027">
        <ele>119.825363</ele>
        <time>2023-03-30T16:24:18.807Z</time>
      </trkpt>
      <trkpt lat="48.886098" lon="1.828631">
        <ele>120.209613</ele>
        <time>2023-03-30T16:24:27.233Z</time>
      </trkpt>
      <trkpt lat="48.885752" lon="1.828268">
        <ele>120.601118</ele>
        <time>2023-03-30T16:24:35.380Z</time>
      </trkpt>
      <trkpt lat="48.885373" lon="1.827957">
        <ele>121.002223</ele>
        <time>2023-03-30T16:24:43.344Z</time>
      </trkpt>
      <trkpt lat="48.885114" lon="1.827792">
        <ele>121.263763</ele>
        <time>2023-03-30T16:24:48.366Z</time>
      </trkpt>
      <trkpt lat="48.883211" lon="1.826717">
        <ele>121.440315</ele>
        <time>2023-03-30T16:25:18.533Z</time>
      </trkpt>
      <trkpt lat="48.882997" lon="1.826596">
        <ele>121.303301</ele>
        <time>2023-03-30T16:25:21.508Z</time>
      </trkpt>
      <trkpt lat="48.882480" lon="1.826328">
        <ele>120.975515</ele>
        <time>2023-03-30T16:25:28.590Z</time>
      </trkpt>
      <trkpt lat="48.881561" lon="1.825809">
        <ele>120.387211</ele>
        <time>2023-03-30T16:25:41.205Z</time>
      </trkpt>
      <trkpt lat="48.881492" lon="1.825676">
        <ele>120.321848</ele>
        <time>2023-03-30T16:25:42.611Z</time>
      </trkpt>
      <trkpt lat="48.881427" lon="1.825761">
        <ele>120.272035</ele>
        <time>2023-03-30T16:25:43.681Z</time>
      </trkpt>
      <trkpt lat="48.881299" lon="1.825998">
        <ele>120.154849</ele>
        <time>2023-03-30T16:25:47.255Z</time>
      </trkpt>
      <trkpt lat="48.881111" lon="1.826438">
        <ele>119.954350</ele>
        <time>2023-03-30T16:25:53.306Z</time>
      </trkpt>
      <trkpt lat="48.880897" lon="1.826939">
        <ele>119.726074</ele>
        <time>2023-03-30T16:26:00.394Z</time>
      </trkpt>
      <trkpt lat="48.880178" lon="1.828280">
        <ele>119.276824</ele>
        <time>2023-03-30T16:26:22.226Z</time>
      </trkpt>
      <trkpt lat="48.879683" lon="1.829122">
        <ele>119.200684</ele>
        <time>2023-03-30T16:26:36.502Z</time>
      </trkpt>
      <trkpt lat="48.879306" lon="1.829842">
        <ele>119.138637</ele>
        <time>2023-03-30T16:26:48.635Z</time>
      </trkpt>
      <trkpt lat="48.878807" lon="1.830922">
        <ele>119.687865</ele>
        <time>2023-03-30T16:27:08.255Z</time>
      </trkpt>
      <trkpt lat="48.878687" lon="1.831276">
        <ele>119.855350</ele>
        <time>2023-03-30T16:27:14.200Z</time>
      </trkpt>
      <trkpt lat="48.878626" lon="1.831612">
        <ele>120.001938</ele>
        <time>2023-03-30T16:27:19.589Z</time>
      </trkpt>
      <trkpt lat="48.878637" lon="1.832134">
        <ele>120.221575</ele>
        <time>2023-03-30T16:27:27.733Z</time>
      </trkpt>
      <trkpt lat="48.878730" lon="1.832360">
        <ele>120.379507</ele>
        <time>2023-03-30T16:27:31.925Z</time>
      </trkpt>
      <trkpt lat="48.878880" lon="1.832851">
        <ele>120.835439</ele>
        <time>2023-03-30T16:27:40.824Z</time>
      </trkpt>
      <trkpt lat="48.878967" lon="1.833364">
        <ele>121.281595</ele>
        <time>2023-03-30T16:27:49.843Z</time>
      </trkpt>
      <trkpt lat="48.879607" lon="1.838071">
        <ele>125.353958</ele>
        <time>2023-03-30T16:29:10.863Z</time>
      </trkpt>
      <trkpt lat="48.879719" lon="1.839204">
        <ele>126.112638</ele>
        <time>2023-03-30T16:29:29.346Z</time>
      </trkpt>
      <trkpt lat="48.879821" lon="1.840069">
        <ele>126.694559</ele>
        <time>2023-03-30T16:29:43.001Z</time>
      </trkpt>
      <trkpt lat="48.880076" lon="1.841610">
        <ele>127.178665</ele>
        <time>2023-03-30T16:30:06.373Z</time>
      </trkpt>
      <trkpt lat="48.880359" lon="1.843186">
        <ele>127.482096</ele>
        <time>2023-03-30T16:30:28.865Z</time>
      </trkpt>
      <trkpt lat="48.880526" lon="1.844334">
        <ele>127.329287</ele>
        <time>2023-03-30T16:30:44.302Z</time>
      </trkpt>
      <trkpt lat="48.880753" lon="1.846957">
        <ele>126.674682</ele>
        <time>2023-03-30T16:31:16.936Z</time>
      </trkpt>
      <trkpt lat="48.880794" lon="1.847790">
        <ele>126.378019</ele>
        <time>2023-03-30T16:31:26.876Z</time>
      </trkpt>
      <trkpt lat="48.880758" lon="1.849199">
        <ele>125.940377</ele>
        <time>2023-03-30T16:31:43.719Z</time>
      </trkpt>
      <trkpt lat="48.880843" lon="1.850838">
        <ele>125.473062</ele>
        <time>2023-03-30T16:32:04.148Z</time>
      </trkpt>
      <trkpt lat="48.880905" lon="1.851533">
        <ele>125.375365</ele>
        <time>2023-03-30T16:32:13.272Z</time>
      </trkpt>
      <trkpt lat="48.880921" lon="1.851674">
        <ele>125.363738</ele>
        <time>2023-03-30T16:32:15.108Z</time>
      </trkpt>
      <trkpt lat="48.881032" lon="1.853080">
        <ele>125.248672</ele>
        <time>2023-03-30T16:32:33.803Z</time>
      </trkpt>
      <trkpt lat="48.881073" lon="1.854693">
        <ele>124.893473</ele>
        <time>2023-03-30T16:32:54.445Z</time>
      </trkpt>
      <trkpt lat="48.881054" lon="1.855540">
        <ele>124.622438</ele>
        <time>2023-03-30T16:33:04.635Z</time>
      </trkpt>
      <trkpt lat="48.880963" lon="1.857313">
        <ele>123.737600</ele>
        <time>2023-03-30T16:33:25.947Z</time>
      </trkpt>
      <trkpt lat="48.880924" lon="1.858338">
        <ele>123.018224</ele>
        <time>2023-03-30T16:33:37.809Z</time>
      </trkpt>
      <trkpt lat="48.880842" lon="1.858558">
        <ele>122.841042</ele>
        <time>2023-03-30T16:33:40.615Z</time>
      </trkpt>
      <trkpt lat="48.880806" lon="1.858578">
        <ele>122.800206</ele>
        <time>2023-03-30T16:33:41.260Z</time>
      </trkpt>
      <trkpt lat="48.880779" lon="1.858651">
        <ele>122.741524</ele>
        <time>2023-03-30T16:33:42.182Z</time>
      </trkpt>
      <trkpt lat="48.880779" lon="1.858681">
        <ele>122.720504</ele>
        <time>2023-03-30T16:33:42.501Z</time>
      </trkpt>
      <trkpt lat="48.880829" lon="1.858764">
        <ele>122.641638</ele>
        <time>2023-03-30T16:33:43.695Z</time>
      </trkpt>
      <trkpt lat="48.880967" lon="1.859001">
        <ele>122.419844</ele>
        <time>2023-03-30T16:33:47.100Z</time>
      </trkpt>
      <trkpt lat="48.881067" lon="1.859150">
        <ele>122.078632</ele>
        <time>2023-03-30T16:33:49.359Z</time>
      </trkpt>
      <trkpt lat="48.881530" lon="1.859689">
        <ele>120.554250</ele>
        <time>2023-03-30T16:33:58.509Z</time>
      </trkpt>
      <trkpt lat="48.881919" lon="1.860092">
        <ele>119.323725</ele>
        <time>2023-03-30T16:34:05.442Z</time>
      </trkpt>
      <trkpt lat="48.882023" lon="1.860218">
        <ele>118.976101</ele>
        <time>2023-03-30T16:34:07.369Z</time>
      </trkpt>
      <trkpt lat="48.882050" lon="1.860315">
        <ele>118.795019</ele>
        <time>2023-03-30T16:34:08.354Z</time>
      </trkpt>
      <trkpt lat="48.882067" lon="1.860383">
        <ele>118.669953</ele>
        <time>2023-03-30T16:34:09.040Z</time>
      </trkpt>
      <trkpt lat="48.882164" lon="1.860929">
        <ele>117.697106</ele>
        <time>2023-03-30T16:34:14.400Z</time>
      </trkpt>
      <trkpt lat="48.882208" lon="1.861266">
        <ele>117.002403</ele>
        <time>2023-03-30T16:34:17.711Z</time>
      </trkpt>
      <trkpt lat="48.882250" lon="1.861642">
        <ele>116.231255</ele>
        <time>2023-03-30T16:34:21.431Z</time>
      </trkpt>
      <trkpt lat="48.882492" lon="1.861659">
        <ele>115.486380</ele>
        <time>2023-03-30T16:34:25.101Z</time>
      </trkpt>
      <trkpt lat="48.882606" lon="1.861653">
        <ele>115.135652</ele>
        <time>2023-03-30T16:34:26.799Z</time>
      </trkpt>
      <trkpt lat="48.882943" lon="1.861543">
        <ele>114.075869</ele>
        <time>2023-03-30T16:34:31.924Z</time>
      </trkpt>
      <trkpt lat="48.882988" lon="1.861501">
        <ele>113.913525</ele>
        <time>2023-03-30T16:34:32.710Z</time>
      </trkpt>
      <trkpt lat="48.883035" lon="1.861458">
        <ele>113.744875</ele>
        <time>2023-03-30T16:34:33.555Z</time>
      </trkpt>
      <trkpt lat="48.883079" lon="1.861290">
        <ele>113.379241</ele>
        <time>2023-03-30T16:34:35.285Z</time>
      </trkpt>
      <trkpt lat="48.883146" lon="1.860735">
        <ele>112.238319</ele>
        <time>2023-03-30T16:34:40.627Z</time>
      </trkpt>
      <trkpt lat="48.883159" lon="1.860292">
        <ele>111.194713</ele>
        <time>2023-03-30T16:34:44.771Z</time>
      </trkpt>
      <trkpt lat="48.883195" lon="1.859847">
        <ele>110.127350</ele>
        <time>2023-03-30T16:34:49.038Z</time>
      </trkpt>
      <trkpt lat="48.883334" lon="1.859767">
        <ele>109.589310</ele>
        <time>2023-03-30T16:34:51.207Z</time>
      </trkpt>
      <trkpt lat="48.883502" lon="1.859592">
        <ele>108.852115</ele>
        <time>2023-03-30T16:34:54.305Z</time>
      </trkpt>
      <trkpt lat="48.883763" lon="1.859169">
        <ele>107.471241</ele>
        <time>2023-03-30T16:35:00.018Z</time>
      </trkpt>
      <trkpt lat="48.883983" lon="1.859000">
        <ele>106.578953</ele>
        <time>2023-03-30T16:35:03.513Z</time>
      </trkpt>
      <trkpt lat="48.884191" lon="1.858815">
        <ele>105.706620</ele>
        <time>2023-03-30T16:35:06.800Z</time>
      </trkpt>
      <trkpt lat="48.884292" lon="1.858675">
        <ele>104.874667</ele>
        <time>2023-03-30T16:35:08.648Z</time>
      </trkpt>
      <trkpt lat="48.884364" lon="1.858507">
        <ele>104.037196</ele>
        <time>2023-03-30T16:35:10.395Z</time>
      </trkpt>
      <trkpt lat="48.884431" lon="1.858258">
        <ele>102.913615</ele>
        <time>2023-03-30T16:35:12.690Z</time>
      </trkpt>
      <trkpt lat="48.884505" lon="1.857649">
        <ele>100.327214</ele>
        <time>2023-03-30T16:35:17.965Z</time>
      </trkpt>
      <trkpt lat="48.884560" lon="1.857447">
        <ele>99.414153</ele>
        <time>2023-03-30T16:35:19.813Z</time>
      </trkpt>
      <trkpt lat="48.884634" lon="1.857305">
        <ele>98.657479</ele>
        <time>2023-03-30T16:35:21.349Z</time>
      </trkpt>
      <trkpt lat="48.884737" lon="1.857190">
        <ele>97.845957</ele>
        <time>2023-03-30T16:35:22.989Z</time>
      </trkpt>
      <trkpt lat="48.884846" lon="1.857131">
        <ele>97.111159</ele>
        <time>2023-03-30T16:35:24.487Z</time>
      </trkpt>
      <trkpt lat="48.884947" lon="1.857106">
        <ele>96.461270</ele>
        <time>2023-03-30T16:35:25.797Z</time>
      </trkpt>
      <trkpt lat="48.885062" lon="1.857125">
        <ele>95.726612</ele>
        <time>2023-03-30T16:35:27.297Z</time>
      </trkpt>
      <trkpt lat="48.885201" lon="1.857215">
        <ele>94.767145</ele>
        <time>2023-03-30T16:35:29.242Z</time>
      </trkpt>
      <trkpt lat="48.885313" lon="1.857368">
        <ele>93.762692</ele>
        <time>2023-03-30T16:35:31.173Z</time>
      </trkpt>
      <trkpt lat="48.885374" lon="1.857535">
        <ele>92.874183</ele>
        <time>2023-03-30T16:35:32.772Z</time>
      </trkpt>
      <trkpt lat="48.885417" lon="1.857738">
        <ele>91.882249</ele>
        <time>2023-03-30T16:35:34.545Z</time>
      </trkpt>
      <trkpt lat="48.885559" lon="1.859060">
        <ele>85.652129</ele>
        <time>2023-03-30T16:35:45.700Z</time>
      </trkpt>
      <trkpt lat="48.885638" lon="1.859478">
        <ele>83.629307</ele>
        <time>2023-03-30T16:35:49.375Z</time>
      </trkpt>
      <trkpt lat="48.885663" lon="1.859566">
        <ele>83.183455</ele>
        <time>2023-03-30T16:35:50.187Z</time>
      </trkpt>
      <trkpt lat="48.885797" lon="1.860032">
        <ele>80.866967</ele>
        <time>2023-03-30T16:35:54.553Z</time>
      </trkpt>
      <trkpt lat="48.885894" lon="1.860491">
        <ele>78.782648</ele>
        <time>2023-03-30T16:35:58.724Z</time>
      </trkpt>
      <trkpt lat="48.886008" lon="1.860855">
        <ele>77.039624</ele>
        <time>2023-03-30T16:36:02.222Z</time>
      </trkpt>
      <trkpt lat="48.886138" lon="1.861201">
        <ele>75.316831</ele>
        <time>2023-03-30T16:36:05.676Z</time>
      </trkpt>
      <trkpt lat="48.886398" lon="1.861693">
        <ele>72.588055</ele>
        <time>2023-03-30T16:36:11.140Z</time>
      </trkpt>
      <trkpt lat="48.887588" lon="1.864134">
        <ele>56.968509</ele>
        <time>2023-03-30T16:36:36.216Z</time>
      </trkpt>
      <trkpt lat="48.887797" lon="1.864558">
        <ele>54.262224</ele>
        <time>2023-03-30T16:36:40.518Z</time>
      </trkpt>
      <trkpt lat="48.887863" lon="1.864812">
        <ele>53.030745</ele>
        <time>2023-03-30T16:36:42.742Z</time>
      </trkpt>
      <trkpt lat="48.887937" lon="1.865409">
        <ele>50.291442</ele>
        <time>2023-03-30T16:36:47.758Z</time>
      </trkpt>
      <trkpt lat="48.888001" lon="1.865616">
        <ele>49.260041</ele>
        <time>2023-03-30T16:36:49.664Z</time>
      </trkpt>
      <trkpt lat="48.888089" lon="1.865781">
        <ele>48.302085</ele>
        <time>2023-03-30T16:36:51.433Z</time>
      </trkpt>
      <trkpt lat="48.888201" lon="1.865902">
        <ele>47.359986</ele>
        <time>2023-03-30T16:36:53.176Z</time>
      </trkpt>
      <trkpt lat="48.888315" lon="1.865967">
        <ele>46.525099</ele>
        <time>2023-03-30T16:36:54.776Z</time>
      </trkpt>
      <trkpt lat="48.889102" lon="1.866082">
        <ele>42.233732</ele>
        <time>2023-03-30T16:37:05.359Z</time>
      </trkpt>
      <trkpt lat="48.889180" lon="1.866175">
        <ele>42.047345</ele>
        <time>2023-03-30T16:37:06.773Z</time>
      </trkpt>
      <trkpt lat="48.889197" lon="1.866257">
        <ele>41.941030</ele>
        <time>2023-03-30T16:37:07.571Z</time>
      </trkpt>
      <trkpt lat="48.891199" lon="1.866257">
        <ele>38.970069</ele>
        <time>2023-03-30T16:37:32.611Z</time>
      </trkpt>
      <trkpt lat="48.892349" lon="1.866247">
        <ele>38.365171</ele>
        <time>2023-03-30T16:37:48.061Z</time>
      </trkpt>
      <trkpt lat="48.893823" lon="1.866235">
        <ele>38.413729</ele>
        <time>2023-03-30T16:38:09.093Z</time>
      </trkpt>
      <trkpt lat="48.893993" lon="1.866262">
        <ele>38.423591</ele>
        <time>2023-03-30T16:38:11.939Z</time>
      </trkpt>
      <trkpt lat="48.894168" lon="1.866337">
        <ele>38.434081</ele>
        <time>2023-03-30T16:38:15.149Z</time>
      </trkpt>
      <trkpt lat="48.894337" lon="1.866502">
        <ele>38.722346</ele>
        <time>2023-03-30T16:38:18.747Z</time>
      </trkpt>
      <trkpt lat="48.894448" lon="1.866769">
        <ele>39.079604</ele>
        <time>2023-03-30T16:38:22.753Z</time>
      </trkpt>
      <trkpt lat="48.894504" lon="1.866937">
        <ele>39.292622</ele>
        <time>2023-03-30T16:38:25.228Z</time>
      </trkpt>
      <trkpt lat="48.894650" lon="1.867373">
        <ele>39.845974</ele>
        <time>2023-03-30T16:38:32.269Z</time>
      </trkpt>
      <trkpt lat="48.894726" lon="1.867603">
        <ele>40.137088</ele>
        <time>2023-03-30T16:38:36.111Z</time>
      </trkpt>
      <trkpt lat="48.894894" lon="1.868178">
        <ele>40.848681</ele>
        <time>2023-03-30T16:38:45.839Z</time>
      </trkpt>
      <trkpt lat="48.894979" lon="1.868649">
        <ele>41.401040</ele>
        <time>2023-03-30T16:38:53.502Z</time>
      </trkpt>
      <trkpt lat="48.895009" lon="1.869047">
        <ele>42.220677</ele>
        <time>2023-03-30T16:38:59.698Z</time>
      </trkpt>
      <trkpt lat="48.895027" lon="1.869271">
        <ele>42.764571</ele>
        <time>2023-03-30T16:39:03.475Z</time>
      </trkpt>
      <trkpt lat="48.895036" lon="1.869343">
        <ele>42.941211</ele>
        <time>2023-03-30T16:39:04.682Z</time>
      </trkpt>
      <trkpt lat="48.895060" lon="1.869550">
        <ele>43.447813</ele>
        <time>2023-03-30T16:39:08.104Z</time>
      </trkpt>
      <trkpt lat="48.895026" lon="1.869603">
        <ele>43.626287</ele>
        <time>2023-03-30T16:39:09.262Z</time>
      </trkpt>
      <trkpt lat="48.895028" lon="1.869689">
        <ele>43.833691</ele>
        <time>2023-03-30T16:39:10.731Z</time>
      </trkpt>
      <trkpt lat="48.895036" lon="1.869707">
        <ele>43.886057</ele>
        <time>2023-03-30T16:39:11.109Z</time>
      </trkpt>
      <trkpt lat="48.895059" lon="1.869734">
        <ele>43.992565</ele>
        <time>2023-03-30T16:39:11.889Z</time>
      </trkpt>
      <trkpt lat="48.894997" lon="1.869906">
        <ele>44.465334</ele>
        <time>2023-03-30T16:39:15.235Z</time>
      </trkpt>
      <trkpt lat="48.895014" lon="1.870139">
        <ele>45.030350</ele>
        <time>2023-03-30T16:39:19.203Z</time>
      </trkpt>
      <trkpt lat="48.895053" lon="1.870597">
        <ele>46.143424</ele>
        <time>2023-03-30T16:39:28.032Z</time>
      </trkpt>
      <trkpt lat="48.895068" lon="1.870760">
        <ele>46.540110</ele>
        <time>2023-03-30T16:39:31.424Z</time>
      </trkpt>
      <trkpt lat="48.895081" lon="1.870900">
        <ele>46.880881</ele>
        <time>2023-03-30T16:39:34.468Z</time>
      </trkpt>
      <trkpt lat="48.895124" lon="1.870993">
        <ele>47.154907</ele>
        <time>2023-03-30T16:39:37.113Z</time>
      </trkpt>
      <trkpt lat="48.895214" lon="1.871013">
        <ele>47.488348</ele>
        <time>2023-03-30T16:39:40.269Z</time>
      </trkpt>
      <trkpt lat="48.895658" lon="1.870691">
        <ele>50.730773</ele>
        <time>2023-03-30T16:39:59.556Z</time>
      </trkpt>
      <trkpt lat="48.895750" lon="1.870672">
        <ele>51.490603</ele>
        <time>2023-03-30T16:40:03.459Z</time>
      </trkpt>
      <trkpt lat="48.895881" lon="1.870758">
        <ele>52.658289</ele>
        <time>2023-03-30T16:40:09.736Z</time>
      </trkpt>
      <trkpt lat="48.896016" lon="1.870957">
        <ele>54.196805</ele>
        <time>2023-03-30T16:40:18.114Z</time>
      </trkpt>
      <trkpt lat="48.896499" lon="1.871658">
        <ele>59.660316</ele>
        <time>2023-03-30T16:40:50.924Z</time>
      </trkpt>
      <trkpt lat="48.896617" lon="1.871849">
        <ele>61.070499</ele>
        <time>2023-03-30T16:41:00.316Z</time>
      </trkpt>
      <trkpt lat="48.896676" lon="1.871995">
        <ele>61.992556</ele>
        <time>2023-03-30T16:41:06.337Z</time>
      </trkpt>
      <trkpt lat="48.896840" lon="1.872809">
        <ele>68.061882</ele>
        <time>2023-03-30T16:41:39.740Z</time>
      </trkpt>
      <trkpt lat="48.896987" lon="1.873401">
        <ele>72.825768</ele>
        <time>2023-03-30T16:42:06.468Z</time>
      </trkpt>
      <trkpt lat="48.897180" lon="1.873919">
        <ele>77.307990</ele>
        <time>2023-03-30T16:42:31.702Z</time>
      </trkpt>
      <trkpt lat="48.897206" lon="1.873980">
        <ele>77.855265</ele>
        <time>2023-03-30T16:42:34.608Z</time>
      </trkpt>
      <trkpt lat="48.897395" lon="1.874187">
        <ele>80.522122</ele>
        <time>2023-03-30T16:42:49.297Z</time>
      </trkpt>
      <trkpt lat="48.898372" lon="1.874813">
        <ele>90.652340</ele>
        <time>2023-03-30T16:43:50.225Z</time>
      </trkpt>
      <trkpt lat="48.898899" lon="1.875270">
        <ele>96.085153</ele>
        <time>2023-03-30T16:44:21.106Z</time>
      </trkpt>
      <trkpt lat="48.899122" lon="1.875603">
        <ele>98.883790</ele>
        <time>2023-03-30T16:44:34.856Z</time>
      </trkpt>
      <trkpt lat="48.899790" lon="1.877096">
        <ele>103.695562</ele>
        <time>2023-03-30T16:45:13.238Z</time>
      </trkpt>
      <trkpt lat="48.900153" lon="1.877785">
        <ele>105.858343</ele>
        <time>2023-03-30T16:45:26.328Z</time>
      </trkpt>
      <trkpt lat="48.900439" lon="1.878152">
        <ele>106.620531</ele>
        <time>2023-03-30T16:45:34.153Z</time>
      </trkpt>
      <trkpt lat="48.901496" lon="1.879376">
        <ele>108.449249</ele>
        <time>2023-03-30T16:46:00.669Z</time>
      </trkpt>
      <trkpt lat="48.904667" lon="1.882984">
        <ele>112.599278</ele>
        <time>2023-03-30T16:47:18.118Z</time>
      </trkpt>
      <trkpt lat="48.903950" lon="1.884636">
        <ele>111.591923</ele>
        <time>2023-03-30T16:47:41.721Z</time>
      </trkpt>
      <trkpt lat="48.903411" lon="1.886052">
        <ele>109.525518</ele>
        <time>2023-03-30T16:47:58.173Z</time>
      </trkpt>
      <trkpt lat="48.903130" lon="1.886507">
        <ele>108.523106</ele>
        <time>2023-03-30T16:48:04.237Z</time>
      </trkpt>
      <trkpt lat="48.902581" lon="1.887717">
        <ele>106.806561</ele>
        <time>2023-03-30T16:48:18.818Z</time>
      </trkpt>
      <trkpt lat="48.902478" lon="1.888116">
        <ele>106.689702</ele>
        <time>2023-03-30T16:48:23.332Z</time>
      </trkpt>
      <trkpt lat="48.902419" lon="1.889251">
        <ele>106.379321</ele>
        <time>2023-03-30T16:48:37.349Z</time>
      </trkpt>
      <trkpt lat="48.902344" lon="1.889590">
        <ele>106.281811</ele>
        <time>2023-03-30T16:48:43.178Z</time>
      </trkpt>
      <trkpt lat="48.902174" lon="1.890046">
        <ele>106.475269</ele>
        <time>2023-03-30T16:48:52.858Z</time>
      </trkpt>
      <trkpt lat="48.902063" lon="1.890251">
        <ele>106.858423</ele>
        <time>2023-03-30T16:48:58.285Z</time>
      </trkpt>
      <trkpt lat="48.900883" lon="1.891573">
        <ele>110.074613</ele>
        <time>2023-03-30T16:49:44.328Z</time>
      </trkpt>
      <trkpt lat="48.897722" lon="1.895995">
        <ele>111.121883</ele>
        <time>2023-03-30T16:51:13.233Z</time>
      </trkpt>
      <trkpt lat="48.895807" lon="1.899605">
        <ele>111.099556</ele>
        <time>2023-03-30T16:52:14.104Z</time>
      </trkpt>
      <trkpt lat="48.894853" lon="1.901402">
        <ele>111.416538</ele>
        <time>2023-03-30T16:52:46.745Z</time>
      </trkpt>
      <trkpt lat="48.894593" lon="1.901919">
        <ele>111.446852</ele>
        <time>2023-03-30T16:52:55.576Z</time>
      </trkpt>
      <trkpt lat="48.894235" lon="1.902803">
        <ele>111.438767</ele>
        <time>2023-03-30T16:53:09.096Z</time>
      </trkpt>
      <trkpt lat="48.894057" lon="1.903288">
        <ele>111.434442</ele>
        <time>2023-03-30T16:53:16.038Z</time>
      </trkpt>
      <trkpt lat="48.893137" lon="1.905188">
        <ele>112.257305</ele>
        <time>2023-03-30T16:53:48.365Z</time>
      </trkpt>
      <trkpt lat="48.893057" lon="1.905342">
        <ele>112.357412</ele>
        <time>2023-03-30T16:53:51.479Z</time>
      </trkpt>
      <trkpt lat="48.891909" lon="1.907587">
        <ele>115.509739</ele>
        <time>2023-03-30T16:54:42.881Z</time>
      </trkpt>
      <trkpt lat="48.891231" lon="1.908853">
        <ele>118.297984</ele>
        <time>2023-03-30T16:55:16.399Z</time>
      </trkpt>
      <trkpt lat="48.890721" lon="1.909410">
        <ele>120.222695</ele>
        <time>2023-03-30T16:55:37.077Z</time>
      </trkpt>
      <trkpt lat="48.889372" lon="1.910522">
        <ele>124.586787</ele>
        <time>2023-03-30T16:56:28.223Z</time>
      </trkpt>
      <trkpt lat="48.889305" lon="1.910577">
        <ele>124.791676</ele>
        <time>2023-03-30T16:56:30.666Z</time>
      </trkpt>
      <trkpt lat="48.888718" lon="1.911146">
        <ele>126.664899</ele>
        <time>2023-03-30T16:56:47.748Z</time>
      </trkpt>
      <trkpt lat="48.888200" lon="1.911915">
        <ele>127.210684</ele>
        <time>2023-03-30T16:57:02.712Z</time>
      </trkpt>
      <trkpt lat="48.887425" lon="1.913294">
        <ele>127.653200</ele>
        <time>2023-03-30T16:57:20.043Z</time>
      </trkpt>
      <trkpt lat="48.886875" lon="1.914055">
        <ele>126.414099</ele>
        <time>2023-03-30T16:57:28.589Z</time>
      </trkpt>
      <trkpt lat="48.886705" lon="1.914054">
        <ele>126.130128</ele>
        <time>2023-03-30T16:57:31.293Z</time>
      </trkpt>
      <trkpt lat="48.886679" lon="1.914108">
        <ele>126.056614</ele>
        <time>2023-03-30T16:57:31.778Z</time>
      </trkpt>
      <trkpt lat="48.886631" lon="1.914210">
        <ele>125.918844</ele>
        <time>2023-03-30T16:57:32.688Z</time>
      </trkpt>
      <trkpt lat="48.886625" lon="1.914369">
        <ele>125.743915</ele>
        <time>2023-03-30T16:57:33.844Z</time>
      </trkpt>
      <trkpt lat="48.886621" lon="1.914462">
        <ele>125.641547</ele>
        <time>2023-03-30T16:57:34.517Z</time>
      </trkpt>
      <trkpt lat="48.886617" lon="1.914605">
        <ele>125.484337</ele>
        <time>2023-03-30T16:57:35.539Z</time>
      </trkpt>
      <trkpt lat="48.886610" lon="1.915734">
        <ele>124.164608</ele>
        <time>2023-03-30T16:57:43.545Z</time>
      </trkpt>
      <trkpt lat="48.886457" lon="1.920157">
        <ele>118.978619</ele>
        <time>2023-03-30T16:58:15.674Z</time>
      </trkpt>
      <trkpt lat="48.886450" lon="1.920376">
        <ele>118.757957</ele>
        <time>2023-03-30T16:58:17.453Z</time>
      </trkpt>
      <trkpt lat="48.886430" lon="1.920990">
        <ele>118.313739</ele>
        <time>2023-03-30T16:58:22.500Z</time>
      </trkpt>
      <trkpt lat="48.886362" lon="1.923157">
        <ele>118.478707</ele>
        <time>2023-03-30T16:58:44.454Z</time>
      </trkpt>
      <trkpt lat="48.886359" lon="1.923298">
        <ele>118.489435</ele>
        <time>2023-03-30T16:58:46.072Z</time>
      </trkpt>
      <trkpt lat="48.886297" lon="1.925091">
        <ele>119.684171</ele>
        <time>2023-03-30T16:59:08.180Z</time>
      </trkpt>
      <trkpt lat="48.886261" lon="1.925406">
        <ele>119.929349</ele>
        <time>2023-03-30T16:59:12.242Z</time>
      </trkpt>
      <trkpt lat="48.886401" lon="1.925534">
        <ele>120.119852</ele>
        <time>2023-03-30T16:59:15.592Z</time>
      </trkpt>
      <trkpt lat="48.887172" lon="1.926625">
        <ele>122.065743</ele>
        <time>2023-03-30T16:59:38.674Z</time>
      </trkpt>
      <trkpt lat="48.887361" lon="1.926808">
        <ele>122.580141</ele>
        <time>2023-03-30T16:59:43.820Z</time>
      </trkpt>
      <trkpt lat="48.889631" lon="1.928711">
        <ele>129.400885</ele>
        <time>2023-03-30T17:01:04.230Z</time>
      </trkpt>
      <trkpt lat="48.890047" lon="1.929050">
        <ele>131.266843</ele>
        <time>2023-03-30T17:01:20.078Z</time>
      </trkpt>
      <trkpt lat="48.890278" lon="1.929287">
        <ele>132.509564</ele>
        <time>2023-03-30T17:01:29.754Z</time>
      </trkpt>
      <trkpt lat="48.891635" lon="1.930773">
        <ele>140.790690</ele>
        <time>2023-03-30T17:02:37.409Z</time>
      </trkpt>
      <trkpt lat="48.891766" lon="1.930980">
        <ele>141.958499</ele>
        <time>2023-03-30T17:02:46.197Z</time>
      </trkpt>
      <trkpt lat="48.891968" lon="1.931447">
        <ele>144.230616</ele>
        <time>2023-03-30T17:03:03.148Z</time>
      </trkpt>
      <trkpt lat="48.892201" lon="1.932323">
        <ele>148.071525</ele>
        <time>2023-03-30T17:03:32.459Z</time>
      </trkpt>
      <trkpt lat="48.892292" lon="1.932492">
        <ele>148.959155</ele>
        <time>2023-03-30T17:03:39.333Z</time>
      </trkpt>
      <trkpt lat="48.892557" lon="1.932572">
        <ele>150.556819</ele>
        <time>2023-03-30T17:03:52.313Z</time>
      </trkpt>
      <trkpt lat="48.892695" lon="1.932497">
        <ele>151.423424</ele>
        <time>2023-03-30T17:03:59.124Z</time>
      </trkpt>
      <trkpt lat="48.892801" lon="1.932405">
        <ele>152.145138</ele>
        <time>2023-03-30T17:04:04.715Z</time>
      </trkpt>
      <trkpt lat="48.893011" lon="1.932052">
        <ele>153.996036</ele>
        <time>2023-03-30T17:04:18.498Z</time>
      </trkpt>
      <trkpt lat="48.893202" lon="1.931871">
        <ele>155.326815</ele>
        <time>2023-03-30T17:04:27.972Z</time>
      </trkpt>
      <trkpt lat="48.893443" lon="1.931971">
        <ele>156.804065</ele>
        <time>2023-03-30T17:04:38.295Z</time>
      </trkpt>
      <trkpt lat="48.893659" lon="1.932234">
        <ele>158.440258</ele>
        <time>2023-03-30T17:04:49.709Z</time>
      </trkpt>
      <trkpt lat="48.893720" lon="1.932438">
        <ele>159.311573</ele>
        <time>2023-03-30T17:04:55.832Z</time>
      </trkpt>
      <trkpt lat="48.893756" lon="1.932690">
        <ele>160.340936</ele>
        <time>2023-03-30T17:05:02.992Z</time>
      </trkpt>
      <trkpt lat="48.893570" lon="1.933503">
        <ele>163.811324</ele>
        <time>2023-03-30T17:05:27.392Z</time>
      </trkpt>
      <trkpt lat="48.893648" lon="1.933891">
        <ele>165.447040</ele>
        <time>2023-03-30T17:05:39.264Z</time>
      </trkpt>
      <trkpt lat="48.893891" lon="1.934467">
        <ele>168.206142</ele>
        <time>2023-03-30T17:05:59.815Z</time>
      </trkpt>
      <trkpt lat="48.894048" lon="1.934935">
        <ele>170.324298</ele>
        <time>2023-03-30T17:06:16.238Z</time>
      </trkpt>
      <trkpt lat="48.894047" lon="1.935368">
        <ele>172.128018</ele>
        <time>2023-03-30T17:06:29.781Z</time>
      </trkpt>
      <trkpt lat="48.893994" lon="1.935821">
        <ele>174.057231</ele>
        <time>2023-03-30T17:06:44.394Z</time>
      </trkpt>
      <trkpt lat="48.894006" lon="1.935978">
        <ele>174.719946</ele>
        <time>2023-03-30T17:06:49.394Z</time>
      </trkpt>
      <trkpt lat="48.894043" lon="1.936110">
        <ele>175.321607</ele>
        <time>2023-03-30T17:06:54.142Z</time>
      </trkpt>
      <trkpt lat="48.894185" lon="1.936324">
        <ele>176.596443</ele>
        <time>2023-03-30T17:07:03.531Z</time>
      </trkpt>
      <trkpt lat="48.894315" lon="1.936422">
        <ele>177.521749</ele>
        <time>2023-03-30T17:07:10.564Z</time>
      </trkpt>
      <trkpt lat="48.894697" lon="1.936518">
        <ele>179.990960</ele>
        <time>2023-03-30T17:07:28.418Z</time>
      </trkpt>
      <trkpt lat="48.894878" lon="1.936510">
        <ele>181.145764</ele>
        <time>2023-03-30T17:07:36.137Z</time>
      </trkpt>
      <trkpt lat="48.895179" lon="1.936470">
        <ele>182.544961</ele>
        <time>2023-03-30T17:07:48.711Z</time>
      </trkpt>
      <trkpt lat="48.895527" lon="1.936524">
        <ele>183.577908</ele>
        <time>2023-03-30T17:08:00.207Z</time>
      </trkpt>
      <trkpt lat="48.896000" lon="1.936973">
        <ele>185.224310</ele>
        <time>2023-03-30T17:08:15.751Z</time>
      </trkpt>
      <trkpt lat="48.896130" lon="1.937129">
        <ele>185.713267</ele>
        <time>2023-03-30T17:08:19.461Z</time>
      </trkpt>
      <trkpt lat="48.896247" lon="1.937317">
        <ele>186.215826</ele>
        <time>2023-03-30T17:08:23.076Z</time>
      </trkpt>
      <trkpt lat="48.896702" lon="1.938291">
        <ele>187.041318</ele>
        <time>2023-03-30T17:08:37.562Z</time>
      </trkpt>
      <trkpt lat="48.896997" lon="1.938777">
        <ele>186.633944</ele>
        <time>2023-03-30T17:08:43.500Z</time>
      </trkpt>
      <trkpt lat="48.897101" lon="1.939212">
        <ele>186.348882</ele>
        <time>2023-03-30T17:08:47.134Z</time>
      </trkpt>
      <trkpt lat="48.897163" lon="1.940039">
        <ele>185.836272</ele>
        <time>2023-03-30T17:08:53.136Z</time>
      </trkpt>
      <trkpt lat="48.897295" lon="1.940440">
        <ele>185.184542</ele>
        <time>2023-03-30T17:08:56.191Z</time>
      </trkpt>
      <trkpt lat="48.897423" lon="1.940674">
        <ele>184.546132</ele>
        <time>2023-03-30T17:08:58.213Z</time>
      </trkpt>
      <trkpt lat="48.897474" lon="1.940730">
        <ele>184.345476</ele>
        <time>2023-03-30T17:08:58.848Z</time>
      </trkpt>
      <trkpt lat="48.898785" lon="1.942079">
        <ele>179.600913</ele>
        <time>2023-03-30T17:09:14.666Z</time>
      </trkpt>
      <trkpt lat="48.899033" lon="1.942274">
        <ele>179.108106</ele>
        <time>2023-03-30T17:09:17.594Z</time>
      </trkpt>
      <trkpt lat="48.899230" lon="1.942362">
        <ele>178.745669</ele>
        <time>2023-03-30T17:09:19.818Z</time>
      </trkpt>
      <trkpt lat="48.899322" lon="1.942370">
        <ele>178.583001</ele>
        <time>2023-03-30T17:09:20.828Z</time>
      </trkpt>
      <trkpt lat="48.899985" lon="1.942316">
        <ele>177.410967</ele>
        <time>2023-03-30T17:09:28.583Z</time>
      </trkpt>
      <trkpt lat="48.900165" lon="1.942346">
        <ele>177.091322</ele>
        <time>2023-03-30T17:09:30.893Z</time>
      </trkpt>
      <trkpt lat="48.900393" lon="1.942489">
        <ele>176.801444</ele>
        <time>2023-03-30T17:09:34.275Z</time>
      </trkpt>
      <trkpt lat="48.900642" lon="1.942692">
        <ele>176.795116</ele>
        <time>2023-03-30T17:09:38.391Z</time>
      </trkpt>
      <trkpt lat="48.900680" lon="1.942751">
        <ele>176.793900</ele>
        <time>2023-03-30T17:09:39.212Z</time>
      </trkpt>
      <trkpt lat="48.900764" lon="1.943044">
        <ele>176.789193</ele>
        <time>2023-03-30T17:09:42.438Z</time>
      </trkpt>
      <trkpt lat="48.901114" lon="1.943728">
        <ele>176.776429</ele>
        <time>2023-03-30T17:09:51.081Z</time>
      </trkpt>
      <trkpt lat="48.900508" lon="1.944829">
        <ele>176.792647</ele>
        <time>2023-03-30T17:10:05.509Z</time>
      </trkpt>
      <trkpt lat="48.899982" lon="1.945784">
        <ele>176.862869</ele>
        <time>2023-03-30T17:10:17.924Z</time>
      </trkpt>
      <trkpt lat="48.899253" lon="1.947108">
        <ele>177.086471</ele>
        <time>2023-03-30T17:10:34.746Z</time>
      </trkpt>
      <trkpt lat="48.898394" lon="1.948686">
        <ele>177.549645</ele>
        <time>2023-03-30T17:10:57.316Z</time>
      </trkpt>
      <trkpt lat="48.897735" lon="1.949897">
        <ele>178.074742</ele>
        <time>2023-03-30T17:11:15.195Z</time>
      </trkpt>
      <trkpt lat="48.897079" lon="1.951103">
        <ele>178.410242</ele>
        <time>2023-03-30T17:11:32.359Z</time>
      </trkpt>
      <trkpt lat="48.896707" lon="1.951779">
        <ele>178.358163</ele>
        <time>2023-03-30T17:11:40.978Z</time>
      </trkpt>
      <trkpt lat="48.896283" lon="1.952549">
        <ele>178.298826</ele>
        <time>2023-03-30T17:11:50.051Z</time>
      </trkpt>
      <trkpt lat="48.895554" lon="1.953890">
        <ele>177.952637</ele>
        <time>2023-03-30T17:12:05.350Z</time>
      </trkpt>
      <trkpt lat="48.895369" lon="1.954322">
        <ele>177.830364</ele>
        <time>2023-03-30T17:12:09.951Z</time>
      </trkpt>
      <trkpt lat="48.894472" lon="1.956974">
        <ele>177.129337</ele>
        <time>2023-03-30T17:12:37.139Z</time>
      </trkpt>
      <trkpt lat="48.892943" lon="1.961598">
        <ele>175.550213</ele>
        <time>2023-03-30T17:13:22.139Z</time>
      </trkpt>
      <trkpt lat="48.892882" lon="1.961915">
        <ele>175.450774</ele>
        <time>2023-03-30T17:13:25.139Z</time>
      </trkpt>
      <trkpt lat="48.892811" lon="1.961984">
        <ele>175.412193</ele>
        <time>2023-03-30T17:13:26.280Z</time>
      </trkpt>
      <trkpt lat="48.891117" lon="1.967083">
        <ele>173.882550</ele>
        <time>2023-03-30T17:14:16.909Z</time>
      </trkpt>
      <trkpt lat="48.890917" lon="1.967682">
        <ele>173.686168</ele>
        <time>2023-03-30T17:14:22.842Z</time>
      </trkpt>
      <trkpt lat="48.890263" lon="1.969645">
        <ele>173.021177</ele>
        <time>2023-03-30T17:14:42.245Z</time>
      </trkpt>
      <trkpt lat="48.888997" lon="1.973432">
        <ele>172.121043</ele>
        <time>2023-03-30T17:15:19.799Z</time>
      </trkpt>
      <trkpt lat="48.885794" lon="1.983017">
        <ele>173.188356</ele>
        <time>2023-03-30T17:17:07.568Z</time>
      </trkpt>
      <trkpt lat="48.885694" lon="1.983209">
        <ele>173.318595</ele>
        <time>2023-03-30T17:17:10.627Z</time>
      </trkpt>
      <trkpt lat="48.885574" lon="1.983330">
        <ele>173.435025</ele>
        <time>2023-03-30T17:17:13.379Z</time>
      </trkpt>
      <trkpt lat="48.885374" lon="1.983394">
        <ele>173.600297</ele>
        <time>2023-03-30T17:17:17.572Z</time>
      </trkpt>
      <trkpt lat="48.885294" lon="1.983381">
        <ele>173.665357</ele>
        <time>2023-03-30T17:17:19.219Z</time>
      </trkpt>
      <trkpt lat="48.885150" lon="1.983289">
        <ele>173.791662</ele>
        <time>2023-03-30T17:17:22.583Z</time>
      </trkpt>
      <trkpt lat="48.885031" lon="1.983125">
        <ele>173.921527</ele>
        <time>2023-03-30T17:17:25.903Z</time>
      </trkpt>
      <trkpt lat="48.884901" lon="1.982796">
        <ele>174.176719</ele>
        <time>2023-03-30T17:17:31.493Z</time>
      </trkpt>
      <trkpt lat="48.884767" lon="1.982385">
        <ele>174.503007</ele>
        <time>2023-03-30T17:17:37.928Z</time>
      </trkpt>
      <trkpt lat="48.884702" lon="1.982282">
        <ele>174.604546</ele>
        <time>2023-03-30T17:17:39.970Z</time>
      </trkpt>
      <trkpt lat="48.884670" lon="1.982232">
        <ele>174.654173</ele>
        <time>2023-03-30T17:17:40.860Z</time>
      </trkpt>
      <trkpt lat="48.884587" lon="1.982185">
        <ele>174.749971</ele>
        <time>2023-03-30T17:17:42.634Z</time>
      </trkpt>
      <trkpt lat="48.884508" lon="1.982188">
        <ele>174.835448</ele>
        <time>2023-03-30T17:17:44.321Z</time>
      </trkpt>
      <trkpt lat="48.884351" lon="1.982289">
        <ele>175.019836</ele>
        <time>2023-03-30T17:17:47.849Z</time>
      </trkpt>
      <trkpt lat="48.884246" lon="1.982318">
        <ele>175.135267</ele>
        <time>2023-03-30T17:17:49.837Z</time>
      </trkpt>
      <trkpt lat="48.884208" lon="1.982298">
        <ele>175.178762</ele>
        <time>2023-03-30T17:17:50.668Z</time>
      </trkpt>
      <trkpt lat="48.884172" lon="1.982295">
        <ele>175.217760</ele>
        <time>2023-03-30T17:17:51.382Z</time>
      </trkpt>
      <trkpt lat="48.884099" lon="1.982331">
        <ele>175.300768</ele>
        <time>2023-03-30T17:17:52.913Z</time>
      </trkpt>
      <trkpt lat="48.884045" lon="1.982430">
        <ele>175.392256</ele>
        <time>2023-03-30T17:17:54.514Z</time>
      </trkpt>
      <trkpt lat="48.884033" lon="1.982529">
        <ele>175.463858</ele>
        <time>2023-03-30T17:17:55.620Z</time>
      </trkpt>
      <trkpt lat="48.883999" lon="1.982622">
        <ele>175.539543</ele>
        <time>2023-03-30T17:17:56.835Z</time>
      </trkpt>
      <trkpt lat="48.883942" lon="1.982676">
        <ele>175.612182</ele>
        <time>2023-03-30T17:17:58.058Z</time>
      </trkpt>
      <trkpt lat="48.883815" lon="1.982659">
        <ele>175.750082</ele>
        <time>2023-03-30T17:18:00.341Z</time>
      </trkpt>
      <trkpt lat="48.883635" lon="1.982518">
        <ele>175.911183</ele>
        <time>2023-03-30T17:18:03.498Z</time>
      </trkpt>
      <trkpt lat="48.882976" lon="1.984679">
        <ele>175.615656</ele>
        <time>2023-03-30T17:18:25.222Z</time>
      </trkpt>
      <trkpt lat="48.882919" lon="1.984867">
        <ele>175.589972</ele>
        <time>2023-03-30T17:18:26.935Z</time>
      </trkpt>
      <trkpt lat="48.882518" lon="1.984741">
        <ele>175.647506</ele>
        <time>2023-03-30T17:18:32.352Z</time>
      </trkpt>
      <trkpt lat="48.882411" lon="1.984696">
        <ele>175.668244</ele>
        <time>2023-03-30T17:18:33.939Z</time>
      </trkpt>
      <trkpt lat="48.882160" lon="1.984667">
        <ele>175.715268</ele>
        <time>2023-03-30T17:18:37.499Z</time>
      </trkpt>
      <trkpt lat="48.882063" lon="1.984727">
        <ele>175.734830</ele>
        <time>2023-03-30T17:18:39.125Z</time>
      </trkpt>
      <trkpt lat="48.881895" lon="1.984918">
        <ele>175.774015</ele>
        <time>2023-03-30T17:18:42.306Z</time>
      </trkpt>
      <trkpt lat="48.881715" lon="1.985063">
        <ele>175.812067</ele>
        <time>2023-03-30T17:18:45.719Z</time>
      </trkpt>
      <trkpt lat="48.881191" lon="1.985210">
        <ele>175.911606</ele>
        <time>2023-03-30T17:18:55.145Z</time>
      </trkpt>
      <trkpt lat="48.881067" lon="1.985280">
        <ele>175.972552</ele>
        <time>2023-03-30T17:18:57.606Z</time>
      </trkpt>
      <trkpt lat="48.880947" lon="1.985405">
        <ele>176.049278</ele>
        <time>2023-03-30T17:19:00.256Z</time>
      </trkpt>
      <trkpt lat="48.880761" lon="1.985837">
        <ele>176.228397</ele>
        <time>2023-03-30T17:19:06.430Z</time>
      </trkpt>
      <trkpt lat="48.880598" lon="1.986201">
        <ele>176.381161</ele>
        <time>2023-03-30T17:19:11.589Z</time>
      </trkpt>
      <trkpt lat="48.880348" lon="1.985861">
        <ele>176.558083</ele>
        <time>2023-03-30T17:19:19.166Z</time>
      </trkpt>
      <trkpt lat="48.880256" lon="1.985777">
        <ele>176.614688</ele>
        <time>2023-03-30T17:19:21.559Z</time>
      </trkpt>
      <trkpt lat="48.879917" lon="1.985568">
        <ele>176.807647</ele>
        <time>2023-03-30T17:19:29.649Z</time>
      </trkpt>
      <trkpt lat="48.879379" lon="1.985344">
        <ele>176.419281</ele>
        <time>2023-03-30T17:19:40.888Z</time>
      </trkpt>
      <trkpt lat="48.878940" lon="1.985221">
        <ele>175.975611</ele>
        <time>2023-03-30T17:19:48.773Z</time>
      </trkpt>
      <trkpt lat="48.878735" lon="1.985211">
        <ele>175.771755</ele>
        <time>2023-03-30T17:19:52.125Z</time>
      </trkpt>
      <trkpt lat="48.878556" lon="1.985136">
        <ele>175.587215</ele>
        <time>2023-03-30T17:19:54.236Z</time>
      </trkpt>
      <trkpt lat="48.878342" lon="1.984965">
        <ele>175.346938</ele>
        <time>2023-03-30T17:19:56.904Z</time>
      </trkpt>
      <trkpt lat="48.878265" lon="1.984844">
        <ele>175.236881</ele>
        <time>2023-03-30T17:19:58.128Z</time>
      </trkpt>
      <trkpt lat="48.878228" lon="1.984786">
        <ele>175.184063</ele>
        <time>2023-03-30T17:19:58.699Z</time>
      </trkpt>
      <trkpt lat="48.878135" lon="1.984473">
        <ele>174.993012</ele>
        <time>2023-03-30T17:20:01.192Z</time>
      </trkpt>
      <trkpt lat="48.878014" lon="1.983978">
        <ele>174.745711</ele>
        <time>2023-03-30T17:20:05.188Z</time>
      </trkpt>
      <trkpt lat="48.878013" lon="1.983969">
        <ele>174.741436</ele>
        <time>2023-03-30T17:20:05.256Z</time>
      </trkpt>
      <trkpt lat="48.877966" lon="1.983672">
        <ele>174.598382</ele>
        <time>2023-03-30T17:20:07.708Z</time>
      </trkpt>
      <trkpt lat="48.877902" lon="1.983025">
        <ele>174.291985</ele>
        <time>2023-03-30T17:20:13.245Z</time>
      </trkpt>
      <trkpt lat="48.877886" lon="1.982333">
        <ele>173.967722</ele>
        <time>2023-03-30T17:20:19.485Z</time>
      </trkpt>
      <trkpt lat="48.877714" lon="1.981200">
        <ele>174.054067</ele>
        <time>2023-03-30T17:20:32.253Z</time>
      </trkpt>
      <trkpt lat="48.877664" lon="1.980908">
        <ele>174.151375</ele>
        <time>2023-03-30T17:20:35.829Z</time>
      </trkpt>
      <trkpt lat="48.877635" lon="1.980741">
        <ele>174.207078</ele>
        <time>2023-03-30T17:20:37.899Z</time>
      </trkpt>
      <trkpt lat="48.877429" lon="1.979547">
        <ele>174.605170</ele>
        <time>2023-03-30T17:20:53.606Z</time>
      </trkpt>
      <trkpt lat="48.877463" lon="1.979389">
        <ele>174.658783</ele>
        <time>2023-03-30T17:20:55.520Z</time>
      </trkpt>
      <trkpt lat="48.877359" lon="1.979252">
        <ele>174.380876</ele>
        <time>2023-03-30T17:20:57.579Z</time>
      </trkpt>
      <trkpt lat="48.877288" lon="1.979159">
        <ele>174.092570</ele>
        <time>2023-03-30T17:20:58.844Z</time>
      </trkpt>
      <trkpt lat="48.877128" lon="1.978911">
        <ele>173.389654</ele>
        <time>2023-03-30T17:21:01.640Z</time>
      </trkpt>
      <trkpt lat="48.876423" lon="1.977892">
        <ele>170.397116</ele>
        <time>2023-03-30T17:21:11.477Z</time>
      </trkpt>
      <trkpt lat="48.876307" lon="1.977852">
        <ele>170.031179</ele>
        <time>2023-03-30T17:21:12.552Z</time>
      </trkpt>
      <trkpt lat="48.875551" lon="1.977961">
        <ele>166.608814</ele>
        <time>2023-03-30T17:21:19.539Z</time>
      </trkpt>
      <trkpt lat="48.875400" lon="1.978011">
        <ele>165.777336</ele>
        <time>2023-03-30T17:21:20.964Z</time>
      </trkpt>
      <trkpt lat="48.874930" lon="1.978361">
        <ele>162.961549</ele>
        <time>2023-03-30T17:21:25.807Z</time>
      </trkpt>
      <trkpt lat="48.874842" lon="1.978354">
        <ele>162.487429</ele>
        <time>2023-03-30T17:21:26.600Z</time>
      </trkpt>
      <trkpt lat="48.874755" lon="1.978269">
        <ele>161.931026</ele>
        <time>2023-03-30T17:21:27.565Z</time>
      </trkpt>
      <trkpt lat="48.874722" lon="1.978132">
        <ele>161.414733</ele>
        <time>2023-03-30T17:21:28.456Z</time>
      </trkpt>
      <trkpt lat="48.874716" lon="1.977644">
        <ele>159.687543</ele>
        <time>2023-03-30T17:21:31.471Z</time>
      </trkpt>
      <trkpt lat="48.874680" lon="1.977419">
        <ele>159.100579</ele>
        <time>2023-03-30T17:21:32.916Z</time>
      </trkpt>
      <trkpt lat="48.874617" lon="1.977224">
        <ele>158.629750</ele>
        <time>2023-03-30T17:21:34.308Z</time>
      </trkpt>
      <trkpt lat="48.874348" lon="1.976635">
        <ele>157.075726</ele>
        <time>2023-03-30T17:21:39.099Z</time>
      </trkpt>
      <trkpt lat="48.874260" lon="1.976329">
        <ele>156.351949</ele>
        <time>2023-03-30T17:21:41.412Z</time>
      </trkpt>
      <trkpt lat="48.874260" lon="1.976320">
        <ele>156.332444</ele>
        <time>2023-03-30T17:21:41.477Z</time>
      </trkpt>
      <trkpt lat="48.874240" lon="1.976043">
        <ele>155.728529</ele>
        <time>2023-03-30T17:21:43.577Z</time>
      </trkpt>
      <trkpt lat="48.874257" lon="1.975873">
        <ele>155.355875</ele>
        <time>2023-03-30T17:21:44.834Z</time>
      </trkpt>
      <trkpt lat="48.874408" lon="1.975379">
        <ele>154.175322</ele>
        <time>2023-03-30T17:21:48.583Z</time>
      </trkpt>
      <trkpt lat="48.874436" lon="1.975299">
        <ele>153.978929</ele>
        <time>2023-03-30T17:21:49.183Z</time>
      </trkpt>
      <trkpt lat="48.874511" lon="1.975111">
        <ele>153.486666</ele>
        <time>2023-03-30T17:21:50.644Z</time>
      </trkpt>
      <trkpt lat="48.874666" lon="1.974661">
        <ele>151.940457</ele>
        <time>2023-03-30T17:21:53.924Z</time>
      </trkpt>
      <trkpt lat="48.874668" lon="1.974502">
        <ele>151.456394</ele>
        <time>2023-03-30T17:21:54.930Z</time>
      </trkpt>
      <trkpt lat="48.874646" lon="1.974418">
        <ele>151.181183</ele>
        <time>2023-03-30T17:21:55.500Z</time>
      </trkpt>
      <trkpt lat="48.874617" lon="1.974333">
        <ele>150.889716</ele>
        <time>2023-03-30T17:21:56.096Z</time>
      </trkpt>
      <trkpt lat="48.874522" lon="1.974202">
        <ele>150.296169</ele>
        <time>2023-03-30T17:21:57.325Z</time>
      </trkpt>
      <trkpt lat="48.874494" lon="1.974167">
        <ele>150.128414</ele>
        <time>2023-03-30T17:21:57.671Z</time>
      </trkpt>
      <trkpt lat="48.874262" lon="1.973898">
        <ele>148.778134</ele>
        <time>2023-03-30T17:22:00.435Z</time>
      </trkpt>
      <trkpt lat="48.874109" lon="1.973745">
        <ele>147.930626</ele>
        <time>2023-03-30T17:22:02.162Z</time>
      </trkpt>
      <trkpt lat="48.874022" lon="1.973666">
        <ele>147.461649</ele>
        <time>2023-03-30T17:22:03.107Z</time>
      </trkpt>
      <trkpt lat="48.873368" lon="1.973062">
        <ele>144.084918</ele>
        <time>2023-03-30T17:22:10.210Z</time>
      </trkpt>
      <trkpt lat="48.873119" lon="1.972828">
        <ele>142.902133</ele>
        <time>2023-03-30T17:22:12.956Z</time>
      </trkpt>
      <trkpt lat="48.873043" lon="1.972758">
        <ele>142.543094</ele>
        <time>2023-03-30T17:22:13.808Z</time>
      </trkpt>
      <trkpt lat="48.872846" lon="1.972625">
        <ele>141.672150</ele>
        <time>2023-03-30T17:22:15.881Z</time>
      </trkpt>
      <trkpt lat="48.872697" lon="1.972581">
        <ele>141.058852</ele>
        <time>2023-03-30T17:22:17.359Z</time>
      </trkpt>
      <trkpt lat="48.872525" lon="1.972535">
        <ele>140.353202</ele>
        <time>2023-03-30T17:22:19.082Z</time>
      </trkpt>
      <trkpt lat="48.872375" lon="1.972491">
        <ele>139.735937</ele>
        <time>2023-03-30T17:22:20.609Z</time>
      </trkpt>
      <trkpt lat="48.871819" lon="1.972303">
        <ele>137.658773</ele>
        <time>2023-03-30T17:22:26.548Z</time>
      </trkpt>
      <trkpt lat="48.871196" lon="1.972071">
        <ele>136.195376</ele>
        <time>2023-03-30T17:22:33.670Z</time>
      </trkpt>
      <trkpt lat="48.871054" lon="1.971991">
        <ele>135.849874</ele>
        <time>2023-03-30T17:22:35.315Z</time>
      </trkpt>
      <trkpt lat="48.871067" lon="1.971910">
        <ele>135.724753</ele>
        <time>2023-03-30T17:22:36.194Z</time>
      </trkpt>
      <trkpt lat="48.871049" lon="1.971681">
        <ele>135.378653</ele>
        <time>2023-03-30T17:22:38.607Z</time>
      </trkpt>
      <trkpt lat="48.870858" lon="1.970454">
        <ele>133.357394</ele>
        <time>2023-03-30T17:22:51.341Z</time>
      </trkpt>
      <trkpt lat="48.870835" lon="1.970264">
        <ele>132.963420</ele>
        <time>2023-03-30T17:22:53.249Z</time>
      </trkpt>
      <trkpt lat="48.870690" lon="1.969047">
        <ele>130.441200</ele>
        <time>2023-03-30T17:23:05.255Z</time>
      </trkpt>
      <trkpt lat="48.870370" lon="1.967459">
        <ele>127.127569</ele>
        <time>2023-03-30T17:23:20.850Z</time>
      </trkpt>
      <trkpt lat="48.870145" lon="1.966637">
        <ele>125.421488</ele>
        <time>2023-03-30T17:23:29.382Z</time>
      </trkpt>
      <trkpt lat="48.869902" lon="1.965981">
        <ele>123.978810</ele>
        <time>2023-03-30T17:23:36.811Z</time>
      </trkpt>
      <trkpt lat="48.869776" lon="1.965651">
        <ele>123.247634</ele>
        <time>2023-03-30T17:23:39.467Z</time>
      </trkpt>
      <trkpt lat="48.869391" lon="1.964506">
        <ele>122.293652</ele>
        <time>2023-03-30T17:23:48.889Z</time>
      </trkpt>
      <trkpt lat="48.869141" lon="1.963556">
        <ele>121.651145</ele>
        <time>2023-03-30T17:23:57.626Z</time>
      </trkpt>
      <trkpt lat="48.869069" lon="1.963183">
        <ele>121.407047</ele>
        <time>2023-03-30T17:24:01.577Z</time>
      </trkpt>
      <trkpt lat="48.869067" lon="1.963093">
        <ele>121.350501</ele>
        <time>2023-03-30T17:24:02.504Z</time>
      </trkpt>
      <trkpt lat="48.869017" lon="1.962967">
        <ele>121.376208</ele>
        <time>2023-03-30T17:24:04.097Z</time>
      </trkpt>
      <trkpt lat="48.868926" lon="1.962914">
        <ele>121.484482</ele>
        <time>2023-03-30T17:24:05.710Z</time>
      </trkpt>
      <trkpt lat="48.868906" lon="1.962915">
        <ele>121.506715</ele>
        <time>2023-03-30T17:24:06.053Z</time>
      </trkpt>
      <trkpt lat="48.868817" lon="1.962975">
        <ele>121.614888</ele>
        <time>2023-03-30T17:24:07.756Z</time>
      </trkpt>
      <trkpt lat="48.868775" lon="1.963076">
        <ele>121.702218</ele>
        <time>2023-03-30T17:24:09.126Z</time>
      </trkpt>
      <trkpt lat="48.868781" lon="1.963233">
        <ele>121.817155</ele>
        <time>2023-03-30T17:24:10.972Z</time>
      </trkpt>
      <trkpt lat="48.868769" lon="1.963374">
        <ele>121.921064</ele>
        <time>2023-03-30T17:24:12.692Z</time>
      </trkpt>
      <trkpt lat="48.868710" lon="1.963590">
        <ele>122.091998</ele>
        <time>2023-03-30T17:24:15.603Z</time>
      </trkpt>
      <trkpt lat="48.868341" lon="1.964394">
        <ele>122.808498</ele>
        <time>2023-03-30T17:24:29.064Z</time>
      </trkpt>
      <trkpt lat="48.868190" lon="1.964700">
        <ele>123.088076</ele>
        <time>2023-03-30T17:24:34.537Z</time>
      </trkpt>
      <trkpt lat="48.867706" lon="1.965685">
        <ele>123.736694</ele>
        <time>2023-03-30T17:24:51.401Z</time>
      </trkpt>
      <trkpt lat="48.867700" lon="1.965850">
        <ele>123.812782</ele>
        <time>2023-03-30T17:24:53.450Z</time>
      </trkpt>
      <trkpt lat="48.867741" lon="1.966006">
        <ele>123.890130</ele>
        <time>2023-03-30T17:24:55.488Z</time>
      </trkpt>
      <trkpt lat="48.867814" lon="1.966097">
        <ele>123.956210</ele>
        <time>2023-03-30T17:24:57.252Z</time>
      </trkpt>
      <trkpt lat="48.867980" lon="1.966230">
        <ele>124.087553</ele>
        <time>2023-03-30T17:25:00.550Z</time>
      </trkpt>
      <trkpt lat="48.868062" lon="1.966349">
        <ele>124.166903</ele>
        <time>2023-03-30T17:25:02.459Z</time>
      </trkpt>
      <trkpt lat="48.868094" lon="1.966466">
        <ele>124.225245</ele>
        <time>2023-03-30T17:25:03.893Z</time>
      </trkpt>
      <trkpt lat="48.868091" lon="1.966588">
        <ele>124.281457</ele>
        <time>2023-03-30T17:25:05.184Z</time>
      </trkpt>
      <trkpt lat="48.868044" lon="1.966730">
        <ele>124.354648</ele>
        <time>2023-03-30T17:25:06.858Z</time>
      </trkpt>
      <trkpt lat="48.867725" lon="1.967132">
        <ele>124.456772</ele>
        <time>2023-03-30T17:25:12.770Z</time>
      </trkpt>
      <trkpt lat="48.866755" lon="1.967998">
        <ele>123.260397</ele>
        <time>2023-03-30T17:25:26.089Z</time>
      </trkpt>
      <trkpt lat="48.865594" lon="1.968906">
        <ele>121.639624</ele>
        <time>2023-03-30T17:25:41.437Z</time>
      </trkpt>
      <trkpt lat="48.865161" lon="1.969230">
        <ele>120.974605</ele>
        <time>2023-03-30T17:25:47.000Z</time>
      </trkpt>
      <trkpt lat="48.864638" lon="1.969498">
        <ele>120.214092</ele>
        <time>2023-03-30T17:25:53.391Z</time>
      </trkpt>
      <trkpt lat="48.864008" lon="1.969682">
        <ele>119.170492</ele>
        <time>2023-03-30T17:26:00.998Z</time>
      </trkpt>
      <trkpt lat="48.863737" lon="1.969720">
        <ele>118.724949</ele>
        <time>2023-03-30T17:26:04.162Z</time>
      </trkpt>
      <trkpt lat="48.863272" lon="1.969695">
        <ele>117.963211</ele>
        <time>2023-03-30T17:26:09.380Z</time>
      </trkpt>
      <trkpt lat="48.860813" lon="1.968986">
        <ele>112.439462</ele>
        <time>2023-03-30T17:26:36.630Z</time>
      </trkpt>
      <trkpt lat="48.860657" lon="1.968945">
        <ele>111.869887</ele>
        <time>2023-03-30T17:26:38.296Z</time>
      </trkpt>
      <trkpt lat="48.860298" lon="1.968803">
        <ele>110.535283</ele>
        <time>2023-03-30T17:26:42.137Z</time>
      </trkpt>
      <trkpt lat="48.859750" lon="1.968428">
        <ele>108.373131</ele>
        <time>2023-03-30T17:26:48.056Z</time>
      </trkpt>
      <trkpt lat="48.859135" lon="1.967756">
        <ele>104.835145</ele>
        <time>2023-03-30T17:26:55.169Z</time>
      </trkpt>
      <trkpt lat="48.858981" lon="1.967628">
        <ele>103.793493</ele>
        <time>2023-03-30T17:26:56.779Z</time>
      </trkpt>
      <trkpt lat="48.858573" lon="1.967400">
        <ele>101.213709</ele>
        <time>2023-03-30T17:27:00.745Z</time>
      </trkpt>
      <trkpt lat="48.857618" lon="1.967147">
        <ele>95.493182</ele>
        <time>2023-03-30T17:27:09.579Z</time>
      </trkpt>
      <trkpt lat="48.857259" lon="1.967106">
        <ele>93.447364</ele>
        <time>2023-03-30T17:27:12.862Z</time>
      </trkpt>
      <trkpt lat="48.856983" lon="1.967153">
        <ele>91.869142</ele>
        <time>2023-03-30T17:27:15.417Z</time>
      </trkpt>
      <trkpt lat="48.856245" lon="1.967525">
        <ele>87.450732</ele>
        <time>2023-03-30T17:27:22.642Z</time>
      </trkpt>
      <trkpt lat="48.855839" lon="1.967703">
        <ele>85.346715</ele>
        <time>2023-03-30T17:27:26.601Z</time>
      </trkpt>
      <trkpt lat="48.855610" lon="1.967723">
        <ele>84.448923</ele>
        <time>2023-03-30T17:27:28.784Z</time>
      </trkpt>
      <trkpt lat="48.855436" lon="1.967685">
        <ele>83.760886</ele>
        <time>2023-03-30T17:27:30.463Z</time>
      </trkpt>
      <trkpt lat="48.855310" lon="1.967628">
        <ele>83.246334</ele>
        <time>2023-03-30T17:27:31.744Z</time>
      </trkpt>
      <trkpt lat="48.855304" lon="1.967633">
        <ele>83.219552</ele>
        <time>2023-03-30T17:27:31.807Z</time>
      </trkpt>
      <trkpt lat="48.855199" lon="1.967775">
        <ele>82.669434</ele>
        <time>2023-03-30T17:27:33.166Z</time>
      </trkpt>
      <trkpt lat="48.855088" lon="1.967922">
        <ele>82.093181</ele>
        <time>2023-03-30T17:27:34.596Z</time>
      </trkpt>
      <trkpt lat="48.854959" lon="1.968347">
        <ele>80.887828</ele>
        <time>2023-03-30T17:27:37.624Z</time>
      </trkpt>
      <trkpt lat="48.854913" lon="1.968632">
        <ele>80.132105</ele>
        <time>2023-03-30T17:27:39.552Z</time>
      </trkpt>
      <trkpt lat="48.854913" lon="1.968820">
        <ele>79.647946</ele>
        <time>2023-03-30T17:27:40.808Z</time>
      </trkpt>
      <trkpt lat="48.854916" lon="1.969172">
        <ele>78.905640</ele>
        <time>2023-03-30T17:27:43.229Z</time>
      </trkpt>
      <trkpt lat="48.855064" lon="1.970340">
        <ele>78.097617</ele>
        <time>2023-03-30T17:27:52.104Z</time>
      </trkpt>
      <trkpt lat="48.855310" lon="1.971303">
        <ele>77.395862</ele>
        <time>2023-03-30T17:28:01.549Z</time>
      </trkpt>
      <trkpt lat="48.855360" lon="1.971850">
        <ele>77.150584</ele>
        <time>2023-03-30T17:28:07.127Z</time>
      </trkpt>
      <trkpt lat="48.855368" lon="1.973327">
        <ele>77.648825</ele>
        <time>2023-03-30T17:28:22.857Z</time>
      </trkpt>
      <trkpt lat="48.855378" lon="1.974016">
        <ele>77.881297</ele>
        <time>2023-03-30T17:28:30.688Z</time>
      </trkpt>
      <trkpt lat="48.855451" lon="1.974613">
        <ele>78.183503</ele>
        <time>2023-03-30T17:28:37.911Z</time>
      </trkpt>
      <trkpt lat="48.855613" lon="1.975839">
        <ele>79.332150</ele>
        <time>2023-03-30T17:28:54.650Z</time>
      </trkpt>
      <trkpt lat="48.855921" lon="1.977660">
        <ele>80.926013</ele>
        <time>2023-03-30T17:29:21.245Z</time>
      </trkpt>
      <trkpt lat="48.855967" lon="1.978105">
        <ele>81.233486</ele>
        <time>2023-03-30T17:29:27.267Z</time>
      </trkpt>
      <trkpt lat="48.855893" lon="1.978462">
        <ele>81.488973</ele>
        <time>2023-03-30T17:29:32.108Z</time>
      </trkpt>
      <trkpt lat="48.855445" lon="1.979759">
        <ele>82.400835</ele>
        <time>2023-03-30T17:29:49.388Z</time>
      </trkpt>
      <trkpt lat="48.854854" lon="1.981142">
        <ele>82.321606</ele>
        <time>2023-03-30T17:30:05.219Z</time>
      </trkpt>
      <trkpt lat="48.854533" lon="1.981901">
        <ele>82.278257</ele>
        <time>2023-03-30T17:30:13.353Z</time>
      </trkpt>
      <trkpt lat="48.853893" lon="1.983642">
        <ele>81.549712</ele>
        <time>2023-03-30T17:30:30.118Z</time>
      </trkpt>
      <trkpt lat="48.853812" lon="1.983789">
        <ele>81.477721</ele>
        <time>2023-03-30T17:30:31.737Z</time>
      </trkpt>
      <trkpt lat="48.853725" lon="1.983753">
        <ele>81.426269</ele>
        <time>2023-03-30T17:30:32.902Z</time>
      </trkpt>
      <trkpt lat="48.853671" lon="1.983829">
        <ele>81.384272</ele>
        <time>2023-03-30T17:30:33.841Z</time>
      </trkpt>
      <trkpt lat="48.853667" lon="1.983905">
        <ele>81.355645</ele>
        <time>2023-03-30T17:30:34.528Z</time>
      </trkpt>
      <trkpt lat="48.853676" lon="1.983937">
        <ele>81.342579</ele>
        <time>2023-03-30T17:30:34.846Z</time>
      </trkpt>
      <trkpt lat="48.853689" lon="1.983964">
        <ele>81.330017</ele>
        <time>2023-03-30T17:30:35.151Z</time>
      </trkpt>
      <trkpt lat="48.853440" lon="1.984125">
        <ele>81.249044</ele>
        <time>2023-03-30T17:30:38.698Z</time>
      </trkpt>
      <trkpt lat="48.852025" lon="1.984895">
        <ele>81.250386</ele>
        <time>2023-03-30T17:31:01.454Z</time>
      </trkpt>
      <trkpt lat="48.851957" lon="1.984936">
        <ele>81.250451</ele>
        <time>2023-03-30T17:31:02.511Z</time>
      </trkpt>
      <trkpt lat="48.851272" lon="1.985206">
        <ele>81.520570</ele>
        <time>2023-03-30T17:31:13.408Z</time>
      </trkpt>
      <trkpt lat="48.851098" lon="1.985254">
        <ele>81.598389</ele>
        <time>2023-03-30T17:31:16.755Z</time>
      </trkpt>
      <trkpt lat="48.851183" lon="1.985744">
        <ele>81.745122</ele>
        <time>2023-03-30T17:31:22.988Z</time>
      </trkpt>
      <trkpt lat="48.851270" lon="1.986188">
        <ele>81.879265</ele>
        <time>2023-03-30T17:31:28.435Z</time>
      </trkpt>
      <trkpt lat="48.851334" lon="1.986408">
        <ele>81.948916</ele>
        <time>2023-03-30T17:31:31.120Z</time>
      </trkpt>
      <trkpt lat="48.851436" lon="1.986640">
        <ele>82.029709</ele>
        <time>2023-03-30T17:31:34.269Z</time>
      </trkpt>
      <trkpt lat="48.851619" lon="1.987149">
        <ele>82.018757</ele>
        <time>2023-03-30T17:31:40.129Z</time>
      </trkpt>
      <trkpt lat="48.851552" lon="1.987572">
        <ele>81.999920</ele>
        <time>2023-03-30T17:31:44.007Z</time>
      </trkpt>
      <trkpt lat="48.851515" lon="1.987700">
        <ele>81.993867</ele>
        <time>2023-03-30T17:31:45.224Z</time>
      </trkpt>
      <trkpt lat="48.851362" lon="1.987898">
        <ele>81.980645</ele>
        <time>2023-03-30T17:31:47.962Z</time>
      </trkpt>
      <trkpt lat="48.851063" lon="1.988186">
        <ele>81.957353</ele>
        <time>2023-03-30T17:31:53.223Z</time>
      </trkpt>
      <trkpt lat="48.850958" lon="1.988368">
        <ele>81.946873</ele>
        <time>2023-03-30T17:31:55.882Z</time>
      </trkpt>
      <trkpt lat="48.850374" lon="1.989890">
        <ele>81.952236</ele>
        <time>2023-03-30T17:32:11.698Z</time>
      </trkpt>
      <trkpt lat="48.850258" lon="1.990195">
        <ele>81.960440</ele>
        <time>2023-03-30T17:32:14.842Z</time>
      </trkpt>
      <trkpt lat="48.850050" lon="1.990803">
        <ele>81.976397</ele>
        <time>2023-03-30T17:32:21.596Z</time>
      </trkpt>
      <trkpt lat="48.849712" lon="1.991586">
        <ele>82.216023</ele>
        <time>2023-03-30T17:32:32.854Z</time>
      </trkpt>
      <trkpt lat="48.849373" lon="1.992148">
        <ele>82.589514</ele>
        <time>2023-03-30T17:32:42.781Z</time>
      </trkpt>
      <trkpt lat="48.848900" lon="1.992689">
        <ele>83.030246</ele>
        <time>2023-03-30T17:32:53.705Z</time>
      </trkpt>
      <trkpt lat="48.848863" lon="1.992632">
        <ele>83.069470</ele>
        <time>2023-03-30T17:32:54.742Z</time>
      </trkpt>
      <trkpt lat="48.848811" lon="1.992630">
        <ele>83.108196</ele>
        <time>2023-03-30T17:32:55.746Z</time>
      </trkpt>
      <trkpt lat="48.848768" lon="1.992706">
        <ele>83.157298</ele>
        <time>2023-03-30T17:32:56.876Z</time>
      </trkpt>
      <trkpt lat="48.848786" lon="1.992802">
        <ele>83.206201</ele>
        <time>2023-03-30T17:32:57.826Z</time>
      </trkpt>
      <trkpt lat="48.847724" lon="1.993831">
        <ele>82.899605</ele>
        <time>2023-03-30T17:33:15.768Z</time>
      </trkpt>
      <trkpt lat="48.847239" lon="1.994373">
        <ele>82.665621</ele>
        <time>2023-03-30T17:33:22.923Z</time>
      </trkpt>
      <trkpt lat="48.846289" lon="1.995344">
        <ele>82.722353</ele>
        <time>2023-03-30T17:33:38.357Z</time>
      </trkpt>
      <trkpt lat="48.846015" lon="1.995812">
        <ele>82.759790</ele>
        <time>2023-03-30T17:33:45.415Z</time>
      </trkpt>
      <trkpt lat="48.844850" lon="1.998172">
        <ele>84.396029</ele>
        <time>2023-03-30T17:34:23.755Z</time>
      </trkpt>
      <trkpt lat="48.844719" lon="1.998535">
        <ele>84.590083</ele>
        <time>2023-03-30T17:34:28.527Z</time>
      </trkpt>
      <trkpt lat="48.843907" lon="2.001580">
        <ele>84.433919</ele>
        <time>2023-03-30T17:34:58.834Z</time>
      </trkpt>
      <trkpt lat="48.843476" lon="2.003605">
        <ele>84.202197</ele>
        <time>2023-03-30T17:35:18.824Z</time>
      </trkpt>
      <trkpt lat="48.843141" lon="2.004660">
        <ele>84.084593</ele>
        <time>2023-03-30T17:35:30.109Z</time>
      </trkpt>
      <trkpt lat="48.841606" lon="2.007421">
        <ele>83.848523</ele>
        <time>2023-03-30T17:36:03.747Z</time>
      </trkpt>
      <trkpt lat="48.840642" lon="2.008677">
        <ele>84.308841</ele>
        <time>2023-03-30T17:36:23.860Z</time>
      </trkpt>
      <trkpt lat="48.840485" lon="2.008750">
        <ele>84.401176</ele>
        <time>2023-03-30T17:36:26.543Z</time>
      </trkpt>
      <trkpt lat="48.840452" lon="2.008738">
        <ele>84.420258</ele>
        <time>2023-03-30T17:36:27.127Z</time>
      </trkpt>
      <trkpt lat="48.840345" lon="2.008793">
        <ele>84.483782</ele>
        <time>2023-03-30T17:36:29.122Z</time>
      </trkpt>
      <trkpt lat="48.840307" lon="2.008892">
        <ele>84.526201</ele>
        <time>2023-03-30T17:36:30.502Z</time>
      </trkpt>
      <trkpt lat="48.840303" lon="2.008958">
        <ele>84.550733</ele>
        <time>2023-03-30T17:36:31.256Z</time>
      </trkpt>
      <trkpt lat="48.840210" lon="2.009214">
        <ele>84.658963</ele>
        <time>2023-03-30T17:36:34.663Z</time>
      </trkpt>
      <trkpt lat="48.839269" lon="2.010181">
        <ele>86.079739</ele>
        <time>2023-03-30T17:36:57.076Z</time>
      </trkpt>
      <trkpt lat="48.838812" lon="2.010695">
        <ele>86.939740</ele>
        <time>2023-03-30T17:37:09.624Z</time>
      </trkpt>
      <trkpt lat="48.838399" lon="2.011573">
        <ele>87.959029</ele>
        <time>2023-03-30T17:37:25.507Z</time>
      </trkpt>
      <trkpt lat="48.838301" lon="2.011737">
        <ele>88.153077</ele>
        <time>2023-03-30T17:37:28.761Z</time>
      </trkpt>
      <trkpt lat="48.838166" lon="2.011866">
        <ele>88.365342</ele>
        <time>2023-03-30T17:37:32.333Z</time>
      </trkpt>
      <trkpt lat="48.837852" lon="2.011908">
        <ele>88.784886</ele>
        <time>2023-03-30T17:37:39.120Z</time>
      </trkpt>
      <trkpt lat="48.836554" lon="2.011604">
        <ele>90.164362</ele>
        <time>2023-03-30T17:38:03.053Z</time>
      </trkpt>
      <trkpt lat="48.836400" lon="2.011564">
        <ele>90.240958</ele>
        <time>2023-03-30T17:38:05.499Z</time>
      </trkpt>
      <trkpt lat="48.835774" lon="2.011406">
        <ele>90.552070</ele>
        <time>2023-03-30T17:38:15.232Z</time>
      </trkpt>
      <trkpt lat="48.835677" lon="2.011422">
        <ele>90.599905</ele>
        <time>2023-03-30T17:38:16.641Z</time>
      </trkpt>
      <trkpt lat="48.835542" lon="2.011519">
        <ele>90.673119</ele>
        <time>2023-03-30T17:38:18.998Z</time>
      </trkpt>
      <trkpt lat="48.835174" lon="2.011863">
        <ele>90.914623</ele>
        <time>2023-03-30T17:38:26.553Z</time>
      </trkpt>
      <trkpt lat="48.834832" lon="2.012307">
        <ele>91.257038</ele>
        <time>2023-03-30T17:38:35.028Z</time>
      </trkpt>
      <trkpt lat="48.834741" lon="2.012446">
        <ele>91.355261</ele>
        <time>2023-03-30T17:38:37.445Z</time>
      </trkpt>
      <trkpt lat="48.834540" lon="2.012802">
        <ele>91.590250</ele>
        <time>2023-03-30T17:38:43.340Z</time>
      </trkpt>
      <trkpt lat="48.834460" lon="2.012918">
        <ele>91.674426</ele>
        <time>2023-03-30T17:38:45.583Z</time>
      </trkpt>
      <trkpt lat="48.834272" lon="2.013119">
        <ele>91.849408</ele>
        <time>2023-03-30T17:38:49.915Z</time>
      </trkpt>
      <trkpt lat="48.833925" lon="2.013294">
        <ele>92.127702</ele>
        <time>2023-03-30T17:38:56.421Z</time>
      </trkpt>
      <trkpt lat="48.833856" lon="2.013389">
        <ele>92.198581</ele>
        <time>2023-03-30T17:38:57.898Z</time>
      </trkpt>
      <trkpt lat="48.833846" lon="2.013442">
        <ele>92.188165</ele>
        <time>2023-03-30T17:38:58.499Z</time>
      </trkpt>
      <trkpt lat="48.833978" lon="2.013928">
        <ele>92.064694</ele>
        <time>2023-03-30T17:39:03.442Z</time>
      </trkpt>
      <trkpt lat="48.834006" lon="2.014114">
        <ele>92.019885</ele>
        <time>2023-03-30T17:39:05.171Z</time>
      </trkpt>
      <trkpt lat="48.833902" lon="2.014452">
        <ele>91.932262</ele>
        <time>2023-03-30T17:39:08.632Z</time>
      </trkpt>
      <trkpt lat="48.833892" lon="2.014480">
        <ele>91.924780</ele>
        <time>2023-03-30T17:39:08.971Z</time>
      </trkpt>
      <trkpt lat="48.833692" lon="2.015077">
        <ele>91.767462</ele>
        <time>2023-03-30T17:39:15.064Z</time>
      </trkpt>
      <trkpt lat="48.833667" lon="2.015331">
        <ele>91.707147</ele>
        <time>2023-03-30T17:39:17.286Z</time>
      </trkpt>
      <trkpt lat="48.833684" lon="2.015405">
        <ele>91.688740</ele>
        <time>2023-03-30T17:39:17.950Z</time>
      </trkpt>
      <trkpt lat="48.833914" lon="2.015678">
        <ele>91.584604</ele>
        <time>2023-03-30T17:39:21.484Z</time>
      </trkpt>
      <trkpt lat="48.834267" lon="2.015951">
        <ele>91.217278</ele>
        <time>2023-03-30T17:39:26.289Z</time>
      </trkpt>
      <trkpt lat="48.834330" lon="2.015986">
        <ele>91.146435</ele>
        <time>2023-03-30T17:39:27.131Z</time>
      </trkpt>
      <trkpt lat="48.834440" lon="2.016069">
        <ele>91.016725</ele>
        <time>2023-03-30T17:39:28.603Z</time>
      </trkpt>
      <trkpt lat="48.834511" lon="2.016181">
        <ele>90.908632</ele>
        <time>2023-03-30T17:39:29.789Z</time>
      </trkpt>
      <trkpt lat="48.834545" lon="2.016313">
        <ele>90.810096</ele>
        <time>2023-03-30T17:39:30.897Z</time>
      </trkpt>
      <trkpt lat="48.834471" lon="2.016953">
        <ele>90.358383</ele>
        <time>2023-03-30T17:39:35.987Z</time>
      </trkpt>
      <trkpt lat="48.834431" lon="2.017475">
        <ele>89.993059</ele>
        <time>2023-03-30T17:39:40.257Z</time>
      </trkpt>
      <trkpt lat="48.834442" lon="2.017682">
        <ele>89.848693</ele>
        <time>2023-03-30T17:39:41.930Z</time>
      </trkpt>
      <trkpt lat="48.834520" lon="2.018040">
        <ele>89.604979</ele>
        <time>2023-03-30T17:39:45.043Z</time>
      </trkpt>
      <trkpt lat="48.834494" lon="2.018311">
        <ele>89.462996</ele>
        <time>2023-03-30T17:39:47.231Z</time>
      </trkpt>
      <trkpt lat="48.834450" lon="2.018361">
        <ele>89.419718</ele>
        <time>2023-03-30T17:39:47.989Z</time>
      </trkpt>
      <trkpt lat="48.834453" lon="2.018485">
        <ele>89.355388</ele>
        <time>2023-03-30T17:39:48.991Z</time>
      </trkpt>
      <trkpt lat="48.834493" lon="2.018529">
        <ele>89.316491</ele>
        <time>2023-03-30T17:39:49.556Z</time>
      </trkpt>
      <trkpt lat="48.834541" lon="2.018525">
        <ele>89.278628</ele>
        <time>2023-03-30T17:39:50.116Z</time>
      </trkpt>
      <trkpt lat="48.834718" lon="2.018659">
        <ele>89.122868</ele>
        <time>2023-03-30T17:39:52.561Z</time>
      </trkpt>
      <trkpt lat="48.834809" lon="2.018910">
        <ele>88.974306</ele>
        <time>2023-03-30T17:39:54.740Z</time>
      </trkpt>
      <trkpt lat="48.835094" lon="2.019518">
        <ele>88.587335</ele>
        <time>2023-03-30T17:40:00.866Z</time>
      </trkpt>
      <trkpt lat="48.835251" lon="2.019851">
        <ele>88.374978</ele>
        <time>2023-03-30T17:40:04.283Z</time>
      </trkpt>
      <trkpt lat="48.835536" lon="2.020699">
        <ele>88.455168</ele>
        <time>2023-03-30T17:40:13.544Z</time>
      </trkpt>
      <trkpt lat="48.835681" lon="2.021249">
        <ele>88.636188</ele>
        <time>2023-03-30T17:40:20.167Z</time>
      </trkpt>
      <trkpt lat="48.835798" lon="2.021983">
        <ele>88.866929</ele>
        <time>2023-03-30T17:40:29.124Z</time>
      </trkpt>
      <trkpt lat="48.835910" lon="2.022953">
        <ele>89.067573</ele>
        <time>2023-03-30T17:40:41.272Z</time>
      </trkpt>
      <trkpt lat="48.835923" lon="2.023479">
        <ele>89.050329</ele>
        <time>2023-03-30T17:40:47.317Z</time>
      </trkpt>
      <trkpt lat="48.835817" lon="2.025123">
        <ele>88.996212</ele>
        <time>2023-03-30T17:41:02.355Z</time>
      </trkpt>
      <trkpt lat="48.835851" lon="2.026342">
        <ele>88.497101</ele>
        <time>2023-03-30T17:41:12.114Z</time>
      </trkpt>
      <trkpt lat="48.835897" lon="2.026809">
        <ele>88.256277</ele>
        <time>2023-03-30T17:41:15.925Z</time>
      </trkpt>
      <trkpt lat="48.836145" lon="2.028283">
        <ele>87.570286</ele>
        <time>2023-03-30T17:41:28.735Z</time>
      </trkpt>
      <trkpt lat="48.836310" lon="2.029538">
        <ele>87.433510</ele>
        <time>2023-03-30T17:41:40.978Z</time>
      </trkpt>
      <trkpt lat="48.836704" lon="2.031050">
        <ele>87.367231</ele>
        <time>2023-03-30T17:41:56.807Z</time>
      </trkpt>
      <trkpt lat="48.836739" lon="2.031436">
        <ele>87.431269</ele>
        <time>2023-03-30T17:42:00.626Z</time>
      </trkpt>
      <trkpt lat="48.836748" lon="2.031827">
        <ele>87.495568</ele>
        <time>2023-03-30T17:42:04.404Z</time>
      </trkpt>
      <trkpt lat="48.836885" lon="2.034339">
        <ele>88.420468</ele>
        <time>2023-03-30T17:42:31.681Z</time>
      </trkpt>
      <trkpt lat="48.836979" lon="2.036803">
        <ele>90.295051</ele>
        <time>2023-03-30T17:43:04.920Z</time>
      </trkpt>
      <trkpt lat="48.836974" lon="2.037565">
        <ele>91.000968</ele>
        <time>2023-03-30T17:43:15.117Z</time>
      </trkpt>
      <trkpt lat="48.836894" lon="2.037953">
        <ele>91.377615</ele>
        <time>2023-03-30T17:43:20.256Z</time>
      </trkpt>
      <trkpt lat="48.835948" lon="2.040578">
        <ele>94.896594</ele>
        <time>2023-03-30T17:44:01.776Z</time>
      </trkpt>
      <trkpt lat="48.835932" lon="2.040638">
        <ele>94.979263</ele>
        <time>2023-03-30T17:44:02.997Z</time>
      </trkpt>
      <trkpt lat="48.835635" lon="2.041393">
        <ele>96.364827</ele>
        <time>2023-03-30T17:44:18.751Z</time>
      </trkpt>
      <trkpt lat="48.835078" lon="2.042592">
        <ele>99.367640</ele>
        <time>2023-03-30T17:44:44.233Z</time>
      </trkpt>
      <trkpt lat="48.835005" lon="2.042740">
        <ele>99.746062</ele>
        <time>2023-03-30T17:44:47.757Z</time>
      </trkpt>
      <trkpt lat="48.834925" lon="2.042909">
        <ele>100.172001</ele>
        <time>2023-03-30T17:44:51.805Z</time>
      </trkpt>
      <trkpt lat="48.834666" lon="2.043467">
        <ele>101.610278</ele>
        <time>2023-03-30T17:45:04.815Z</time>
      </trkpt>
      <trkpt lat="48.834544" lon="2.043822">
        <ele>102.538248</ele>
        <time>2023-03-30T17:45:12.597Z</time>
      </trkpt>
      <trkpt lat="48.834515" lon="2.043974">
        <ele>102.904960</ele>
        <time>2023-03-30T17:45:15.400Z</time>
      </trkpt>
      <trkpt lat="48.834521" lon="2.044144">
        <ele>103.299449</ele>
        <time>2023-03-30T17:45:18.632Z</time>
      </trkpt>
      <trkpt lat="48.834528" lon="2.044330">
        <ele>103.731152</ele>
        <time>2023-03-30T17:45:22.174Z</time>
      </trkpt>
      <trkpt lat="48.834533" lon="2.044514">
        <ele>104.157880</ele>
        <time>2023-03-30T17:45:25.413Z</time>
      </trkpt>
      <trkpt lat="48.834649" lon="2.045053">
        <ele>105.471911</ele>
        <time>2023-03-30T17:45:35.689Z</time>
      </trkpt>
      <trkpt lat="48.834753" lon="2.045420">
        <ele>106.397780</ele>
        <time>2023-03-30T17:45:43.298Z</time>
      </trkpt>
      <trkpt lat="48.834807" lon="2.045564">
        <ele>106.781806</ele>
        <time>2023-03-30T17:45:46.523Z</time>
      </trkpt>
      <trkpt lat="48.834877" lon="2.045705">
        <ele>107.191039</ele>
        <time>2023-03-30T17:45:50.150Z</time>
      </trkpt>
      <trkpt lat="48.835829" lon="2.047117">
        <ele>111.908655</ele>
        <time>2023-03-30T17:46:31.909Z</time>
      </trkpt>
      <trkpt lat="48.836115" lon="2.047478">
        <ele>113.227997</ele>
        <time>2023-03-30T17:46:41.975Z</time>
      </trkpt>
      <trkpt lat="48.837053" lon="2.048425">
        <ele>115.494840</ele>
        <time>2023-03-30T17:47:08.105Z</time>
      </trkpt>
      <trkpt lat="48.837350" lon="2.048778">
        <ele>116.121389</ele>
        <time>2023-03-30T17:47:15.499Z</time>
      </trkpt>
      <trkpt lat="48.838634" lon="2.050694">
        <ele>118.229212</ele>
        <time>2023-03-30T17:47:49.153Z</time>
      </trkpt>
      <trkpt lat="48.838639" lon="2.050703">
        <ele>118.236808</ele>
        <time>2023-03-30T17:47:49.301Z</time>
      </trkpt>
      <trkpt lat="48.839782" lon="2.052671">
        <ele>120.291901</ele>
        <time>2023-03-30T17:48:21.840Z</time>
      </trkpt>
      <trkpt lat="48.840468" lon="2.053661">
        <ele>121.865609</ele>
        <time>2023-03-30T17:48:42.237Z</time>
      </trkpt>
      <trkpt lat="48.840814" lon="2.054126">
        <ele>122.903172</ele>
        <time>2023-03-30T17:48:52.990Z</time>
      </trkpt>
      <trkpt lat="48.840938" lon="2.054267">
        <ele>123.251056</ele>
        <time>2023-03-30T17:48:56.696Z</time>
      </trkpt>
      <trkpt lat="48.842767" lon="2.055800">
        <ele>128.429271</ele>
        <time>2023-03-30T17:49:50.048Z</time>
      </trkpt>
      <trkpt lat="48.842922" lon="2.055895">
        <ele>128.867905</ele>
        <time>2023-03-30T17:49:54.228Z</time>
      </trkpt>
      <trkpt lat="48.843346" lon="2.055976">
        <ele>129.975082</ele>
        <time>2023-03-30T17:50:04.889Z</time>
      </trkpt>
      <trkpt lat="48.843463" lon="2.056030">
        <ele>130.274505</ele>
        <time>2023-03-30T17:50:07.905Z</time>
      </trkpt>
      <trkpt lat="48.843551" lon="2.056300">
        <ele>130.760053</ele>
        <time>2023-03-30T17:50:12.794Z</time>
      </trkpt>
      <trkpt lat="48.843535" lon="2.056492">
        <ele>131.071937</ele>
        <time>2023-03-30T17:50:15.931Z</time>
      </trkpt>
      <trkpt lat="48.843546" lon="2.056570">
        <ele>131.200490</ele>
        <time>2023-03-30T17:50:17.228Z</time>
      </trkpt>
      <trkpt lat="48.843623" lon="2.056806">
        <ele>131.624983</ele>
        <time>2023-03-30T17:50:21.517Z</time>
      </trkpt>
      <trkpt lat="48.843656" lon="2.056849">
        <ele>131.731433</ele>
        <time>2023-03-30T17:50:22.583Z</time>
      </trkpt>
      <trkpt lat="48.843780" lon="2.056943">
        <ele>132.070761</ele>
        <time>2023-03-30T17:50:25.869Z</time>
      </trkpt>
      <trkpt lat="48.843915" lon="2.056959">
        <ele>132.402339</ele>
        <time>2023-03-30T17:50:29.290Z</time>
      </trkpt>
      <trkpt lat="48.844000" lon="2.056923">
        <ele>132.618412</ele>
        <time>2023-03-30T17:50:31.473Z</time>
      </trkpt>
      <trkpt lat="48.844150" lon="2.056955">
        <ele>132.989318</ele>
        <time>2023-03-30T17:50:35.130Z</time>
      </trkpt>
      <trkpt lat="48.844375" lon="2.057135">
        <ele>133.611969</ele>
        <time>2023-03-30T17:50:41.437Z</time>
      </trkpt>
      <trkpt lat="48.844600" lon="2.057444">
        <ele>134.379423</ele>
        <time>2023-03-30T17:50:48.862Z</time>
      </trkpt>
      <trkpt lat="48.844871" lon="2.057806">
        <ele>135.388222</ele>
        <time>2023-03-30T17:50:57.698Z</time>
      </trkpt>
      <trkpt lat="48.844845" lon="2.057953">
        <ele>135.668287</ele>
        <time>2023-03-30T17:51:00.097Z</time>
      </trkpt>
      <trkpt lat="48.844881" lon="2.058041">
        <ele>135.858933</ele>
        <time>2023-03-30T17:51:01.794Z</time>
      </trkpt>
      <trkpt lat="48.844954" lon="2.058075">
        <ele>136.072398</ele>
        <time>2023-03-30T17:51:03.752Z</time>
      </trkpt>
      <trkpt lat="48.845022" lon="2.058026">
        <ele>136.282806</ele>
        <time>2023-03-30T17:51:05.687Z</time>
      </trkpt>
      <trkpt lat="48.845214" lon="2.058282">
        <ele>136.996951</ele>
        <time>2023-03-30T17:51:12.019Z</time>
      </trkpt>
      <trkpt lat="48.845553" lon="2.058747">
        <ele>138.273762</ele>
        <time>2023-03-30T17:51:24.043Z</time>
      </trkpt>
      <trkpt lat="48.846052" lon="2.059328">
        <ele>140.308331</ele>
        <time>2023-03-30T17:51:41.818Z</time>
      </trkpt>
      <trkpt lat="48.846426" lon="2.059695">
        <ele>141.971904</ele>
        <time>2023-03-30T17:51:55.128Z</time>
      </trkpt>
      <trkpt lat="48.846528" lon="2.059756">
        <ele>142.381497</ele>
        <time>2023-03-30T17:51:58.378Z</time>
      </trkpt>
      <trkpt lat="48.847329" lon="2.060867">
        <ele>146.605441</ele>
        <time>2023-03-30T17:52:30.770Z</time>
      </trkpt>
      <trkpt lat="48.847363" lon="2.060913">
        <ele>146.833350</ele>
        <time>2023-03-30T17:52:32.246Z</time>
      </trkpt>
      <trkpt lat="48.847386" lon="2.060944">
        <ele>146.987266</ele>
        <time>2023-03-30T17:52:33.271Z</time>
      </trkpt>
      <trkpt lat="48.847657" lon="2.061427">
        <ele>149.078426</ele>
        <time>2023-03-30T17:52:47.344Z</time>
      </trkpt>
      <trkpt lat="48.847840" lon="2.061839">
        <ele>150.716051</ele>
        <time>2023-03-30T17:52:58.664Z</time>
      </trkpt>
      <trkpt lat="48.847815" lon="2.061910">
        <ele>150.981345</ele>
        <time>2023-03-30T17:53:00.587Z</time>
      </trkpt>
      <trkpt lat="48.847824" lon="2.061962">
        <ele>151.158489</ele>
        <time>2023-03-30T17:53:01.897Z</time>
      </trkpt>
      <trkpt lat="48.847853" lon="2.061999">
        <ele>151.348064</ele>
        <time>2023-03-30T17:53:03.221Z</time>
      </trkpt>
      <trkpt lat="48.847909" lon="2.061989">
        <ele>151.630355</ele>
        <time>2023-03-30T17:53:05.141Z</time>
      </trkpt>
      <trkpt lat="48.847944" lon="2.062043">
        <ele>151.880064</ele>
        <time>2023-03-30T17:53:07.058Z</time>
      </trkpt>
      <trkpt lat="48.848554" lon="2.063280">
        <ele>157.505457</ele>
        <time>2023-03-30T17:53:45.068Z</time>
      </trkpt>
      <trkpt lat="48.848675" lon="2.063587">
        <ele>158.992487</ele>
        <time>2023-03-30T17:53:54.794Z</time>
      </trkpt>
      <trkpt lat="48.848660" lon="2.063736">
        <ele>159.618846</ele>
        <time>2023-03-30T17:53:58.537Z</time>
      </trkpt>
      <trkpt lat="48.848674" lon="2.063810">
        <ele>159.938802</ele>
        <time>2023-03-30T17:54:00.580Z</time>
      </trkpt>
      <trkpt lat="48.848779" lon="2.063959">
        <ele>160.845986</ele>
        <time>2023-03-30T17:54:06.795Z</time>
      </trkpt>
      <trkpt lat="48.848861" lon="2.063973">
        <ele>161.367051</ele>
        <time>2023-03-30T17:54:10.144Z</time>
      </trkpt>
      <trkpt lat="48.848939" lon="2.063930">
        <ele>161.891008</ele>
        <time>2023-03-30T17:54:13.377Z</time>
      </trkpt>
      <trkpt lat="48.849139" lon="2.063992">
        <ele>163.179963</ele>
        <time>2023-03-30T17:54:22.186Z</time>
      </trkpt>
      <trkpt lat="48.849353" lon="2.064144">
        <ele>164.671635</ele>
        <time>2023-03-30T17:54:31.834Z</time>
      </trkpt>
      <trkpt lat="48.849697" lon="2.064277">
        <ele>166.871874</ele>
        <time>2023-03-30T17:54:46.506Z</time>
      </trkpt>
      <trkpt lat="48.849992" lon="2.064293">
        <ele>168.612202</ele>
        <time>2023-03-30T17:54:58.461Z</time>
      </trkpt>
      <trkpt lat="48.850338" lon="2.064216">
        <ele>170.673857</ele>
        <time>2023-03-30T17:55:12.368Z</time>
      </trkpt>
      <trkpt lat="48.850923" lon="2.063999">
        <ele>174.224075</ele>
        <time>2023-03-30T17:55:35.481Z</time>
      </trkpt>
      <trkpt lat="48.851346" lon="2.063991">
        <ele>176.718133</ele>
        <time>2023-03-30T17:55:51.115Z</time>
      </trkpt>
      <trkpt lat="48.851656" lon="2.064065">
        <ele>178.017063</ele>
        <time>2023-03-30T17:56:02.076Z</time>
      </trkpt>
      <trkpt lat="48.852110" lon="2.064234">
        <ele>179.864528</ele>
        <time>2023-03-30T17:56:17.526Z</time>
      </trkpt>
      <trkpt lat="48.852603" lon="2.064418">
        <ele>181.870992</ele>
        <time>2023-03-30T17:56:33.164Z</time>
      </trkpt>
      <trkpt lat="48.852978" lon="2.064429">
        <ele>183.353443</ele>
        <time>2023-03-30T17:56:43.782Z</time>
      </trkpt>
      <trkpt lat="48.854707" lon="2.064316">
        <ele>187.084486</ele>
        <time>2023-03-30T17:57:23.084Z</time>
      </trkpt>
      <trkpt lat="48.854702" lon="2.064402">
        <ele>187.196209</ele>
        <time>2023-03-30T17:57:24.208Z</time>
      </trkpt>
      <trkpt lat="48.854698" lon="2.064589">
        <ele>187.438325</ele>
        <time>2023-03-30T17:57:26.619Z</time>
      </trkpt>
      <trkpt lat="48.854663" lon="2.066313">
        <ele>188.346713</ele>
        <time>2023-03-30T17:57:49.099Z</time>
      </trkpt>
      <trkpt lat="48.854608" lon="2.067683">
        <ele>188.630696</ele>
        <time>2023-03-30T17:58:03.452Z</time>
      </trkpt>
      <trkpt lat="48.854464" lon="2.073260">
        <ele>183.038573</ele>
        <time>2023-03-30T17:58:44.895Z</time>
      </trkpt>
      <trkpt lat="48.854461" lon="2.073343">
        <ele>182.958496</ele>
        <time>2023-03-30T17:58:45.496Z</time>
      </trkpt>
      <trkpt lat="48.854424" lon="2.074234">
        <ele>182.098459</ele>
        <time>2023-03-30T17:58:52.054Z</time>
      </trkpt>
      <trkpt lat="48.854417" lon="2.074796">
        <ele>181.556969</ele>
        <time>2023-03-30T17:58:56.308Z</time>
      </trkpt>
      <trkpt lat="48.854403" lon="2.076014">
        <ele>180.672693</ele>
        <time>2023-03-30T17:59:06.003Z</time>
      </trkpt>
      <trkpt lat="48.854350" lon="2.077264">
        <ele>180.329025</ele>
        <time>2023-03-30T17:59:16.865Z</time>
      </trkpt>
      <trkpt lat="48.854254" lon="2.080587">
        <ele>179.993004</ele>
        <time>2023-03-30T17:59:49.929Z</time>
      </trkpt>
      <trkpt lat="48.854197" lon="2.082789">
        <ele>179.804137</ele>
        <time>2023-03-30T18:00:10.019Z</time>
      </trkpt>
      <trkpt lat="48.854177" lon="2.083342">
        <ele>179.746815</ele>
        <time>2023-03-30T18:00:15.209Z</time>
      </trkpt>
      <trkpt lat="48.854161" lon="2.083802">
        <ele>179.703668</ele>
        <time>2023-03-30T18:00:19.540Z</time>
      </trkpt>
      <trkpt lat="48.856880" lon="2.083791">
        <ele>180.151945</ele>
        <time>2023-03-30T18:01:03.298Z</time>
      </trkpt>
      <trkpt lat="48.860035" lon="2.083788">
        <ele>179.073614</ele>
        <time>2023-03-30T18:01:45.643Z</time>
      </trkpt>
      <trkpt lat="48.861214" lon="2.083811">
        <ele>178.484502</ele>
        <time>2023-03-30T18:02:01.510Z</time>
      </trkpt>
      <trkpt lat="48.861291" lon="2.083838">
        <ele>178.445020</ele>
        <time>2023-03-30T18:02:02.525Z</time>
      </trkpt>
      <trkpt lat="48.861599" lon="2.083994">
        <ele>178.013987</ele>
        <time>2023-03-30T18:02:06.673Z</time>
      </trkpt>
      <trkpt lat="48.861763" lon="2.084133">
        <ele>177.735086</ele>
        <time>2023-03-30T18:02:09.001Z</time>
      </trkpt>
      <trkpt lat="48.862135" lon="2.084495">
        <ele>177.079018</ele>
        <time>2023-03-30T18:02:14.354Z</time>
      </trkpt>
      <trkpt lat="48.862164" lon="2.084521">
        <ele>177.029010</ele>
        <time>2023-03-30T18:02:14.757Z</time>
      </trkpt>
      <trkpt lat="48.864833" lon="2.086977">
        <ele>170.713467</ele>
        <time>2023-03-30T18:02:48.601Z</time>
      </trkpt>
      <trkpt lat="48.864996" lon="2.087194">
        <ele>170.162891</ele>
        <time>2023-03-30T18:02:50.926Z</time>
      </trkpt>
      <trkpt lat="48.865050" lon="2.087392">
        <ele>169.804597</ele>
        <time>2023-03-30T18:02:52.468Z</time>
      </trkpt>
      <trkpt lat="48.865074" lon="2.087900">
        <ele>168.953239</ele>
        <time>2023-03-30T18:02:56.090Z</time>
      </trkpt>
      <trkpt lat="48.865477" lon="2.089815">
        <ele>164.114665</ele>
        <time>2023-03-30T18:03:09.504Z</time>
      </trkpt>
      <trkpt lat="48.865606" lon="2.090259">
        <ele>162.604581</ele>
        <time>2023-03-30T18:03:12.568Z</time>
      </trkpt>
      <trkpt lat="48.865930" lon="2.090972">
        <ele>159.908535</ele>
        <time>2023-03-30T18:03:17.884Z</time>
      </trkpt>
      <trkpt lat="48.866628" lon="2.092372">
        <ele>153.115238</ele>
        <time>2023-03-30T18:03:28.238Z</time>
      </trkpt>
      <trkpt lat="48.866704" lon="2.092543">
        <ele>152.277549</ele>
        <time>2023-03-30T18:03:29.455Z</time>
      </trkpt>
      <trkpt lat="48.866763" lon="2.092674">
        <ele>151.633112</ele>
        <time>2023-03-30T18:03:30.411Z</time>
      </trkpt>
      <trkpt lat="48.866810" lon="2.092941">
        <ele>150.511192</ele>
        <time>2023-03-30T18:03:32.091Z</time>
      </trkpt>
      <trkpt lat="48.866799" lon="2.093066">
        <ele>149.999282</ele>
        <time>2023-03-30T18:03:32.855Z</time>
      </trkpt>
      <trkpt lat="48.866723" lon="2.093306">
        <ele>148.918089</ele>
        <time>2023-03-30T18:03:34.500Z</time>
      </trkpt>
      <trkpt lat="48.866608" lon="2.093550">
        <ele>147.700383</ele>
        <time>2023-03-30T18:03:36.366Z</time>
      </trkpt>
      <trkpt lat="48.866459" lon="2.093714">
        <ele>146.820937</ele>
        <time>2023-03-30T18:03:38.165Z</time>
      </trkpt>
      <trkpt lat="48.866292" lon="2.093785">
        <ele>145.991913</ele>
        <time>2023-03-30T18:03:39.832Z</time>
      </trkpt>
      <trkpt lat="48.866151" lon="2.093777">
        <ele>145.317356</ele>
        <time>2023-03-30T18:03:41.233Z</time>
      </trkpt>
      <trkpt lat="48.866032" lon="2.093720">
        <ele>144.720871</ele>
        <time>2023-03-30T18:03:42.461Z</time>
      </trkpt>
      <trkpt lat="48.865807" lon="2.093538">
        <ele>143.502396</ele>
        <time>2023-03-30T18:03:44.902Z</time>
      </trkpt>
      <trkpt lat="48.865695" lon="2.093502">
        <ele>142.955111</ele>
        <time>2023-03-30T18:03:45.977Z</time>
      </trkpt>
      <trkpt lat="48.865507" lon="2.093530">
        <ele>142.052023</ele>
        <time>2023-03-30T18:03:47.741Z</time>
      </trkpt>
      <trkpt lat="48.865310" lon="2.093681">
        <ele>140.997261</ele>
        <time>2023-03-30T18:03:49.780Z</time>
      </trkpt>
      <trkpt lat="48.865094" lon="2.093890">
        <ele>139.773172</ele>
        <time>2023-03-30T18:03:52.200Z</time>
      </trkpt>
      <trkpt lat="48.865032" lon="2.094013">
        <ele>139.285838</ele>
        <time>2023-03-30T18:03:53.155Z</time>
      </trkpt>
      <trkpt lat="48.864997" lon="2.094081">
        <ele>138.992733</ele>
        <time>2023-03-30T18:03:53.708Z</time>
      </trkpt>
      <trkpt lat="48.864982" lon="2.094112">
        <ele>138.842574</ele>
        <time>2023-03-30T18:03:53.946Z</time>
      </trkpt>
      <trkpt lat="48.864970" lon="2.094139">
        <ele>138.715430</ele>
        <time>2023-03-30T18:03:54.154Z</time>
      </trkpt>
      <trkpt lat="48.864948" lon="2.094194">
        <ele>138.464263</ele>
        <time>2023-03-30T18:03:54.559Z</time>
      </trkpt>
      <trkpt lat="48.864928" lon="2.094250">
        <ele>138.215628</ele>
        <time>2023-03-30T18:03:54.958Z</time>
      </trkpt>
      <trkpt lat="48.864910" lon="2.094307">
        <ele>137.968917</ele>
        <time>2023-03-30T18:03:55.358Z</time>
      </trkpt>
      <trkpt lat="48.864897" lon="2.094353">
        <ele>137.773565</ele>
        <time>2023-03-30T18:03:55.672Z</time>
      </trkpt>
      <trkpt lat="48.864885" lon="2.094400">
        <ele>137.576844</ele>
        <time>2023-03-30T18:03:55.986Z</time>
      </trkpt>
      <trkpt lat="48.864874" lon="2.094449">
        <ele>137.374822</ele>
        <time>2023-03-30T18:03:56.313Z</time>
      </trkpt>
      <trkpt lat="48.864865" lon="2.094498">
        <ele>137.176313</ele>
        <time>2023-03-30T18:03:56.641Z</time>
      </trkpt>
      <trkpt lat="48.864857" lon="2.094549">
        <ele>136.971733</ele>
        <time>2023-03-30T18:03:56.978Z</time>
      </trkpt>
      <trkpt lat="48.864850" lon="2.094600">
        <ele>136.768448</ele>
        <time>2023-03-30T18:03:57.312Z</time>
      </trkpt>
      <trkpt lat="48.864844" lon="2.094651">
        <ele>136.566290</ele>
        <time>2023-03-30T18:03:57.641Z</time>
      </trkpt>
      <trkpt lat="48.864841" lon="2.094702">
        <ele>136.366496</ele>
        <time>2023-03-30T18:03:57.968Z</time>
      </trkpt>
      <trkpt lat="48.864838" lon="2.094753">
        <ele>136.166702</ele>
        <time>2023-03-30T18:03:58.288Z</time>
      </trkpt>
      <trkpt lat="48.864837" lon="2.094799">
        <ele>135.987113</ele>
        <time>2023-03-30T18:03:58.571Z</time>
      </trkpt>
      <trkpt lat="48.864837" lon="2.094844">
        <ele>135.811525</ele>
        <time>2023-03-30T18:03:58.854Z</time>
      </trkpt>
      <trkpt lat="48.864838" lon="2.094893">
        <ele>135.620236</ele>
        <time>2023-03-30T18:03:59.154Z</time>
      </trkpt>
      <trkpt lat="48.864861" lon="2.095120">
        <ele>134.724046</ele>
        <time>2023-03-30T18:04:00.591Z</time>
      </trkpt>
      <trkpt lat="48.864932" lon="2.095455">
        <ele>133.350723</ele>
        <time>2023-03-30T18:04:02.718Z</time>
      </trkpt>
      <trkpt lat="48.865107" lon="2.096027">
        <ele>130.889235</ele>
        <time>2023-03-30T18:04:06.495Z</time>
      </trkpt>
      <trkpt lat="48.865150" lon="2.096169">
        <ele>130.279273</ele>
        <time>2023-03-30T18:04:07.426Z</time>
      </trkpt>
      <trkpt lat="48.865192" lon="2.096304">
        <ele>129.696572</ele>
        <time>2023-03-30T18:04:08.293Z</time>
      </trkpt>
      <trkpt lat="48.865249" lon="2.096490">
        <ele>128.895925</ele>
        <time>2023-03-30T18:04:09.491Z</time>
      </trkpt>
      <trkpt lat="48.865448" lon="2.097141">
        <ele>125.731771</ele>
        <time>2023-03-30T18:04:13.680Z</time>
      </trkpt>
      <trkpt lat="48.865509" lon="2.097340">
        <ele>124.742203</ele>
        <time>2023-03-30T18:04:14.966Z</time>
      </trkpt>
      <trkpt lat="48.865592" lon="2.097611">
        <ele>123.394807</ele>
        <time>2023-03-30T18:04:16.749Z</time>
      </trkpt>
      <trkpt lat="48.866061" lon="2.099144">
        <ele>115.941292</ele>
        <time>2023-03-30T18:04:26.792Z</time>
      </trkpt>
      <trkpt lat="48.866458" lon="2.100411">
        <ele>112.751234</ele>
        <time>2023-03-30T18:04:35.315Z</time>
      </trkpt>
      <trkpt lat="48.866537" lon="2.100543">
        <ele>112.345586</ele>
        <time>2023-03-30T18:04:36.512Z</time>
      </trkpt>
      <trkpt lat="48.866793" lon="2.100760">
        <ele>111.332747</ele>
        <time>2023-03-30T18:04:39.811Z</time>
      </trkpt>
      <trkpt lat="48.866897" lon="2.100861">
        <ele>110.906300</ele>
        <time>2023-03-30T18:04:41.262Z</time>
      </trkpt>
      <trkpt lat="48.867084" lon="2.101136">
        <ele>110.007249</ele>
        <time>2023-03-30T18:04:44.972Z</time>
      </trkpt>
      <trkpt lat="48.867144" lon="2.101317">
        <ele>110.369001</ele>
        <time>2023-03-30T18:04:47.266Z</time>
      </trkpt>
      <trkpt lat="48.867145" lon="2.101484">
        <ele>110.883053</ele>
        <time>2023-03-30T18:04:49.797Z</time>
      </trkpt>
      <trkpt lat="48.867145" lon="2.101648">
        <ele>111.387849</ele>
        <time>2023-03-30T18:04:52.159Z</time>
      </trkpt>
      <trkpt lat="48.867140" lon="2.101671">
        <ele>111.462410</ele>
        <time>2023-03-30T18:04:52.520Z</time>
      </trkpt>
      <trkpt lat="48.867134" lon="2.101713">
        <ele>111.594700</ele>
        <time>2023-03-30T18:04:53.204Z</time>
      </trkpt>
      <trkpt lat="48.867086" lon="2.101845">
        <ele>112.058948</ele>
        <time>2023-03-30T18:04:55.732Z</time>
      </trkpt>
      <trkpt lat="48.867009" lon="2.101968">
        <ele>112.581589</ele>
        <time>2023-03-30T18:04:59.167Z</time>
      </trkpt>
      <trkpt lat="48.866835" lon="2.102090">
        <ele>113.478201</ele>
        <time>2023-03-30T18:05:05.098Z</time>
      </trkpt>
      <trkpt lat="48.866635" lon="2.102122">
        <ele>114.419215</ele>
        <time>2023-03-30T18:05:12.505Z</time>
      </trkpt>
      <trkpt lat="48.866322" lon="2.101988">
        <ele>115.940783</ele>
        <time>2023-03-30T18:05:25.629Z</time>
      </trkpt>
      <trkpt lat="48.866087" lon="2.102020">
        <ele>117.044804</ele>
        <time>2023-03-30T18:05:36.094Z</time>
      </trkpt>
      <trkpt lat="48.864025" lon="2.103808">
        <ele>133.446397</ele>
        <time>2023-03-30T18:07:23.504Z</time>
      </trkpt>
      <trkpt lat="48.864045" lon="2.103872">
        <ele>133.710155</ele>
        <time>2023-03-30T18:07:25.306Z</time>
      </trkpt>
      <trkpt lat="48.864291" lon="2.104685">
        <ele>137.041379</ele>
        <time>2023-03-30T18:07:47.573Z</time>
      </trkpt>
      <trkpt lat="48.864533" lon="2.105356">
        <ele>139.889950</ele>
        <time>2023-03-30T18:08:05.162Z</time>
      </trkpt>
      <trkpt lat="48.865090" lon="2.105891">
        <ele>143.131468</ele>
        <time>2023-03-30T18:08:26.319Z</time>
      </trkpt>
      <trkpt lat="48.865442" lon="2.106079">
        <ele>144.643864</ele>
        <time>2023-03-30T18:08:38.751Z</time>
      </trkpt>
      <trkpt lat="48.866029" lon="2.106810">
        <ele>147.719858</ele>
        <time>2023-03-30T18:09:03.211Z</time>
      </trkpt>
      <trkpt lat="48.866236" lon="2.107529">
        <ele>149.218057</ele>
        <time>2023-03-30T18:09:17.684Z</time>
      </trkpt>
      <trkpt lat="48.866237" lon="2.107788">
        <ele>149.245978</ele>
        <time>2023-03-30T18:09:21.941Z</time>
      </trkpt>
      <trkpt lat="48.866232" lon="2.108111">
        <ele>149.280808</ele>
        <time>2023-03-30T18:09:26.711Z</time>
      </trkpt>
      <trkpt lat="48.866284" lon="2.108474">
        <ele>149.320858</ele>
        <time>2023-03-30T18:09:31.675Z</time>
      </trkpt>
      <trkpt lat="48.866546" lon="2.109518">
        <ele>149.441315</ele>
        <time>2023-03-30T18:09:41.789Z</time>
      </trkpt>
      <trkpt lat="48.866589" lon="2.109871">
        <ele>149.480016</ele>
        <time>2023-03-30T18:09:44.336Z</time>
      </trkpt>
      <trkpt lat="48.866572" lon="2.110498">
        <ele>147.376436</ele>
        <time>2023-03-30T18:09:48.342Z</time>
      </trkpt>
      <trkpt lat="48.866517" lon="2.110991">
        <ele>145.476476</ele>
        <time>2023-03-30T18:09:51.407Z</time>
      </trkpt>
      <trkpt lat="48.866511" lon="2.111247">
        <ele>144.503155</ele>
        <time>2023-03-30T18:09:52.945Z</time>
      </trkpt>
      <trkpt lat="48.866509" lon="2.111415">
        <ele>143.864714</ele>
        <time>2023-03-30T18:09:53.965Z</time>
      </trkpt>
      <trkpt lat="48.866494" lon="2.112033">
        <ele>141.514949</ele>
        <time>2023-03-30T18:09:57.635Z</time>
      </trkpt>
      <trkpt lat="48.866493" lon="2.112067">
        <ele>141.385633</ele>
        <time>2023-03-30T18:09:57.832Z</time>
      </trkpt>
      <trkpt lat="48.866484" lon="2.112280">
        <ele>140.574645</ele>
        <time>2023-03-30T18:09:59.077Z</time>
      </trkpt>
      <trkpt lat="48.866455" lon="2.112900">
        <ele>137.966845</ele>
        <time>2023-03-30T18:10:02.694Z</time>
      </trkpt>
      <trkpt lat="48.866451" lon="2.112992">
        <ele>137.519176</ele>
        <time>2023-03-30T18:10:03.238Z</time>
      </trkpt>
      <trkpt lat="48.866270" lon="2.113551">
        <ele>134.494035</ele>
        <time>2023-03-30T18:10:06.861Z</time>
      </trkpt>
      <trkpt lat="48.866108" lon="2.113869">
        <ele>132.541150</ele>
        <time>2023-03-30T18:10:09.195Z</time>
      </trkpt>
      <trkpt lat="48.865790" lon="2.114370">
        <ele>129.160824</ele>
        <time>2023-03-30T18:10:13.278Z</time>
      </trkpt>
      <trkpt lat="48.865543" lon="2.114658">
        <ele>126.863172</ele>
        <time>2023-03-30T18:10:16.084Z</time>
      </trkpt>
      <trkpt lat="48.864835" lon="2.115396">
        <ele>121.698121</ele>
        <time>2023-03-30T18:10:23.920Z</time>
      </trkpt>
      <trkpt lat="48.864816" lon="2.115511">
        <ele>121.249728</ele>
        <time>2023-03-30T18:10:24.621Z</time>
      </trkpt>
      <trkpt lat="48.864854" lon="2.115613">
        <ele>120.806441</ele>
        <time>2023-03-30T18:10:25.327Z</time>
      </trkpt>
      <trkpt lat="48.865360" lon="2.116392">
        <ele>116.666491</ele>
        <time>2023-03-30T18:10:32.025Z</time>
      </trkpt>
      <trkpt lat="48.865355" lon="2.116427">
        <ele>116.531051</ele>
        <time>2023-03-30T18:10:32.253Z</time>
      </trkpt>
      <trkpt lat="48.864790" lon="2.117137">
        <ele>112.681888</ele>
        <time>2023-03-30T18:10:39.280Z</time>
      </trkpt>
      <trkpt lat="48.864426" lon="2.117618">
        <ele>110.228844</ele>
        <time>2023-03-30T18:10:43.838Z</time>
      </trkpt>
      <trkpt lat="48.864173" lon="2.117970">
        <ele>108.484461</ele>
        <time>2023-03-30T18:10:47.030Z</time>
      </trkpt>
      <trkpt lat="48.864111" lon="2.118181">
        <ele>107.711260</ele>
        <time>2023-03-30T18:10:48.427Z</time>
      </trkpt>
      <trkpt lat="48.864090" lon="2.118369">
        <ele>107.073233</ele>
        <time>2023-03-30T18:10:49.582Z</time>
      </trkpt>
      <trkpt lat="48.863958" lon="2.119372">
        <ele>103.719914</ele>
        <time>2023-03-30T18:10:55.868Z</time>
      </trkpt>
      <trkpt lat="48.863689" lon="2.121918">
        <ele>96.122508</ele>
        <time>2023-03-30T18:11:11.921Z</time>
      </trkpt>
      <trkpt lat="48.863557" lon="2.123111">
        <ele>93.690968</ele>
        <time>2023-03-30T18:11:20.256Z</time>
      </trkpt>
      <trkpt lat="48.863496" lon="2.123184">
        <ele>93.453769</ele>
        <time>2023-03-30T18:11:21.171Z</time>
      </trkpt>
      <trkpt lat="48.863504" lon="2.123274">
        <ele>93.271230</ele>
        <time>2023-03-30T18:11:21.820Z</time>
      </trkpt>
      <trkpt lat="48.863534" lon="2.123314">
        <ele>93.149307</ele>
        <time>2023-03-30T18:11:22.233Z</time>
      </trkpt>
      <trkpt lat="48.863554" lon="2.123323">
        <ele>93.085580</ele>
        <time>2023-03-30T18:11:22.438Z</time>
      </trkpt>
      <trkpt lat="48.863693" lon="2.123639">
        <ele>92.321535</ele>
        <time>2023-03-30T18:11:25.190Z</time>
      </trkpt>
      <trkpt lat="48.863752" lon="2.123773">
        <ele>91.997445</ele>
        <time>2023-03-30T18:11:26.313Z</time>
      </trkpt>
      <trkpt lat="48.864020" lon="2.124346">
        <ele>91.249329</ele>
        <time>2023-03-30T18:11:31.396Z</time>
      </trkpt>
      <trkpt lat="48.864049" lon="2.124358">
        <ele>91.202980</ele>
        <time>2023-03-30T18:11:31.714Z</time>
      </trkpt>
      <trkpt lat="48.864148" lon="2.124546">
        <ele>90.958681</ele>
        <time>2023-03-30T18:11:33.565Z</time>
      </trkpt>
      <trkpt lat="48.864853" lon="2.125727">
        <ele>89.340851</ele>
        <time>2023-03-30T18:11:45.509Z</time>
      </trkpt>
      <trkpt lat="48.864981" lon="2.126071">
        <ele>89.181600</ele>
        <time>2023-03-30T18:11:48.790Z</time>
      </trkpt>
      <trkpt lat="48.864998" lon="2.127290">
        <ele>89.345527</ele>
        <time>2023-03-30T18:12:00.556Z</time>
      </trkpt>
      <trkpt lat="48.864880" lon="2.128138">
        <ele>89.462060</ele>
        <time>2023-03-30T18:12:11.379Z</time>
      </trkpt>
      <trkpt lat="48.864902" lon="2.128793">
        <ele>89.429073</ele>
        <time>2023-03-30T18:12:19.717Z</time>
      </trkpt>
      <trkpt lat="48.864941" lon="2.129075">
        <ele>89.307703</ele>
        <time>2023-03-30T18:12:23.050Z</time>
      </trkpt>
      <trkpt lat="48.865138" lon="2.130002">
        <ele>88.897401</ele>
        <time>2023-03-30T18:12:32.471Z</time>
      </trkpt>
      <trkpt lat="48.865283" lon="2.130522">
        <ele>88.659524</ele>
        <time>2023-03-30T18:12:37.016Z</time>
      </trkpt>
      <trkpt lat="48.865634" lon="2.131478">
        <ele>87.535038</ele>
        <time>2023-03-30T18:12:44.766Z</time>
      </trkpt>
      <trkpt lat="48.865647" lon="2.131648">
        <ele>87.183196</ele>
        <time>2023-03-30T18:12:45.913Z</time>
      </trkpt>
      <trkpt lat="48.865624" lon="2.132036">
        <ele>86.382308</ele>
        <time>2023-03-30T18:12:48.530Z</time>
      </trkpt>
      <trkpt lat="48.865543" lon="2.132646">
        <ele>85.102966</ele>
        <time>2023-03-30T18:12:52.624Z</time>
      </trkpt>
      <trkpt lat="48.865286" lon="2.134439">
        <ele>80.162334</ele>
        <time>2023-03-30T18:13:04.787Z</time>
      </trkpt>
      <trkpt lat="48.865071" lon="2.135401">
        <ele>76.352919</ele>
        <time>2023-03-30T18:13:10.905Z</time>
      </trkpt>
      <trkpt lat="48.864962" lon="2.136245">
        <ele>73.127997</ele>
        <time>2023-03-30T18:13:16.013Z</time>
      </trkpt>
      <trkpt lat="48.864969" lon="2.136545">
        <ele>71.917813</ele>
        <time>2023-03-30T18:13:17.759Z</time>
      </trkpt>
      <trkpt lat="48.864973" lon="2.136820">
        <ele>70.709818</ele>
        <time>2023-03-30T18:13:19.391Z</time>
      </trkpt>
      <trkpt lat="48.864944" lon="2.137199">
        <ele>69.034165</ele>
        <time>2023-03-30T18:13:21.612Z</time>
      </trkpt>
      <trkpt lat="48.864897" lon="2.137377">
        <ele>68.191833</ele>
        <time>2023-03-30T18:13:22.742Z</time>
      </trkpt>
      <trkpt lat="48.864845" lon="2.137572">
        <ele>67.267775</ele>
        <time>2023-03-30T18:13:23.959Z</time>
      </trkpt>
      <trkpt lat="48.864687" lon="2.137888">
        <ele>65.524655</ele>
        <time>2023-03-30T18:13:26.287Z</time>
      </trkpt>
      <trkpt lat="48.864381" lon="2.138147">
        <ele>63.186515</ele>
        <time>2023-03-30T18:13:29.394Z</time>
      </trkpt>
      <trkpt lat="48.863894" lon="2.138753">
        <ele>60.648599</ele>
        <time>2023-03-30T18:13:35.215Z</time>
      </trkpt>
      <trkpt lat="48.863586" lon="2.138974">
        <ele>60.889671</ele>
        <time>2023-03-30T18:13:39.319Z</time>
      </trkpt>
      <trkpt lat="48.863127" lon="2.139079">
        <ele>61.218214</ele>
        <time>2023-03-30T18:13:48.151Z</time>
      </trkpt>
      <trkpt lat="48.862972" lon="2.139229">
        <ele>61.348271</ele>
        <time>2023-03-30T18:13:52.599Z</time>
      </trkpt>
      <trkpt lat="48.862933" lon="2.139279">
        <ele>61.384383</ele>
        <time>2023-03-30T18:13:54.136Z</time>
      </trkpt>
      <trkpt lat="48.862931" lon="2.139372">
        <ele>61.427711</ele>
        <time>2023-03-30T18:13:55.983Z</time>
      </trkpt>
      <trkpt lat="48.862931" lon="2.139429">
        <ele>61.454252</ele>
        <time>2023-03-30T18:13:57.122Z</time>
      </trkpt>
      <trkpt lat="48.862973" lon="2.139485">
        <ele>61.493796</ele>
        <time>2023-03-30T18:13:58.634Z</time>
      </trkpt>
      <trkpt lat="48.862949" lon="2.139643">
        <ele>61.569303</ele>
        <time>2023-03-30T18:14:01.750Z</time>
      </trkpt>
      <trkpt lat="48.862928" lon="2.139715">
        <ele>61.605977</ele>
        <time>2023-03-30T18:14:03.599Z</time>
      </trkpt>
      <trkpt lat="48.862926" lon="2.139991">
        <ele>61.734501</ele>
        <time>2023-03-30T18:14:09.948Z</time>
      </trkpt>
      <trkpt lat="48.862855" lon="2.140005">
        <ele>61.930504</ele>
        <time>2023-03-30T18:14:12.237Z</time>
      </trkpt>
      <trkpt lat="48.862190" lon="2.140139">
        <ele>65.410900</ele>
        <time>2023-03-30T18:14:37.116Z</time>
      </trkpt>
      <trkpt lat="48.861787" lon="2.140286">
        <ele>67.561140</ele>
        <time>2023-03-30T18:14:53.399Z</time>
      </trkpt>
      <trkpt lat="48.861485" lon="2.140239">
        <ele>69.136194</ele>
        <time>2023-03-30T18:15:05.939Z</time>
      </trkpt>
      <trkpt lat="48.860892" lon="2.139984">
        <ele>71.895590</ele>
        <time>2023-03-30T18:15:24.696Z</time>
      </trkpt>
      <trkpt lat="48.860328" lon="2.139776">
        <ele>73.842634</ele>
        <time>2023-03-30T18:15:40.845Z</time>
      </trkpt>
      <trkpt lat="48.859602" lon="2.139698">
        <ele>76.284348</ele>
        <time>2023-03-30T18:16:00.476Z</time>
      </trkpt>
      <trkpt lat="48.859606" lon="2.139587">
        <ele>76.529713</ele>
        <time>2023-03-30T18:16:01.433Z</time>
      </trkpt>
      <trkpt lat="48.859571" lon="2.139500">
        <ele>76.754794</ele>
        <time>2023-03-30T18:16:03.392Z</time>
      </trkpt>
      <trkpt lat="48.859532" lon="2.139376">
        <ele>77.058153</ele>
        <time>2023-03-30T18:16:06.105Z</time>
      </trkpt>
      <trkpt lat="48.859428" lon="2.139405">
        <ele>77.554611</ele>
        <time>2023-03-30T18:16:09.436Z</time>
      </trkpt>
      <trkpt lat="48.859325" lon="2.139428">
        <ele>78.077823</ele>
        <time>2023-03-30T18:16:11.040Z</time>
      </trkpt>
      <trkpt lat="48.859340" lon="2.139593">
        <ele>78.628581</ele>
        <time>2023-03-30T18:16:14.263Z</time>
      </trkpt>
      <trkpt lat="48.859347" lon="2.139650">
        <ele>78.820307</ele>
        <time>2023-03-30T18:16:15.441Z</time>
      </trkpt>
      <trkpt lat="48.859392" lon="2.139768">
        <ele>79.271284</ele>
        <time>2023-03-30T18:16:18.423Z</time>
      </trkpt>
      <trkpt lat="48.859485" lon="2.139784">
        <ele>79.741666</ele>
        <time>2023-03-30T18:16:20.258Z</time>
      </trkpt>
      <trkpt lat="48.859532" lon="2.140004">
        <ele>80.506486</ele>
        <time>2023-03-30T18:16:26.147Z</time>
      </trkpt>
      <trkpt lat="48.859627" lon="2.140112">
        <ele>81.102707</ele>
        <time>2023-03-30T18:16:31.170Z</time>
      </trkpt>
      <trkpt lat="48.860673" lon="2.140420">
        <ele>86.494797</ele>
        <time>2023-03-30T18:17:12.664Z</time>
      </trkpt>
      <trkpt lat="48.860735" lon="2.140597">
        <ele>87.243448</ele>
        <time>2023-03-30T18:17:17.083Z</time>
      </trkpt>
      <trkpt lat="48.860737" lon="2.140795">
        <ele>87.982759</ele>
        <time>2023-03-30T18:17:22.854Z</time>
      </trkpt>
      <trkpt lat="48.860672" lon="2.140924">
        <ele>88.589403</ele>
        <time>2023-03-30T18:17:26.788Z</time>
      </trkpt>
      <trkpt lat="48.860532" lon="2.140968">
        <ele>89.400691</ele>
        <time>2023-03-30T18:17:31.619Z</time>
      </trkpt>
      <trkpt lat="48.859120" lon="2.140882">
        <ele>97.212938</ele>
        <time>2023-03-30T18:18:25.551Z</time>
      </trkpt>
      <trkpt lat="48.858969" lon="2.140875">
        <ele>97.900343</ele>
        <time>2023-03-30T18:18:30.478Z</time>
      </trkpt>
      <trkpt lat="48.855931" lon="2.140734">
        <ele>111.302746</ele>
        <time>2023-03-30T18:20:07.398Z</time>
      </trkpt>
      <trkpt lat="48.855282" lon="2.140726">
        <ele>114.047240</ele>
        <time>2023-03-30T18:20:28.129Z</time>
      </trkpt>
      <trkpt lat="48.855122" lon="2.140775">
        <ele>114.733146</ele>
        <time>2023-03-30T18:20:33.329Z</time>
      </trkpt>
      <trkpt lat="48.854998" lon="2.140855">
        <ele>115.299256</ele>
        <time>2023-03-30T18:20:37.680Z</time>
      </trkpt>
      <trkpt lat="48.854889" lon="2.140964">
        <ele>115.847583</ele>
        <time>2023-03-30T18:20:41.766Z</time>
      </trkpt>
      <trkpt lat="48.854244" lon="2.142046">
        <ele>119.911751</ele>
        <time>2023-03-30T18:21:11.048Z</time>
      </trkpt>
      <trkpt lat="48.854138" lon="2.142229">
        <ele>120.844309</ele>
        <time>2023-03-30T18:21:16.203Z</time>
      </trkpt>
      <trkpt lat="48.854043" lon="2.142392">
        <ele>121.677199</ele>
        <time>2023-03-30T18:21:21.148Z</time>
      </trkpt>
      <trkpt lat="48.854008" lon="2.142560">
        <ele>122.351239</ele>
        <time>2023-03-30T18:21:25.535Z</time>
      </trkpt>
      <trkpt lat="48.853473" lon="2.142515">
        <ele>125.466077</ele>
        <time>2023-03-30T18:21:46.063Z</time>
      </trkpt>
      <trkpt lat="48.852742" lon="2.142610">
        <ele>129.731058</ele>
        <time>2023-03-30T18:22:16.146Z</time>
      </trkpt>
      <trkpt lat="48.852502" lon="2.142483">
        <ele>131.469082</ele>
        <time>2023-03-30T18:22:26.545Z</time>
      </trkpt>
      <trkpt lat="48.852154" lon="2.142146">
        <ele>134.534321</ele>
        <time>2023-03-30T18:22:43.690Z</time>
      </trkpt>
      <trkpt lat="48.851977" lon="2.142054">
        <ele>135.923899</ele>
        <time>2023-03-30T18:22:52.462Z</time>
      </trkpt>
      <trkpt lat="48.851717" lon="2.141950">
        <ele>137.921030</ele>
        <time>2023-03-30T18:23:05.216Z</time>
      </trkpt>
      <trkpt lat="48.851493" lon="2.141621">
        <ele>140.235056</ele>
        <time>2023-03-30T18:23:20.527Z</time>
      </trkpt>
      <trkpt lat="48.851315" lon="2.141351">
        <ele>142.103212</ele>
        <time>2023-03-30T18:23:32.301Z</time>
      </trkpt>
      <trkpt lat="48.851045" lon="2.140934">
        <ele>144.749210</ele>
        <time>2023-03-30T18:23:48.847Z</time>
      </trkpt>
      <trkpt lat="48.851026" lon="2.141010">
        <ele>145.082881</ele>
        <time>2023-03-30T18:23:51.110Z</time>
      </trkpt>
      <trkpt lat="48.850951" lon="2.141153">
        <ele>145.833399</ele>
        <time>2023-03-30T18:23:56.323Z</time>
      </trkpt>
      <trkpt lat="48.850714" lon="2.140952">
        <ele>147.526221</ele>
        <time>2023-03-30T18:24:07.280Z</time>
      </trkpt>
      <trkpt lat="48.850590" lon="2.140907">
        <ele>148.321377</ele>
        <time>2023-03-30T18:24:12.307Z</time>
      </trkpt>
      <trkpt lat="48.850467" lon="2.140966">
        <ele>149.125859</ele>
        <time>2023-03-30T18:24:17.148Z</time>
      </trkpt>
      <trkpt lat="48.850421" lon="2.141138">
        <ele>149.887865</ele>
        <time>2023-03-30T18:24:22.071Z</time>
      </trkpt>
      <trkpt lat="48.850428" lon="2.141325">
        <ele>150.656597</ele>
        <time>2023-03-30T18:24:26.902Z</time>
      </trkpt>
      <trkpt lat="48.850467" lon="2.141462">
        <ele>151.269239</ele>
        <time>2023-03-30T18:24:30.545Z</time>
      </trkpt>
      <trkpt lat="48.850631" lon="2.141783">
        <ele>152.937175</ele>
        <time>2023-03-30T18:24:41.104Z</time>
      </trkpt>
      <trkpt lat="48.850661" lon="2.141947">
        <ele>153.635791</ele>
        <time>2023-03-30T18:24:45.284Z</time>
      </trkpt>
      <trkpt lat="48.850653" lon="2.142056">
        <ele>154.085924</ele>
        <time>2023-03-30T18:24:48.058Z</time>
      </trkpt>
      <trkpt lat="48.850607" lon="2.142190">
        <ele>154.706230</ele>
        <time>2023-03-30T18:24:51.875Z</time>
      </trkpt>
      <trkpt lat="48.850426" lon="2.142377">
        <ele>155.590947</ele>
        <time>2023-03-30T18:25:00.035Z</time>
      </trkpt>
      <trkpt lat="48.849683" lon="2.142269">
        <ele>158.416216</ele>
        <time>2023-03-30T18:25:23.803Z</time>
      </trkpt>
      <trkpt lat="48.849340" lon="2.142253">
        <ele>159.715165</ele>
        <time>2023-03-30T18:25:33.400Z</time>
      </trkpt>
      <trkpt lat="48.849266" lon="2.142335">
        <ele>160.061832</ele>
        <time>2023-03-30T18:25:35.757Z</time>
      </trkpt>
      <trkpt lat="48.849189" lon="2.142511">
        <ele>160.588269</ele>
        <time>2023-03-30T18:25:39.640Z</time>
      </trkpt>
      <trkpt lat="48.849095" lon="2.142856">
        <ele>161.518364</ele>
        <time>2023-03-30T18:25:46.041Z</time>
      </trkpt>
      <trkpt lat="48.849084" lon="2.143080">
        <ele>161.752393</ele>
        <time>2023-03-30T18:25:49.480Z</time>
      </trkpt>
      <trkpt lat="48.849103" lon="2.143272">
        <ele>161.861453</ele>
        <time>2023-03-30T18:25:52.349Z</time>
      </trkpt>
      <trkpt lat="48.849189" lon="2.143743">
        <ele>162.136011</ele>
        <time>2023-03-30T18:25:58.916Z</time>
      </trkpt>
      <trkpt lat="48.849191" lon="2.143758">
        <ele>162.144608</ele>
        <time>2023-03-30T18:25:59.114Z</time>
      </trkpt>
      <trkpt lat="48.849431" lon="2.144854">
        <ele>162.793424</ele>
        <time>2023-03-30T18:26:11.985Z</time>
      </trkpt>
      <trkpt lat="48.849588" lon="2.145602">
        <ele>163.202672</ele>
        <time>2023-03-30T18:26:19.326Z</time>
      </trkpt>
      <trkpt lat="48.849522" lon="2.147280">
        <ele>163.424135</ele>
        <time>2023-03-30T18:26:35.229Z</time>
      </trkpt>
      <trkpt lat="48.849423" lon="2.149507">
        <ele>164.339068</ele>
        <time>2023-03-30T18:27:00.952Z</time>
      </trkpt>
      <trkpt lat="48.849451" lon="2.149635">
        <ele>164.423644</ele>
        <time>2023-03-30T18:27:02.697Z</time>
      </trkpt>
      <trkpt lat="48.849252" lon="2.149823">
        <ele>164.646916</ele>
        <time>2023-03-30T18:27:07.443Z</time>
      </trkpt>
      <trkpt lat="48.848983" lon="2.149987">
        <ele>164.923090</ele>
        <time>2023-03-30T18:27:13.433Z</time>
      </trkpt>
      <trkpt lat="48.848812" lon="2.150005">
        <ele>165.086418</ele>
        <time>2023-03-30T18:27:16.779Z</time>
      </trkpt>
      <trkpt lat="48.848650" lon="2.149964">
        <ele>165.242906</ele>
        <time>2023-03-30T18:27:19.999Z</time>
      </trkpt>
      <trkpt lat="48.848667" lon="2.150075">
        <ele>165.311020</ele>
        <time>2023-03-30T18:27:21.343Z</time>
      </trkpt>
      <trkpt lat="48.848658" lon="2.150286">
        <ele>165.434257</ele>
        <time>2023-03-30T18:27:24.027Z</time>
      </trkpt>
      <trkpt lat="48.848738" lon="2.150536">
        <ele>165.596282</ele>
        <time>2023-03-30T18:27:27.512Z</time>
      </trkpt>
      <trkpt lat="48.848736" lon="2.150584">
        <ele>165.624314</ele>
        <time>2023-03-30T18:27:28.078Z</time>
      </trkpt>
      <trkpt lat="48.848391" lon="2.151440">
        <ele>166.209365</ele>
        <time>2023-03-30T18:27:40.541Z</time>
      </trkpt>
      <trkpt lat="48.848266" lon="2.151732">
        <ele>166.412398</ele>
        <time>2023-03-30T18:27:44.752Z</time>
      </trkpt>
      <trkpt lat="48.848193" lon="2.151903">
        <ele>166.531199</ele>
        <time>2023-03-30T18:27:47.108Z</time>
      </trkpt>
      <trkpt lat="48.848152" lon="2.152005">
        <ele>166.600863</ele>
        <time>2023-03-30T18:27:48.433Z</time>
      </trkpt>
      <trkpt lat="48.847920" lon="2.152543">
        <ele>166.867856</ele>
        <time>2023-03-30T18:27:55.903Z</time>
      </trkpt>
      <trkpt lat="48.847862" lon="2.152509">
        <ele>166.871613</ele>
        <time>2023-03-30T18:27:56.995Z</time>
      </trkpt>
      <trkpt lat="48.847771" lon="2.152538">
        <ele>166.877232</ele>
        <time>2023-03-30T18:27:58.485Z</time>
      </trkpt>
      <trkpt lat="48.847718" lon="2.152629">
        <ele>166.882065</ele>
        <time>2023-03-30T18:27:59.802Z</time>
      </trkpt>
      <trkpt lat="48.847706" lon="2.152708">
        <ele>166.885289</ele>
        <time>2023-03-30T18:28:00.625Z</time>
      </trkpt>
      <trkpt lat="48.847720" lon="2.152807">
        <ele>166.889316</ele>
        <time>2023-03-30T18:28:01.754Z</time>
      </trkpt>
      <trkpt lat="48.847763" lon="2.152884">
        <ele>166.893332</ele>
        <time>2023-03-30T18:28:02.829Z</time>
      </trkpt>
      <trkpt lat="48.846982" lon="2.154707">
        <ele>166.905475</ele>
        <time>2023-03-30T18:28:23.253Z</time>
      </trkpt>
      <trkpt lat="48.846852" lon="2.154726">
        <ele>166.860913</ele>
        <time>2023-03-30T18:28:24.964Z</time>
      </trkpt>
      <trkpt lat="48.846851" lon="2.155007">
        <ele>166.797815</ele>
        <time>2023-03-30T18:28:27.455Z</time>
      </trkpt>
      <trkpt lat="48.846849" lon="2.155991">
        <ele>166.576863</ele>
        <time>2023-03-30T18:28:36.169Z</time>
      </trkpt>
      <trkpt lat="48.846848" lon="2.156293">
        <ele>166.509050</ele>
        <time>2023-03-30T18:28:38.840Z</time>
      </trkpt>
      <trkpt lat="48.846841" lon="2.158564">
        <ele>166.007426</ele>
        <time>2023-03-30T18:28:59.274Z</time>
      </trkpt>
      <trkpt lat="48.846762" lon="2.158571">
        <ele>165.981055</ele>
        <time>2023-03-30T18:29:00.399Z</time>
      </trkpt>
      <trkpt lat="48.846716" lon="2.158667">
        <ele>165.955014</ele>
        <time>2023-03-30T18:29:01.497Z</time>
      </trkpt>
      <trkpt lat="48.846717" lon="2.158728">
        <ele>165.941633</ele>
        <time>2023-03-30T18:29:02.052Z</time>
      </trkpt>
      <trkpt lat="48.846762" lon="2.158817">
        <ele>165.917020</ele>
        <time>2023-03-30T18:29:03.113Z</time>
      </trkpt>
      <trkpt lat="48.846836" lon="2.158827">
        <ele>165.892263</ele>
        <time>2023-03-30T18:29:04.189Z</time>
      </trkpt>
      <trkpt lat="48.846851" lon="2.166931">
        <ele>164.279569</ele>
        <time>2023-03-30T18:30:45.701Z</time>
      </trkpt>
      <trkpt lat="48.846851" lon="2.167025">
        <ele>164.267071</ele>
        <time>2023-03-30T18:30:46.902Z</time>
      </trkpt>
      <trkpt lat="48.846853" lon="2.168318">
        <ele>164.336029</ele>
        <time>2023-03-30T18:31:04.358Z</time>
      </trkpt>
      <trkpt lat="48.846848" lon="2.168746">
        <ele>164.433455</ele>
        <time>2023-03-30T18:31:10.415Z</time>
      </trkpt>
      <trkpt lat="48.846846" lon="2.168963">
        <ele>164.482848</ele>
        <time>2023-03-30T18:31:13.579Z</time>
      </trkpt>
      <trkpt lat="48.846801" lon="2.168963">
        <ele>164.498411</ele>
        <time>2023-03-30T18:31:14.279Z</time>
      </trkpt>
      <trkpt lat="48.846769" lon="2.169032">
        <ele>164.517623</ele>
        <time>2023-03-30T18:31:15.120Z</time>
      </trkpt>
      <trkpt lat="48.846801" lon="2.169114">
        <ele>164.539320</ele>
        <time>2023-03-30T18:31:16.160Z</time>
      </trkpt>
      <trkpt lat="48.846811" lon="2.169119">
        <ele>164.542961</ele>
        <time>2023-03-30T18:31:16.351Z</time>
      </trkpt>
      <trkpt lat="48.846873" lon="2.169077">
        <ele>164.566438</ele>
        <time>2023-03-30T18:31:17.458Z</time>
      </trkpt>
      <trkpt lat="48.847106" lon="2.169191">
        <ele>164.651095</ele>
        <time>2023-03-30T18:31:21.519Z</time>
      </trkpt>
      <trkpt lat="48.847709" lon="2.169520">
        <ele>164.962156</ele>
        <time>2023-03-30T18:31:32.721Z</time>
      </trkpt>
      <trkpt lat="48.847814" lon="2.169658">
        <ele>165.074637</ele>
        <time>2023-03-30T18:31:35.155Z</time>
      </trkpt>
      <trkpt lat="48.848032" lon="2.169940">
        <ele>165.306601</ele>
        <time>2023-03-30T18:31:40.152Z</time>
      </trkpt>
      <trkpt lat="48.848301" lon="2.170290">
        <ele>165.593533</ele>
        <time>2023-03-30T18:31:46.703Z</time>
      </trkpt>
      <trkpt lat="48.848500" lon="2.170548">
        <ele>165.805479</ele>
        <time>2023-03-30T18:31:51.652Z</time>
      </trkpt>
      <trkpt lat="48.848618" lon="2.170743">
        <ele>165.946727</ele>
        <time>2023-03-30T18:31:54.928Z</time>
      </trkpt>
      <trkpt lat="48.848628" lon="2.170861">
        <ele>166.010162</ele>
        <time>2023-03-30T18:31:56.338Z</time>
      </trkpt>
      <trkpt lat="48.848605" lon="2.171135">
        <ele>166.157438</ele>
        <time>2023-03-30T18:31:59.601Z</time>
      </trkpt>
      <trkpt lat="48.848563" lon="2.171594">
        <ele>166.370657</ele>
        <time>2023-03-30T18:32:05.073Z</time>
      </trkpt>
      <trkpt lat="48.848534" lon="2.171995">
        <ele>166.534141</ele>
        <time>2023-03-30T18:32:09.869Z</time>
      </trkpt>
      <trkpt lat="48.848495" lon="2.172514">
        <ele>166.745833</ele>
        <time>2023-03-30T18:32:16.045Z</time>
      </trkpt>
      <trkpt lat="48.848283" lon="2.173847">
        <ele>167.301586</ele>
        <time>2023-03-30T18:32:31.495Z</time>
      </trkpt>
      <trkpt lat="48.847813" lon="2.176357">
        <ele>167.421267</ele>
        <time>2023-03-30T18:32:58.458Z</time>
      </trkpt>
      <trkpt lat="48.847713" lon="2.177231">
        <ele>166.818773</ele>
        <time>2023-03-30T18:33:05.797Z</time>
      </trkpt>
      <trkpt lat="48.847498" lon="2.179068">
        <ele>164.901044</ele>
        <time>2023-03-30T18:33:19.722Z</time>
      </trkpt>
      <trkpt lat="48.847273" lon="2.180592">
        <ele>162.768314</ele>
        <time>2023-03-30T18:33:30.359Z</time>
      </trkpt>
      <trkpt lat="48.847212" lon="2.181004">
        <ele>162.161156</ele>
        <time>2023-03-30T18:33:33.283Z</time>
      </trkpt>
      <trkpt lat="48.847075" lon="2.181608">
        <ele>161.242620</ele>
        <time>2023-03-30T18:33:37.876Z</time>
      </trkpt>
      <trkpt lat="48.847009" lon="2.181674">
        <ele>161.070002</ele>
        <time>2023-03-30T18:33:38.774Z</time>
      </trkpt>
      <trkpt lat="48.847009" lon="2.181746">
        <ele>160.966484</ele>
        <time>2023-03-30T18:33:39.300Z</time>
      </trkpt>
      <trkpt lat="48.847040" lon="2.181800">
        <ele>160.863455</ele>
        <time>2023-03-30T18:33:39.835Z</time>
      </trkpt>
      <trkpt lat="48.847115" lon="2.181789">
        <ele>160.698835</ele>
        <time>2023-03-30T18:33:40.790Z</time>
      </trkpt>
      <trkpt lat="48.847543" lon="2.182027">
        <ele>160.399517</ele>
        <time>2023-03-30T18:33:46.468Z</time>
      </trkpt>
      <trkpt lat="48.848059" lon="2.182429">
        <ele>160.028064</ele>
        <time>2023-03-30T18:33:53.868Z</time>
      </trkpt>
      <trkpt lat="48.848339" lon="2.182640">
        <ele>159.827857</ele>
        <time>2023-03-30T18:33:58.316Z</time>
      </trkpt>
      <trkpt lat="48.848526" lon="2.182836">
        <ele>159.682336</ele>
        <time>2023-03-30T18:34:02.052Z</time>
      </trkpt>
      <trkpt lat="48.850504" lon="2.185295">
        <ele>158.561402</ele>
        <time>2023-03-30T18:34:36.282Z</time>
      </trkpt>
      <trkpt lat="48.850859" lon="2.185713">
        <ele>158.357453</ele>
        <time>2023-03-30T18:34:41.797Z</time>
      </trkpt>
      <trkpt lat="48.850902" lon="2.185823">
        <ele>158.319218</ele>
        <time>2023-03-30T18:34:42.857Z</time>
      </trkpt>
      <trkpt lat="48.850912" lon="2.186069">
        <ele>158.245565</ele>
        <time>2023-03-30T18:34:44.965Z</time>
      </trkpt>
      <trkpt lat="48.850892" lon="2.186178">
        <ele>158.211750</ele>
        <time>2023-03-30T18:34:45.958Z</time>
      </trkpt>
      <trkpt lat="48.850836" lon="2.186297">
        <ele>158.168030</ele>
        <time>2023-03-30T18:34:47.260Z</time>
      </trkpt>
      <trkpt lat="48.850402" lon="2.187010">
        <ele>158.073633</ele>
        <time>2023-03-30T18:34:56.682Z</time>
      </trkpt>
      <trkpt lat="48.850352" lon="2.187203">
        <ele>158.125171</ele>
        <time>2023-03-30T18:34:58.920Z</time>
      </trkpt>
      <trkpt lat="48.850384" lon="2.187450">
        <ele>158.187722</ele>
        <time>2023-03-30T18:35:01.728Z</time>
      </trkpt>
      <trkpt lat="48.850479" lon="2.187596">
        <ele>158.238740</ele>
        <time>2023-03-30T18:35:04.037Z</time>
      </trkpt>
      <trkpt lat="48.850631" lon="2.187732">
        <ele>158.305345</ele>
        <time>2023-03-30T18:35:07.023Z</time>
      </trkpt>
      <trkpt lat="48.851749" lon="2.188393">
        <ele>158.639157</ele>
        <time>2023-03-30T18:35:27.355Z</time>
      </trkpt>
      <trkpt lat="48.851826" lon="2.188474">
        <ele>158.629897</ele>
        <time>2023-03-30T18:35:28.803Z</time>
      </trkpt>
      <trkpt lat="48.851875" lon="2.188626">
        <ele>158.618882</ele>
        <time>2023-03-30T18:35:30.569Z</time>
      </trkpt>
      <trkpt lat="48.851919" lon="2.189202">
        <ele>158.581149</ele>
        <time>2023-03-30T18:35:36.524Z</time>
      </trkpt>
      <trkpt lat="48.851900" lon="2.189461">
        <ele>158.564191</ele>
        <time>2023-03-30T18:35:39.064Z</time>
      </trkpt>
      <trkpt lat="48.851613" lon="2.190657">
        <ele>158.424973</ele>
        <time>2023-03-30T18:35:50.357Z</time>
      </trkpt>
      <trkpt lat="48.851572" lon="2.190929">
        <ele>158.187457</ele>
        <time>2023-03-30T18:35:52.553Z</time>
      </trkpt>
      <trkpt lat="48.851516" lon="2.191250">
        <ele>157.904791</ele>
        <time>2023-03-30T18:35:55.202Z</time>
      </trkpt>
      <trkpt lat="48.851472" lon="2.191503">
        <ele>157.682049</ele>
        <time>2023-03-30T18:35:57.216Z</time>
      </trkpt>
      <trkpt lat="48.851279" lon="2.192267">
        <ele>156.985474</ele>
        <time>2023-03-30T18:36:03.619Z</time>
      </trkpt>
      <trkpt lat="48.851172" lon="2.192667">
        <ele>156.617943</ele>
        <time>2023-03-30T18:36:06.914Z</time>
      </trkpt>
      <trkpt lat="48.851109" lon="2.192715">
        <ele>156.526781</ele>
        <time>2023-03-30T18:36:07.748Z</time>
      </trkpt>
      <trkpt lat="48.851097" lon="2.192818">
        <ele>156.437746</ele>
        <time>2023-03-30T18:36:08.530Z</time>
      </trkpt>
      <trkpt lat="48.850735" lon="2.194110">
        <ele>153.866608</ele>
        <time>2023-03-30T18:36:18.682Z</time>
      </trkpt>
      <trkpt lat="48.850688" lon="2.194301">
        <ele>153.432580</ele>
        <time>2023-03-30T18:36:20.032Z</time>
      </trkpt>
      <trkpt lat="48.850695" lon="2.194393">
        <ele>153.235459</ele>
        <time>2023-03-30T18:36:20.633Z</time>
      </trkpt>
      <trkpt lat="48.850681" lon="2.194457">
        <ele>153.091909</ele>
        <time>2023-03-30T18:36:21.078Z</time>
      </trkpt>
      <trkpt lat="48.850423" lon="2.195652">
        <ele>150.415010</ele>
        <time>2023-03-30T18:36:29.125Z</time>
      </trkpt>
      <trkpt lat="48.849989" lon="2.197830">
        <ele>143.732109</ele>
        <time>2023-03-30T18:36:43.325Z</time>
      </trkpt>
      <trkpt lat="48.849957" lon="2.197996">
        <ele>143.221977</ele>
        <time>2023-03-30T18:36:44.411Z</time>
      </trkpt>
      <trkpt lat="48.849795" lon="2.198767">
        <ele>141.402144</ele>
        <time>2023-03-30T18:36:49.648Z</time>
      </trkpt>
      <trkpt lat="48.849647" lon="2.199317">
        <ele>140.337269</ele>
        <time>2023-03-30T18:36:53.659Z</time>
      </trkpt>
      <trkpt lat="48.849009" lon="2.201078">
        <ele>136.718493</ele>
        <time>2023-03-30T18:37:08.063Z</time>
      </trkpt>
      <trkpt lat="48.849297" lon="2.201406">
        <ele>135.713820</ele>
        <time>2023-03-30T18:37:11.942Z</time>
      </trkpt>
      <trkpt lat="48.849436" lon="2.201621">
        <ele>135.160162</ele>
        <time>2023-03-30T18:37:14.047Z</time>
      </trkpt>
      <trkpt lat="48.849754" lon="2.202300">
        <ele>133.629250</ele>
        <time>2023-03-30T18:37:19.757Z</time>
      </trkpt>
      <trkpt lat="48.850001" lon="2.202875">
        <ele>132.367893</ele>
        <time>2023-03-30T18:37:24.303Z</time>
      </trkpt>
      <trkpt lat="48.850099" lon="2.203088">
        <ele>131.558257</ele>
        <time>2023-03-30T18:37:25.986Z</time>
      </trkpt>
      <trkpt lat="48.850360" lon="2.203743">
        <ele>129.158729</ele>
        <time>2023-03-30T18:37:30.862Z</time>
      </trkpt>
      <trkpt lat="48.850643" lon="2.204245">
        <ele>127.087297</ele>
        <time>2023-03-30T18:37:34.968Z</time>
      </trkpt>
      <trkpt lat="48.850910" lon="2.204930">
        <ele>124.592457</ele>
        <time>2023-03-30T18:37:39.845Z</time>
      </trkpt>
      <trkpt lat="48.851123" lon="2.205143">
        <ele>123.282092</ele>
        <time>2023-03-30T18:37:42.211Z</time>
      </trkpt>
      <trkpt lat="48.851692" lon="2.205459">
        <ele>119.732884</ele>
        <time>2023-03-30T18:37:47.800Z</time>
      </trkpt>
      <trkpt lat="48.851830" lon="2.205478">
        <ele>118.921075</ele>
        <time>2023-03-30T18:37:49.068Z</time>
      </trkpt>
      <trkpt lat="48.851941" lon="2.205586">
        <ele>118.148900</ele>
        <time>2023-03-30T18:37:50.285Z</time>
      </trkpt>
      <trkpt lat="48.852083" lon="2.205602">
        <ele>117.314684</ele>
        <time>2023-03-30T18:37:51.571Z</time>
      </trkpt>
      <trkpt lat="48.852160" lon="2.205630">
        <ele>116.850831</ele>
        <time>2023-03-30T18:37:52.298Z</time>
      </trkpt>
      <trkpt lat="48.852830" lon="2.205820">
        <ele>112.981775</ele>
        <time>2023-03-30T18:37:58.500Z</time>
      </trkpt>
      <trkpt lat="48.852899" lon="2.205842">
        <ele>112.696712</ele>
        <time>2023-03-30T18:37:59.144Z</time>
      </trkpt>
      <trkpt lat="48.854298" lon="2.206574">
        <ele>106.714240</ele>
        <time>2023-03-30T18:38:13.526Z</time>
      </trkpt>
      <trkpt lat="48.854475" lon="2.206703">
        <ele>105.960962</ele>
        <time>2023-03-30T18:38:15.627Z</time>
      </trkpt>
      <trkpt lat="48.855519" lon="2.208007">
        <ele>103.898051</ele>
        <time>2023-03-30T18:38:31.484Z</time>
      </trkpt>
      <trkpt lat="48.856851" lon="2.209678">
        <ele>101.165577</ele>
        <time>2023-03-30T18:38:52.331Z</time>
      </trkpt>
      <trkpt lat="48.856958" lon="2.209773">
        <ele>100.967238</ele>
        <time>2023-03-30T18:38:53.649Z</time>
      </trkpt>
      <trkpt lat="48.857747" lon="2.210338">
        <ele>98.744872</ele>
        <time>2023-03-30T18:39:02.701Z</time>
      </trkpt>
      <trkpt lat="48.857863" lon="2.210496">
        <ele>98.234647</ele>
        <time>2023-03-30T18:39:04.313Z</time>
      </trkpt>
      <trkpt lat="48.857925" lon="2.210863">
        <ele>97.418053</ele>
        <time>2023-03-30T18:39:06.902Z</time>
      </trkpt>
      <trkpt lat="48.857941" lon="2.211028">
        <ele>97.058613</ele>
        <time>2023-03-30T18:39:08.027Z</time>
      </trkpt>
      <trkpt lat="48.858038" lon="2.211054">
        <ele>96.735973</ele>
        <time>2023-03-30T18:39:09.054Z</time>
      </trkpt>
      <trkpt lat="48.858388" lon="2.211223">
        <ele>95.533035</ele>
        <time>2023-03-30T18:39:12.719Z</time>
      </trkpt>
      <trkpt lat="48.858586" lon="2.211420">
        <ele>94.757857</ele>
        <time>2023-03-30T18:39:15.001Z</time>
      </trkpt>
      <trkpt lat="48.858758" lon="2.211695">
        <ele>93.879357</ele>
        <time>2023-03-30T18:39:17.373Z</time>
      </trkpt>
      <trkpt lat="48.858839" lon="2.211839">
        <ele>93.424153</ele>
        <time>2023-03-30T18:39:18.546Z</time>
      </trkpt>
      <trkpt lat="48.858887" lon="2.211956">
        <ele>93.092862</ele>
        <time>2023-03-30T18:39:19.408Z</time>
      </trkpt>
      <trkpt lat="48.859050" lon="2.212519">
        <ele>91.614967</ele>
        <time>2023-03-30T18:39:23.295Z</time>
      </trkpt>
      <trkpt lat="48.859063" lon="2.212560">
        <ele>91.505614</ele>
        <time>2023-03-30T18:39:23.583Z</time>
      </trkpt>
      <trkpt lat="48.859170" lon="2.212937">
        <ele>90.519113</ele>
        <time>2023-03-30T18:39:26.277Z</time>
      </trkpt>
      <trkpt lat="48.859348" lon="2.213507">
        <ele>89.003146</ele>
        <time>2023-03-30T18:39:30.489Z</time>
      </trkpt>
      <trkpt lat="48.859375" lon="2.213607">
        <ele>88.743434</ele>
        <time>2023-03-30T18:39:31.208Z</time>
      </trkpt>
      <trkpt lat="48.859411" lon="2.213734">
        <ele>88.411178</ele>
        <time>2023-03-30T18:39:32.128Z</time>
      </trkpt>
      <trkpt lat="48.859520" lon="2.213690">
        <ele>87.999314</ele>
        <time>2023-03-30T18:39:33.341Z</time>
      </trkpt>
      <trkpt lat="48.859577" lon="2.213668">
        <ele>87.853821</ele>
        <time>2023-03-30T18:39:33.954Z</time>
      </trkpt>
      <trkpt lat="48.859685" lon="2.213625">
        <ele>87.689546</ele>
        <time>2023-03-30T18:39:35.108Z</time>
      </trkpt>
      <trkpt lat="48.859860" lon="2.213492">
        <ele>87.401652</ele>
        <time>2023-03-30T18:39:37.234Z</time>
      </trkpt>
      <trkpt lat="48.860077" lon="2.213405">
        <ele>87.071432</ele>
        <time>2023-03-30T18:39:39.679Z</time>
      </trkpt>
      <trkpt lat="48.860862" lon="2.213023">
        <ele>85.858614</ele>
        <time>2023-03-30T18:39:49.680Z</time>
      </trkpt>
      <trkpt lat="48.860970" lon="2.212975">
        <ele>85.693046</ele>
        <time>2023-03-30T18:39:51.276Z</time>
      </trkpt>
      <trkpt lat="48.861331" lon="2.212795">
        <ele>85.006694</ele>
        <time>2023-03-30T18:39:56.417Z</time>
      </trkpt>
      <trkpt lat="48.861543" lon="2.212798">
        <ele>84.363722</ele>
        <time>2023-03-30T18:39:58.954Z</time>
      </trkpt>
      <trkpt lat="48.861580" lon="2.212785">
        <ele>84.248551</ele>
        <time>2023-03-30T18:39:59.397Z</time>
      </trkpt>
      <trkpt lat="48.861669" lon="2.212754">
        <ele>83.971640</ele>
        <time>2023-03-30T18:40:00.471Z</time>
      </trkpt>
      <trkpt lat="48.861764" lon="2.212895">
        <ele>83.568962</ele>
        <time>2023-03-30T18:40:01.946Z</time>
      </trkpt>
      <trkpt lat="48.861790" lon="2.212990">
        <ele>83.363672</ele>
        <time>2023-03-30T18:40:02.685Z</time>
      </trkpt>
      <trkpt lat="48.861863" lon="2.213250">
        <ele>82.799657</ele>
        <time>2023-03-30T18:40:04.669Z</time>
      </trkpt>
      <trkpt lat="48.862132" lon="2.213988">
        <ele>81.116320</ele>
        <time>2023-03-30T18:40:10.276Z</time>
      </trkpt>
      <trkpt lat="48.862288" lon="2.214398">
        <ele>80.171340</ele>
        <time>2023-03-30T18:40:13.249Z</time>
      </trkpt>
      <trkpt lat="48.862373" lon="2.214639">
        <ele>79.479689</ele>
        <time>2023-03-30T18:40:14.922Z</time>
      </trkpt>
      <trkpt lat="48.862484" lon="2.215101">
        <ele>77.671662</ele>
        <time>2023-03-30T18:40:17.872Z</time>
      </trkpt>
      <trkpt lat="48.862535" lon="2.215537">
        <ele>76.043790</ele>
        <time>2023-03-30T18:40:20.507Z</time>
      </trkpt>
      <trkpt lat="48.862584" lon="2.216166">
        <ele>73.715437</ele>
        <time>2023-03-30T18:40:24.307Z</time>
      </trkpt>
      <trkpt lat="48.862616" lon="2.216704">
        <ele>71.729688</ele>
        <time>2023-03-30T18:40:27.577Z</time>
      </trkpt>
      <trkpt lat="48.862631" lon="2.216876">
        <ele>71.091887</ele>
        <time>2023-03-30T18:40:28.627Z</time>
      </trkpt>
      <trkpt lat="48.862681" lon="2.216903">
        <ele>70.795394</ele>
        <time>2023-03-30T18:40:29.120Z</time>
      </trkpt>
      <trkpt lat="48.862771" lon="2.216975">
        <ele>70.227102</ele>
        <time>2023-03-30T18:40:30.076Z</time>
      </trkpt>
      <trkpt lat="48.863031" lon="2.217372">
        <ele>69.748806</ele>
        <time>2023-03-30T18:40:33.625Z</time>
      </trkpt>
      <trkpt lat="48.863183" lon="2.217502">
        <ele>69.748806</ele>
        <time>2023-03-30T18:40:35.338Z</time>
      </trkpt>
      <trkpt lat="48.864054" lon="2.217838">
        <ele>69.748806</ele>
        <time>2023-03-30T18:40:44.696Z</time>
      </trkpt>
      <trkpt lat="48.864125" lon="2.217827">
        <ele>69.748806</ele>
        <time>2023-03-30T18:40:45.609Z</time>
      </trkpt>
      <trkpt lat="48.864235" lon="2.217891">
        <ele>69.748806</ele>
        <time>2023-03-30T18:40:58.066Z</time>
      </trkpt>
      <trkpt lat="48.864370" lon="2.217939">
        <ele>69.748806</ele>
        <time>2023-03-30T18:41:12.943Z</time>
      </trkpt>
      <trkpt lat="48.864476" lon="2.217980">
        <ele>69.748806</ele>
        <time>2023-03-30T18:41:25.013Z</time>
      </trkpt>
      <trkpt lat="48.864699" lon="2.218081">
        <ele>69.748806</ele>
        <time>2023-03-30T18:41:50.394Z</time>
      </trkpt>
    </trkseg>
  </trk>
</gpx>